GFSSE_sfc_temp_000.txt.gz
Temp
66 69 79 80 79 79 78 79 78 78 78 78 78 78 77 77 77 77 77 77 77 77 78 77 76 77 76 76 76 75 75 75 75 74 73 72 72 73 75 76 75 73 75
69 70 78 80 79 79 78 78 78 77 77 78 78 78 78 78 77 77 77 77 77 77 77 76 76 76 76 75 75 75 75 75 75 74 72 70 70 71 73 75 75 71 76
70 72 75 79 79 78 78 78 77 77 77 77 78 77 78 78 77 77 77 78 77 76 76 76 75 75 75 74 74 74 75 75 75 74 72 64 63 72 74 74 74 75 76
71 73 74 78 78 78 78 77 77 77 77 77 78 78 78 78 77 78 78 78 77 76 75 75 74 74 74 74 74 74 75 75 74 72 64 64 65 71 74 76 75 75 76
71 73 74 78 78 78 78 77 77 77 77 77 78 78 78 78 78 78 79 78 77 75 74 74 73 73 73 74 74 74 74 74 73 69 62 62 62 69 74 77 76 76 76
71 71 75 77 78 77 77 77 77 77 77 77 76 76 77 77 78 78 78 77 76 74 74 74 73 73 74 74 74 75 75 74 72 63 62 62 63 69 74 75 76 77 76
70 71 73 77 77 77 77 77 77 77 77 76 77 77 76 76 77 77 77 76 75 74 74 74 74 74 74 74 74 74 74 72 66 62 61 61 61 70 74 75 76 77 77
69 71 73 76 77 77 76 76 76 76 76 76 76 76 76 75 76 76 76 75 75 74 74 74 74 74 74 74 74 74 73 71 66 62 62 61 65 71 74 75 75 76 76
70 71 72 73 74 75 75 75 75 76 76 76 76 76 75 74 74 75 75 74 74 74 74 74 74 74 74 74 74 73 71 70 65 62 63 62 67 72 74 75 75 75 76
69 71 71 71 71 71 71 74 74 74 75 75 74 73 71 71 72 72 71 72 73 73 73 73 73 74 73 73 72 71 69 68 62 61 61 61 69 73 75 75 75 76 76
70 71 72 72 71 70 70 71 72 73 73 72 71 70 68 63 63 65 68 70 71 72 73 73 73 72 69 67 68 68 66 60 59 59 60 66 70 73 75 75 75 75 76
69 71 73 72 72 69 71 69 68 69 68 67 66 65 63 62 62 65 64 67 70 70 70 71 70 68 65 60 59 62 57 57 57 57 59 68 71 74 75 75 75 75 76
67 71 72 71 71 68 68 66 66 66 66 65 64 63 63 62 60 61 61 61 61 64 66 63 60 59 57 57 57 56 56 55 54 56 60 68 71 73 74 75 75 76 75
64 67 69 70 69 67 66 66 65 64 64 63 63 63 62 60 60 60 61 63 61 64 58 56 55 56 55 55 54 54 53 53 53 54 56 65 70 72 74 75 74 74 74
64 64 66 67 67 67 65 65 64 63 63 63 63 63 62 61 60 60 65 63 61 58 55 54 53 53 52 53 53 52 52 51 50 53 52 62 67 69 72 72 73 73 73
65 64 66 67 67 66 65 64 64 63 63 62 62 62 64 65 62 63 61 57 57 54 53 52 50 50 49 49 51 50 49 50 50 51 52 52 63 65 68 69 69 70 72
64 64 64 67 66 66 66 64 65 65 64 65 65 66 66 65 64 62 58 54 52 51 51 50 50 49 48 50 47 49 49 48 50 50 51 51 52 59 63 65 66 67 68
62 62 63 69 66 65 64 64 64 65 63 65 65 65 65 64 62 59 53 51 50 49 49 48 47 47 46 45 45 47 47 48 48 48 50 49 50 51 55 61 62 63 64
61 61 63 65 65 65 64 62 61 63 61 64 64 63 62 58 58 53 50 49 49 48 47 47 46 44 43 45 48 47 45 45 47 51 47 49 49 48 48 56 57 58 60
59 61 63 64 63 62 62 62 60 60 60 61 60 60 59 54 52 50 49 48 48 47 45 45 44 43 42 42 47 48 43 45 46 45 46 49 47 48 47 48 45 48 57
57 60 63 62 61 61 60 59 58 57 58 58 58 57 55 52 51 49 48 47 46 45 43 43 42 41 42 42 39 42 42 44 44 45 45 45 45 46 46 46 46 45 45
56 59 61 60 61 61 63 63 60 59 55 55 54 54 51 50 50 50 47 45 45 43 42 41 40 40 40 40 37 36 36 40 43 49 44 45 43 44 46 49 47 47 44
55 56 57 59 62 63 61 58 57 57 55 53 51 47 48 49 48 47 46 45 43 42 40 40 39 39 37 39 39 38 34 31 35 40 43 42 44 41 42 42 45 45 44
54 54 56 59 62 62 62 60 58 55 55 51 46 45 46 47 47 46 45 44 43 41 40 41 42 38 38 36 37 43 38 36 32 31 38 43 39 44 39 39 42 42 43
53 54 56 59 61 62 62 62 61 57 51 45 44 44 44 44 45 45 44 43 42 41 40 39 38 37 37 36 35 35 34 34 33 31 30 33 40 41 42 39 38 42 43
52 54 56 58 60 61 62 62 60 54 49 46 42 42 42 42 42 43 44 42 41 40 39 38 38 37 36 36 35 34 34 33 32 30 29 32 32 36 39 41 39 39 40

GFSSE_sfc_temp_003.txt.gz
Temp
75 78 78 80 79 79 79 79 78 78 78 78 78 78 77 77 77 77 77 78 78 78 78 78 77 77 76 76 76 76 76 75 75 74 73 72 72 73 74 76 75 78 76
79 79 78 80 79 79 79 78 78 77 77 78 78 78 78 77 77 77 77 78 77 77 77 77 76 76 76 76 75 75 76 75 74 74 72 71 70 72 73 75 75 77 76
78 79 82 79 79 79 78 78 77 77 77 78 77 77 78 78 78 77 78 78 77 77 76 76 75 75 75 75 75 75 75 75 75 73 70 76 74 73 75 75 75 75 76
78 79 81 79 78 78 78 78 77 77 77 77 78 78 78 79 77 78 78 78 77 76 75 75 74 74 74 74 75 75 75 75 74 71 76 75 75 72 75 76 77 76 76
77 79 80 78 78 78 78 77 77 77 77 77 78 78 78 78 78 79 79 78 77 75 75 74 74 74 74 74 74 75 75 74 73 73 74 74 74 74 74 75 77 77 77
77 79 79 78 78 78 77 77 77 77 77 77 77 76 77 77 78 78 79 77 76 74 74 74 74 74 74 74 74 75 75 74 72 75 74 73 74 71 74 75 75 76 77
75 78 81 78 78 77 77 77 76 77 77 77 76 77 77 77 77 78 77 76 75 74 74 75 74 75 74 74 75 75 74 72 75 74 74 73 73 71 74 75 75 76 77
74 77 80 77 77 77 77 76 76 76 77 76 76 77 77 75 76 76 76 75 75 74 74 74 74 74 74 74 74 74 73 71 73 74 73 73 71 71 74 75 75 75 76
75 76 78 80 78 75 75 75 76 76 76 76 76 76 75 73 74 74 74 75 74 74 74 74 74 74 74 74 73 72 71 69 75 74 73 74 69 72 75 75 76 76 76
74 76 77 78 79 79 78 74 74 75 75 75 74 73 71 71 71 71 70 72 73 73 73 73 73 73 72 70 70 69 68 67 73 72 73 74 69 73 75 76 76 76 76
72 74 75 76 77 76 77 75 74 73 73 72 72 69 70 72 71 72 68 69 71 72 72 72 71 70 68 67 68 67 67 72 72 72 73 68 71 74 75 75 76 76 76
71 73 74 75 75 75 75 76 76 75 75 74 73 72 72 71 71 71 67 67 69 69 69 69 68 67 68 71 71 68 71 70 71 71 72 68 71 74 75 75 75 76 76
73 74 74 73 73 73 74 73 73 74 73 72 72 72 71 71 72 72 73 72 72 67 69 69 69 69 68 68 68 69 68 69 70 70 68 67 71 74 75 76 75 74 75
71 74 75 73 71 72 73 73 73 73 73 72 72 71 71 71 70 71 72 69 69 65 67 67 67 66 66 66 66 67 66 66 68 68 67 66 69 72 73 73 73 73 74
71 72 73 74 71 70 72 72 73 73 73 73 72 71 72 71 70 70 66 63 66 67 66 66 65 65 65 65 65 65 65 65 66 67 67 63 66 68 70 71 71 72 73
73 72 73 72 71 71 71 71 72 71 71 72 72 71 71 68 65 64 62 61 65 65 64 64 63 63 63 63 63 63 63 63 64 64 65 65 62 64 67 67 68 69 69
73 74 71 72 72 71 71 72 70 71 72 71 70 70 67 66 65 63 63 62 62 62 63 62 62 62 61 62 62 62 62 63 63 63 63 63 63 60 63 65 65 66 67
73 71 71 72 70 72 72 70 69 68 65 65 66 66 66 65 64 62 59 60 61 61 61 60 59 60 59 59 59 60 60 61 62 62 62 62 62 62 60 61 61 62 63
73 70 68 70 69 70 68 67 65 64 63 64 65 64 64 63 63 62 60 58 60 59 58 59 57 57 56 56 58 60 58 59 60 61 61 61 60 60 61 58 57 58 60
69 67 69 69 68 67 66 63 60 62 62 62 62 61 60 60 60 59 58 58 59 57 57 57 56 55 54 53 55 57 57 58 59 60 60 61 59 58 59 58 58 59 57
65 65 67 66 65 64 61 61 59 58 58 59 59 59 58 58 59 58 57 57 56 55 54 55 54 53 52 52 53 55 56 57 58 59 60 60 57 57 57 58 58 58 58
65 64 66 65 64 64 64 64 64 59 57 57 56 56 56 58 57 56 56 54 54 53 53 52 51 52 51 50 48 48 48 55 57 58 56 56 56 57 56 57 56 57 57
62 63 64 63 63 64 63 61 58 56 56 54 54 53 55 57 56 55 54 54 52 52 50 50 50 49 48 49 49 49 47 45 46 53 55 55 55 53 55 54 54 55 54
62 63 63 63 64 62 61 61 58 59 57 58 54 53 54 55 54 54 53 52 52 51 50 50 50 48 48 45 49 49 49 47 43 42 50 52 51 50 51 52 52 52 53
60 60 61 64 63 62 62 63 58 57 58 53 51 52 52 53 53 52 52 51 50 50 49 49 48 47 47 47 45 45 45 46 45 41 39 44 47 49 50 50 50 51 51
58 58 60 62 62 61 62 62 60 55 53 50 50 50 51 51 50 50 50 49 49 49 48 47 47 46 46 45 45 44 44 42 42 40 38 40 40 45 46 48 49 50 51

GFSSE_sfc_temp_006.txt.gz
Temp
84 86 79 80 79 79 79 79 78 78 78 78 79 78 78 78 77 78 78 78 77 78 78 77 77 77 76 76 76 76 76 75 75 74 73 73 73 74 74 76 75 81 77
87 88 79 80 79 79 79 78 78 77 78 78 78 78 78 77 77 78 78 78 77 77 77 77 76 76 76 76 76 75 76 75 75 74 72 72 71 73 74 74 75 79 76
87 89 85 79 79 79 79 78 77 77 78 78 78 79 78 78 78 78 78 77 77 77 76 76 76 75 75 75 75 75 75 75 75 73 72 81 80 73 75 76 75 76 76
88 89 88 79 78 78 78 77 77 77 78 78 78 78 78 79 78 78 78 78 77 76 75 75 74 74 75 75 75 75 75 75 73 72 81 82 81 74 75 76 76 76 77
88 89 88 78 78 78 78 77 77 77 77 77 78 78 78 78 78 78 79 78 76 75 75 74 74 74 74 74 75 75 75 74 73 75 80 80 79 79 74 75 77 77 77
88 90 80 78 78 78 77 77 77 77 77 77 77 77 77 77 77 78 79 77 75 75 75 74 74 74 74 74 75 75 75 73 72 81 80 79 78 74 74 75 75 76 76
86 88 85 78 78 77 77 77 76 77 77 77 77 77 77 77 77 76 77 76 75 74 74 75 75 75 75 74 75 74 73 72 78 80 80 79 79 73 74 75 75 76 76
86 87 86 78 77 77 77 76 76 76 77 76 76 77 77 76 76 77 76 76 75 75 74 74 74 74 74 74 74 73 72 71 78 80 79 79 74 72 74 75 75 75 76
86 87 87 84 81 75 76 76 76 76 76 76 76 76 74 73 74 75 75 75 75 74 74 74 74 74 73 73 72 71 70 69 79 80 79 81 70 73 75 76 76 76 76
85 86 87 87 86 81 79 74 74 75 75 75 74 73 71 71 72 72 72 72 73 73 73 73 72 71 71 70 70 69 68 70 80 79 81 79 71 73 75 76 76 76 76
83 85 86 87 86 84 82 76 74 73 73 72 72 70 71 82 80 78 69 70 71 72 72 71 70 69 70 68 68 68 68 80 80 80 80 69 71 74 75 75 75 76 76
81 82 81 85 84 84 83 79 81 82 80 81 80 79 81 79 80 78 71 68 69 70 69 69 69 70 73 79 79 73 80 79 79 78 79 68 72 74 75 75 75 75 75
84 83 80 81 83 83 83 82 80 82 81 81 80 80 79 79 78 80 80 80 80 70 78 77 78 77 75 76 76 78 76 76 78 78 72 68 71 73 75 74 73 73 74
82 83 82 79 77 78 83 82 82 82 81 81 80 80 79 78 77 79 80 78 77 77 77 76 77 75 75 75 75 75 75 75 76 76 71 65 69 71 72 72 72 73 72
82 82 83 82 79 76 77 82 81 83 81 81 80 80 81 79 78 77 75 75 77 77 76 75 75 75 74 73 74 73 72 73 74 75 75 63 66 68 69 69 70 70 70
84 84 84 83 78 77 74 80 81 83 82 81 81 80 80 80 76 70 67 67 73 74 74 74 72 72 72 72 72 72 71 72 72 73 74 69 62 64 66 67 67 67 68
86 87 85 83 82 75 74 79 82 81 80 80 81 80 79 75 73 69 66 69 72 72 72 72 71 71 70 70 70 70 71 71 72 71 72 71 69 61 62 63 64 65 65
86 85 85 83 82 75 76 79 80 81 81 81 80 78 72 71 67 65 66 69 71 70 70 69 67 68 67 67 68 70 69 69 70 70 70 70 68 69 65 60 61 61 62
86 86 82 82 81 80 78 76 78 79 77 72 70 69 69 66 65 69 70 69 69 68 67 67 65 64 63 64 65 68 67 68 68 69 68 67 66 66 66 63 60 60 59
84 84 83 81 81 79 73 73 72 73 71 69 68 68 66 66 69 71 69 68 68 66 65 65 63 63 61 62 63 65 67 68 67 69 68 68 66 64 65 63 64 64 60
82 81 80 79 78 72 69 66 62 64 64 64 64 63 62 64 66 69 68 66 66 64 63 63 62 60 59 60 62 64 66 66 65 67 66 67 64 64 65 64 64 63 63
80 79 78 78 72 72 67 68 69 67 66 65 58 58 59 62 65 67 66 64 64 62 61 60 59 60 59 58 56 57 57 63 65 65 66 63 63 63 62 62 61 61 61
78 77 77 76 72 72 67 70 69 65 60 57 55 54 57 62 65 65 64 63 61 61 58 58 58 57 56 58 56 55 54 54 54 63 61 62 61 60 60 59 59 59 59
76 77 76 72 72 70 68 66 64 65 61 60 56 54 58 62 64 64 62 62 61 60 58 58 58 56 56 53 57 56 56 54 50 49 59 59 58 57 57 57 57 57 58
77 73 72 68 71 68 65 66 68 67 68 61 54 56 57 62 62 62 61 60 59 59 58 57 56 56 56 55 53 53 53 53 53 48 46 52 55 57 57 55 55 56 57
75 71 68 68 69 67 64 67 70 65 60 53 54 54 58 61 60 60 59 59 59 58 56 55 54 53 54 54 53 52 50 49 49 47 46 48 47 51 54 54 54 54 55

GFSSE_sfc_temp_009.txt.gz
Temp
87 84 79 80 79 79 79 79 78 78 78 79 79 78 78 78 78 78 78 78 78 78 78 78 77 77 76 76 76 76 76 76 75 74 73 73 74 74 75 76 75 79 78
90 87 79 79 79 79 79 78 78 78 78 78 78 78 78 78 78 78 78 78 77 77 77 77 76 76 76 76 76 76 76 76 75 73 73 73 73 74 76 75 75 77 77
90 88 84 79 79 79 78 78 77 78 77 78 79 79 79 78 78 78 78 77 77 77 76 76 76 76 76 76 76 76 76 75 74 73 73 79 80 75 75 76 76 76 77
92 89 87 79 78 78 78 77 77 78 77 77 78 78 79 78 78 78 78 78 77 76 75 75 75 75 75 75 75 75 75 74 73 73 80 82 82 75 75 76 76 77 77
92 91 87 78 78 78 78 77 77 77 77 77 78 78 78 78 78 79 78 77 76 75 75 75 75 75 75 75 75 77 76 74 73 74 81 80 78 76 75 75 76 76 76
92 93 79 78 78 78 77 77 77 77 77 77 77 77 77 77 77 79 78 76 75 75 75 75 75 75 75 75 75 75 74 73 72 81 81 79 79 74 75 75 75 76 76
91 91 85 78 78 77 77 77 77 77 77 77 77 77 77 77 76 77 77 75 75 75 75 75 75 75 75 74 75 74 73 72 76 81 80 80 78 74 74 75 76 76 76
91 91 84 78 77 77 77 76 76 77 77 77 77 77 76 76 76 77 76 75 75 75 75 75 74 74 74 74 73 72 71 71 78 81 80 79 73 74 75 76 76 76 76
91 91 85 83 80 75 76 76 76 76 76 76 76 76 74 74 75 76 76 75 75 74 74 74 73 73 73 72 71 71 70 70 75 79 80 80 72 74 75 76 76 76 76
90 90 90 86 85 83 79 74 74 75 75 75 75 73 72 72 73 74 73 73 73 73 73 72 72 71 71 71 70 70 70 70 79 79 80 73 72 74 75 76 76 76 76
87 89 90 90 88 84 82 76 74 73 73 73 72 71 71 80 79 76 70 71 72 72 71 71 71 71 70 70 70 70 69 80 79 79 79 70 72 75 76 76 76 76 76
85 87 89 89 88 83 82 79 80 80 78 79 79 78 81 81 80 79 71 69 70 70 70 71 71 72 73 78 78 73 79 77 78 77 74 69 72 74 75 75 74 74 75
87 87 86 88 86 84 83 80 82 82 79 80 82 81 81 80 77 78 77 75 73 69 77 75 77 77 76 75 76 77 77 76 77 77 68 67 71 74 73 73 72 73 72
86 87 85 86 85 85 84 81 82 82 82 81 82 82 80 79 78 79 79 76 77 77 76 76 77 76 76 76 76 75 75 74 75 75 64 65 68 70 71 71 71 71 71
86 86 86 85 81 84 84 78 80 81 83 83 82 81 82 79 78 79 78 78 77 77 76 75 75 75 75 74 75 74 73 73 74 74 69 63 65 67 68 69 69 69 69
88 86 87 85 82 79 80 79 79 83 84 81 81 81 82 82 77 76 74 74 75 75 75 74 73 72 72 72 72 73 72 72 72 72 72 64 63 64 65 66 66 67 67
89 89 87 86 85 79 77 78 78 84 84 77 79 82 81 78 76 73 72 72 73 74 74 72 72 72 70 71 70 71 70 70 70 70 70 70 64 62 63 63 64 64 65
90 89 89 88 86 81 76 77 77 80 81 76 79 78 78 78 75 72 71 72 73 72 71 69 68 67 67 67 66 68 69 69 69 70 69 69 67 67 63 62 62 62 63
89 89 87 87 85 83 76 77 77 76 77 78 79 79 76 74 70 67 68 71 71 69 68 68 66 64 62 63 64 66 66 66 68 69 68 67 66 65 64 64 62 62 62
88 88 88 85 85 84 80 76 72 76 71 74 76 72 71 70 69 71 71 70 70 67 67 66 64 64 61 60 63 65 65 66 67 67 67 68 66 64 64 63 61 62 63
87 85 85 85 83 84 80 71 68 67 69 71 72 69 68 69 69 69 70 69 68 66 64 64 64 61 59 60 61 61 64 65 65 66 66 65 65 64 63 62 61 60 61
83 83 84 84 83 82 76 73 70 67 67 69 67 65 64 64 66 67 68 66 65 63 62 62 60 60 59 58 55 57 56 61 63 64 64 63 63 62 61 61 60 59 58
81 82 83 83 82 78 73 69 68 63 62 61 61 60 60 63 64 65 66 65 64 63 59 59 59 57 55 57 57 54 52 52 53 61 61 61 61 60 60 59 59 58 57
80 81 82 82 79 76 71 69 67 64 60 61 59 57 59 61 61 64 65 64 63 62 59 59 59 57 57 53 57 57 56 54 48 48 58 59 60 58 58 57 57 56 56
80 78 78 80 77 76 69 70 70 67 67 63 59 56 58 59 60 63 64 62 61 61 59 58 57 56 56 54 53 52 53 53 53 48 45 50 55 57 57 56 55 55 55
77 77 76 77 74 74 68 69 69 69 64 58 55 55 56 57 59 62 62 61 60 59 57 56 56 55 54 54 53 52 50 48 48 47 45 46 46 51 54 54 54 54 54

GFSSE_sfc_temp_012.txt.gz
Temp
75 77 79 80 79 79 79 79 78 78 78 79 79 79 78 78 78 78 78 78 78 78 78 77 77 77 77 76 76 76 76 76 75 74 74 73 75 76 76 76 75 77 77
79 79 79 79 79 79 79 78 78 78 78 79 78 79 78 78 78 78 78 78 77 77 77 77 77 77 77 77 76 76 76 75 74 73 73 72 73 76 76 76 75 75 78
80 80 79 79 79 79 78 77 77 78 78 78 78 78 79 78 78 78 78 77 77 77 76 76 76 76 76 76 76 76 76 75 74 73 73 69 69 76 76 76 76 76 77
83 80 79 78 78 78 78 77 77 77 78 78 78 79 79 79 79 78 78 77 76 76 76 75 75 75 75 75 76 76 75 74 74 73 70 74 75 76 76 76 76 77 77
82 82 80 78 78 78 77 77 77 77 77 78 78 78 78 78 79 78 77 76 76 75 75 75 75 75 75 75 75 75 75 74 73 73 71 70 69 75 75 75 75 75 76
84 82 77 78 78 77 77 77 77 77 78 78 77 77 77 78 78 78 77 75 75 75 75 75 75 75 74 75 75 75 74 73 72 69 72 72 69 76 75 75 76 76 76
83 78 77 78 78 77 77 77 77 77 77 77 77 77 77 77 77 78 76 75 75 75 75 75 75 75 74 74 74 73 73 72 69 70 72 70 70 75 75 77 77 77 77
78 79 78 77 77 77 77 76 76 77 77 77 77 77 76 76 77 77 76 75 75 75 75 75 74 74 74 73 73 72 71 70 71 71 72 66 73 75 76 77 76 76 77
83 80 78 77 77 75 75 75 76 76 76 76 76 76 75 74 76 77 76 75 74 74 74 73 73 73 73 72 72 71 71 70 65 69 72 65 73 76 76 76 76 76 76
81 80 78 78 77 75 73 74 74 74 75 75 74 72 72 72 74 74 73 73 74 73 72 72 72 72 72 72 72 71 70 69 63 68 64 65 73 75 76 76 76 76 76
81 80 80 79 78 77 75 73 73 73 73 73 71 70 70 69 70 71 70 71 72 72 72 72 72 72 71 70 71 71 70 66 66 66 62 70 73 75 76 75 75 75 75
76 79 81 81 79 78 79 72 71 73 70 69 70 67 69 70 69 71 68 69 71 71 71 72 73 73 71 67 65 69 64 65 64 63 62 71 73 75 74 73 73 73 73
77 78 80 79 81 78 77 73 74 73 72 72 71 69 70 69 68 68 65 66 64 66 65 67 67 67 65 64 64 64 64 63 61 59 64 69 71 73 72 72 71 71 72
77 78 79 79 78 76 77 76 77 75 73 70 71 73 69 66 66 67 68 71 70 66 66 66 65 65 65 64 63 63 62 61 60 57 60 66 69 70 70 70 70 70 70
76 77 77 77 76 77 77 73 76 73 73 72 72 72 70 68 67 68 67 66 65 65 64 63 62 62 61 62 62 61 61 60 60 58 55 64 66 67 68 68 68 68 69
77 77 78 78 76 75 77 74 73 73 76 76 76 72 72 70 69 65 64 64 63 63 62 61 60 59 58 59 60 60 59 59 59 59 55 57 65 65 66 66 66 67 67
77 78 78 78 76 73 74 74 76 74 76 72 75 75 73 73 71 64 63 62 61 62 61 60 59 58 57 59 56 58 58 57 58 60 58 55 58 62 64 65 65 65 65
77 77 79 83 78 75 76 75 74 76 74 71 74 75 74 73 66 63 61 60 61 60 58 56 55 54 53 53 52 54 55 57 58 58 59 57 56 57 60 64 64 65 64
77 77 76 79 78 75 74 74 72 73 70 74 71 72 72 67 63 61 62 60 60 57 56 57 53 52 50 50 53 53 54 54 56 62 57 58 57 56 55 62 62 63 64
77 76 76 75 77 75 70 74 69 68 70 71 70 70 67 63 62 61 63 60 58 55 54 54 52 52 50 49 57 57 53 54 55 54 55 58 55 55 54 53 51 53 61
74 74 75 73 73 73 70 69 67 66 66 66 67 67 63 62 62 61 62 58 56 54 53 54 52 51 48 48 48 49 50 53 53 53 54 53 54 54 53 52 50 50 50
70 72 73 72 72 73 72 71 68 67 65 65 62 60 60 60 61 64 62 57 55 52 52 51 50 49 48 47 44 44 44 48 51 53 52 54 51 52 52 53 51 50 48
71 69 71 72 73 74 70 69 64 62 62 59 58 54 56 59 60 63 60 58 53 51 49 49 49 48 45 46 47 44 41 39 41 48 49 50 50 47 48 49 51 50 49
71 72 70 71 72 71 68 65 62 61 58 57 54 54 54 58 60 61 57 58 52 51 49 49 51 47 46 44 46 51 45 43 38 37 44 46 47 49 46 46 47 47 48
67 69 68 70 70 68 66 67 61 59 60 55 55 55 57 59 60 58 59 56 52 50 49 49 48 47 46 44 43 42 43 42 42 38 35 39 43 45 46 45 45 45 47
66 64 65 70 68 67 65 66 63 62 58 53 54 54 57 57 58 58 58 55 50 49 48 47 47 47 45 45 44 43 42 40 39 37 35 35 36 41 42 46 44 44 44

GFSSE_sfc_temp_015.txt.gz
Temp
71 75 79 80 79 79 79 79 78 79 79 79 79 79 79 78 78 78 78 78 78 78 78 78 78 78 77 77 77 77 76 76 75 74 74 74 76 76 76 75 76 76 76
73 77 79 79 79 79 78 78 78 78 78 79 79 79 79 78 78 78 78 77 77 77 77 77 77 77 77 77 77 76 76 75 74 74 73 72 73 76 76 76 76 75 77
75 78 78 79 79 78 78 78 78 78 78 78 78 78 78 79 78 78 77 77 77 77 77 77 76 76 76 76 76 76 75 75 74 74 73 67 68 76 76 75 76 76 77
77 77 77 78 78 78 77 78 77 78 78 78 78 79 79 79 78 78 77 77 76 76 76 76 76 75 75 76 76 76 75 74 74 73 69 70 73 76 76 76 76 76 76
76 77 78 78 78 78 77 77 77 78 78 78 78 78 78 79 78 78 77 76 76 75 75 75 75 75 75 75 75 75 74 74 73 71 68 67 67 75 76 75 75 75 75
76 76 77 77 77 77 77 77 77 77 78 78 77 78 78 79 78 77 76 75 75 75 75 75 75 75 74 75 75 74 74 73 72 67 67 71 69 76 75 75 76 76 76
77 76 76 78 77 77 77 77 77 77 77 77 77 78 78 78 78 77 75 75 75 75 75 75 75 75 74 74 74 73 73 71 68 66 71 66 69 76 76 77 77 76 76
75 76 77 77 77 76 76 76 76 77 77 77 77 77 77 77 78 77 75 75 75 75 75 75 75 74 74 73 73 72 72 70 68 66 65 65 73 76 76 77 76 76 76
77 75 75 76 76 75 75 75 76 76 76 76 76 76 75 75 77 76 75 75 75 74 74 74 74 73 73 73 73 72 71 70 62 64 68 64 74 76 76 76 76 76 76
75 75 73 73 74 73 73 74 74 75 75 75 74 73 72 73 75 75 74 74 74 74 73 73 73 73 73 73 73 72 70 68 62 62 63 65 74 76 76 76 75 75 75
75 74 74 73 72 71 70 72 73 73 73 72 71 70 69 67 69 70 70 71 72 72 72 73 73 72 71 70 71 70 68 63 61 60 61 71 74 75 74 74 74 74 74
71 73 74 73 73 72 75 69 68 70 67 67 67 67 66 66 66 69 68 69 71 71 71 73 73 72 69 63 62 65 61 61 59 59 62 72 74 74 73 72 72 73 72
73 74 75 75 74 73 73 70 67 66 65 66 66 66 65 66 66 64 64 65 64 66 64 66 65 64 62 61 60 59 60 59 56 58 65 70 72 73 72 71 71 71 71
73 75 76 78 75 74 72 73 70 69 67 66 67 67 64 63 63 62 62 63 62 62 61 61 60 60 60 60 59 59 58 57 55 55 61 67 69 70 70 70 70 69 69
72 75 75 77 77 74 72 73 74 73 70 69 69 68 67 64 63 63 65 66 62 61 60 59 58 58 57 58 58 58 57 56 53 54 54 65 67 68 68 69 68 68 68
74 74 76 74 75 73 72 71 74 74 72 70 70 69 68 67 63 62 64 60 60 60 58 58 56 55 54 55 55 55 55 56 54 53 54 57 65 66 67 67 67 67 67
70 75 76 75 75 71 71 72 74 73 73 73 74 73 69 66 65 62 60 59 58 58 58 56 54 53 53 54 52 54 54 53 55 54 53 53 56 63 65 66 66 66 66
71 70 76 79 75 71 69 71 74 74 70 72 75 75 69 68 65 62 59 58 58 57 55 53 52 51 49 49 48 50 51 54 54 53 53 52 52 55 60 64 64 64 65
70 71 73 77 75 74 70 70 70 73 67 72 73 72 70 67 66 62 59 57 57 55 53 54 50 49 47 47 51 50 51 51 53 57 53 53 53 52 51 60 60 61 62
71 70 71 75 74 74 71 71 67 69 69 69 70 71 66 65 61 61 58 56 55 53 52 51 50 48 47 46 54 53 50 51 52 51 52 55 52 52 50 51 49 51 60
68 68 69 70 73 71 68 69 67 67 67 66 66 65 62 63 63 60 58 56 54 52 51 51 50 48 46 45 46 47 48 50 51 51 50 49 51 51 51 49 48 47 48
67 67 66 69 70 71 70 70 69 64 62 65 62 63 63 63 59 59 58 55 53 50 50 49 49 47 45 44 43 42 42 46 48 49 48 51 47 48 50 50 48 47 45
64 65 67 67 68 70 70 66 59 58 56 58 58 58 59 61 59 59 57 57 52 51 47 47 47 47 44 44 44 43 41 40 39 45 46 46 46 45 44 46 48 48 47
61 64 65 67 67 68 67 66 63 63 59 55 54 54 56 60 57 58 57 58 52 49 48 47 48 45 45 43 44 47 43 42 38 38 42 43 43 45 42 43 43 45 45
62 63 64 65 66 65 67 66 63 61 53 52 52 53 57 60 60 59 58 55 51 48 49 47 45 45 45 43 42 41 41 40 39 37 34 37 40 42 42 41 42 42 43
59 59 61 63 63 65 65 64 64 58 51 50 51 52 57 57 57 58 57 52 54 51 50 45 45 45 44 43 42 41 40 39 38 36 33 33 34 38 40 41 40 40 41

GFSSE_sfc_temp_018.txt.gz
Temp
71 74 79 79 79 79 79 79 79 79 79 79 79 79 78 78 78 78 78 78 78 77 78 77 78 78 77 78 77 76 76 76 75 74 74 75 76 76 76 75 75 74 77
72 75 78 79 79 79 78 78 78 78 78 79 79 79 79 78 78 78 77 77 77 77 78 78 78 78 78 77 76 76 76 75 74 73 72 72 73 76 76 75 75 75 77
74 77 78 79 78 78 78 78 78 78 78 78 79 79 78 78 78 77 77 77 77 77 77 77 77 76 76 76 76 75 75 75 74 73 73 66 67 76 76 75 76 76 77
75 76 76 78 78 78 78 78 78 78 78 78 78 78 78 78 78 77 77 77 76 76 76 76 76 75 76 76 75 75 75 74 74 73 67 68 71 76 76 75 76 76 75
75 76 76 78 78 77 77 77 77 78 78 78 78 78 78 78 78 77 77 76 76 75 75 75 75 75 75 75 75 75 74 74 73 70 66 65 65 75 75 75 74 75 75
73 74 76 77 77 77 77 77 78 78 78 78 77 78 78 78 77 77 76 75 75 75 75 75 74 74 74 74 74 74 74 73 71 65 65 67 67 75 75 75 76 76 76
72 73 75 77 77 77 77 77 77 77 77 77 77 78 78 78 77 76 75 74 75 75 75 75 75 74 74 74 74 73 73 71 66 64 65 65 67 76 76 77 77 76 76
73 74 75 76 76 76 76 76 76 77 77 77 77 77 78 78 77 76 75 75 75 75 75 75 75 74 74 73 73 73 72 70 66 64 64 64 73 76 76 76 75 76 77
75 74 74 75 75 75 75 75 76 76 76 76 76 76 76 76 77 76 75 75 75 74 74 74 74 74 73 73 73 73 71 69 61 62 66 63 73 76 76 76 75 75 76
72 73 72 73 74 73 73 74 74 75 75 75 74 73 72 73 75 75 74 74 74 74 73 73 73 73 73 73 73 71 69 66 59 61 61 63 74 76 76 75 75 74 74
71 70 70 70 71 71 71 72 73 73 73 72 71 70 69 68 70 70 70 71 72 72 73 73 73 72 71 70 70 69 66 58 57 59 60 71 75 75 74 74 73 74 73
68 69 69 70 70 70 73 69 68 69 67 67 67 66 65 66 67 69 67 69 71 71 71 73 73 71 67 61 60 64 58 57 57 59 61 72 73 74 72 71 72 72 71
70 70 70 70 70 71 72 69 67 66 65 66 66 65 64 65 64 64 64 65 65 66 63 64 62 61 59 58 57 57 57 55 54 57 65 71 72 73 71 71 70 71 71
69 71 71 70 70 70 70 69 68 67 65 64 65 65 62 61 62 62 62 62 62 60 59 58 57 58 58 57 56 56 55 53 52 54 61 68 70 71 70 70 70 69 69
69 71 72 71 71 71 68 69 69 68 67 66 64 64 63 62 63 61 61 62 60 59 58 56 56 56 55 55 55 55 53 51 51 54 54 65 67 68 69 69 68 68 68
69 72 72 72 72 72 70 69 68 69 69 67 66 65 65 64 62 61 60 59 58 57 56 56 55 53 52 52 53 53 52 52 51 51 53 57 66 66 67 67 67 67 68
67 73 70 73 72 71 71 69 70 71 70 68 68 67 67 64 63 60 59 57 57 56 56 54 53 51 51 52 50 51 52 50 51 51 52 52 56 63 65 66 66 66 67
67 68 72 75 72 70 70 69 69 69 70 68 70 69 68 65 62 60 58 56 56 55 54 52 51 49 48 48 47 48 49 51 50 50 51 50 51 53 59 64 63 64 64
66 69 70 72 71 71 70 69 68 70 68 70 73 73 65 65 63 61 59 56 55 54 52 53 48 48 46 46 49 48 48 49 50 54 49 50 50 50 49 60 60 61 62
69 65 70 72 72 70 68 68 65 66 67 68 72 71 65 64 62 61 57 56 54 52 51 50 48 46 45 44 53 50 47 48 49 48 49 52 49 49 48 49 47 50 60
64 63 64 70 71 69 66 65 65 66 65 64 69 68 65 63 63 60 58 56 53 52 50 50 48 47 44 43 45 46 46 47 47 47 47 47 48 48 47 47 46 45 46
65 64 62 65 72 70 68 69 66 66 63 65 62 63 64 64 63 62 60 54 52 50 49 49 48 45 44 42 43 41 42 46 46 46 45 48 44 46 46 47 46 45 43
60 62 63 63 70 70 70 65 58 57 56 55 59 60 61 63 62 62 59 54 51 49 47 47 47 46 43 43 42 43 39 40 39 43 43 43 43 42 42 43 44 45 44
60 61 62 63 64 69 67 65 63 63 60 55 58 54 57 62 60 60 58 55 52 50 50 46 47 45 44 42 42 45 41 41 39 39 41 41 41 43 40 40 41 42 42
60 58 59 61 61 67 66 65 64 63 63 52 52 53 54 57 60 58 57 54 52 50 50 47 45 44 44 42 41 40 40 38 38 37 36 37 39 40 40 40 39 38 40
56 56 56 58 59 61 64 64 64 62 52 50 51 51 53 55 57 58 57 56 54 52 50 48 48 48 43 42 41 41 40 39 37 36 34 33 34 37 38 39 38 37 38

GFSSE_sfc_temp_021.txt.gz
Temp
69 72 79 79 79 79 79 79 80 79 79 79 79 79 78 78 78 78 78 78 77 78 79 79 78 77 79 78 77 76 76 76 75 74 73 74 76 76 76 75 75 72 76
72 74 78 79 79 79 79 79 78 78 78 79 79 78 78 78 78 77 77 77 77 78 79 77 78 78 78 77 76 76 76 75 74 73 72 72 73 75 76 75 76 74 77
73 76 77 78 78 78 78 78 78 78 78 78 78 78 78 78 77 77 77 77 77 78 77 76 77 77 76 76 75 76 76 75 74 73 72 65 67 75 75 75 76 76 76
74 75 75 78 78 78 77 77 77 78 78 78 78 78 78 78 77 77 77 77 77 76 76 76 76 76 76 75 75 75 75 74 73 72 66 67 69 76 76 75 76 75 75
74 75 75 77 78 77 77 77 77 78 78 78 77 78 78 78 77 77 76 76 76 75 75 75 75 75 75 75 75 75 75 73 71 68 65 64 64 74 75 75 74 75 75
72 73 76 77 77 77 77 77 77 77 77 77 77 77 78 77 77 77 76 75 74 74 74 74 74 74 74 74 74 74 73 72 69 64 63 66 66 75 75 75 76 76 76
70 72 75 77 77 77 77 77 77 77 77 77 77 78 78 77 77 76 75 74 74 74 74 75 74 74 74 74 74 73 72 70 64 63 64 64 66 76 76 77 76 76 76
70 73 74 76 76 76 76 76 76 77 77 77 77 77 78 77 76 75 75 74 74 74 75 75 74 74 73 73 73 73 72 68 64 63 63 63 71 76 76 75 75 76 76
72 72 72 73 74 75 75 75 76 76 76 76 76 76 77 76 76 75 75 74 74 74 74 74 74 73 74 74 73 72 69 67 60 61 65 62 72 76 76 75 75 75 75
70 71 71 71 72 71 71 73 74 74 75 75 75 74 73 73 74 75 73 74 74 74 73 73 73 73 73 73 72 70 67 65 58 60 60 61 74 76 75 75 74 74 73
69 69 69 70 70 70 69 71 73 73 73 73 72 71 69 68 70 70 69 71 72 73 73 73 73 72 70 68 69 67 64 57 57 59 60 68 74 74 74 73 73 72 72
67 67 69 69 69 69 72 68 67 69 68 67 67 66 65 66 67 69 67 69 71 71 71 73 72 69 64 59 57 61 55 55 56 57 59 72 73 73 72 72 71 71 71
68 69 69 69 69 69 70 68 66 65 65 65 66 64 63 65 65 65 65 66 65 65 62 62 60 59 57 56 56 55 54 53 53 56 64 71 73 73 72 71 70 70 70
67 68 70 69 69 69 69 68 67 66 64 63 64 64 62 61 62 63 63 63 62 59 58 57 56 56 56 55 54 53 53 52 52 54 60 68 70 71 70 70 70 69 69
67 69 69 69 69 69 67 67 67 67 66 65 64 64 62 61 61 61 61 61 60 58 56 55 55 55 53 53 53 53 51 50 51 53 54 65 68 69 69 69 69 69 69
65 68 69 69 70 69 69 67 67 67 67 65 64 64 62 62 61 61 60 60 57 57 55 54 54 53 51 51 51 51 50 50 50 51 52 56 66 67 68 68 67 68 68
66 70 69 70 70 69 69 67 67 67 67 66 66 64 64 62 61 60 59 56 56 55 54 53 52 50 50 51 49 50 50 48 50 51 51 52 55 63 65 67 66 66 66
65 65 69 72 70 70 69 67 67 68 67 66 67 66 65 64 61 58 57 56 54 54 53 52 50 48 47 47 47 47 48 48 48 49 50 49 50 51 60 64 64 64 64
64 65 66 70 69 70 68 68 68 68 67 66 67 66 65 63 61 59 57 55 54 53 52 52 48 48 46 46 49 46 46 47 47 52 48 48 49 48 49 59 60 61 62
64 63 64 69 70 69 68 68 66 65 66 66 68 67 64 63 60 59 56 55 54 52 50 50 48 45 44 44 51 48 45 46 46 46 47 50 47 47 46 47 45 48 59
60 60 62 65 69 68 66 66 65 64 64 64 67 65 65 63 61 61 58 57 56 56 51 50 47 46 43 42 45 45 45 45 45 45 45 45 46 46 46 45 44 43 44
62 61 60 62 67 68 67 67 65 66 65 65 63 63 65 64 63 62 61 59 57 54 49 48 47 44 43 41 42 41 42 45 44 45 44 46 43 44 45 45 44 43 42
58 59 62 61 63 68 68 64 58 58 56 56 56 58 62 65 63 64 62 59 57 55 50 48 47 46 43 41 41 43 38 39 39 41 42 42 42 41 41 42 42 42 41
57 58 60 61 62 64 67 63 61 62 61 62 59 58 56 60 60 63 61 59 56 52 50 47 47 45 44 42 41 44 40 40 39 38 40 40 40 42 39 40 39 41 40
57 56 56 58 59 61 65 65 63 64 65 59 54 55 55 54 58 59 59 57 54 53 51 49 45 45 44 42 41 40 39 38 37 37 36 37 38 39 39 38 38 38 39
54 54 53 55 56 58 63 64 63 63 54 53 53 53 52 53 53 54 56 56 55 52 51 50 48 48 44 44 43 40 40 39 37 36 34 33 33 36 37 37 36 36 36

GFSSE_sfc_temp_024.txt.gz
Temp
67 71 79 79 79 79 80 80 80 79 79 79 79 79 79 78 78 78 78 77 78 79 79 79 79 79 79 78 77 76 76 76 75 75 74 75 76 76 76 76 75 73 77
70 73 78 80 79 79 80 80 79 78 78 79 79 79 78 78 78 78 77 77 78 79 79 78 77 77 77 77 76 76 76 75 74 73 72 71 73 76 76 75 76 74 77
72 75 77 78 78 78 79 79 78 78 78 78 78 78 78 78 77 77 77 77 78 79 78 77 78 77 76 76 76 76 75 74 73 73 72 65 67 76 75 75 76 76 76
73 75 75 78 78 78 78 78 77 78 78 78 78 78 78 77 77 77 77 77 78 76 76 76 76 76 75 75 75 75 75 74 72 71 65 66 69 76 76 76 76 75 75
72 74 75 78 78 77 77 77 77 78 78 78 78 78 77 77 77 77 76 76 76 75 75 75 75 75 75 75 75 75 74 73 71 68 64 64 64 74 76 75 74 75 75
70 71 75 77 77 77 77 77 78 78 78 78 77 77 77 77 77 77 76 75 75 75 75 75 74 74 74 74 74 74 73 72 69 63 63 66 65 75 76 75 77 76 76
69 71 74 77 77 77 77 77 77 77 77 77 77 77 77 77 77 76 75 74 74 74 75 75 74 74 74 74 74 73 72 69 63 62 63 64 65 76 77 77 76 76 77
70 71 73 76 76 76 76 76 77 77 77 77 77 77 77 77 76 76 75 74 74 74 75 75 74 74 74 74 74 73 71 68 64 62 62 62 70 76 76 75 75 76 76
71 71 70 71 73 74 75 75 76 76 76 76 76 77 76 76 76 75 75 74 74 74 75 74 74 74 74 74 72 71 69 67 59 60 64 61 72 77 76 75 75 75 74
70 70 70 69 70 70 70 73 74 74 75 75 75 74 73 73 74 74 73 73 74 74 73 73 73 74 73 72 71 69 67 65 57 59 59 60 74 75 75 74 74 73 73
70 69 68 68 69 69 68 70 72 73 73 73 72 71 70 68 69 70 69 71 72 73 73 73 73 72 69 68 68 67 63 55 55 57 58 68 74 74 74 73 73 73 73
68 68 68 69 69 69 71 67 67 69 68 68 68 67 65 66 67 68 67 70 71 71 72 73 71 68 63 57 56 60 54 54 55 56 59 72 73 74 73 72 72 72 71
69 68 69 69 68 68 69 66 65 65 65 66 66 65 63 65 65 65 65 65 65 65 61 61 58 57 55 55 54 53 53 53 53 56 63 71 73 74 73 71 71 71 70
66 67 68 69 68 68 67 67 66 65 64 64 65 64 61 62 64 65 64 63 62 59 57 56 55 55 54 54 53 52 51 51 52 54 60 68 71 71 71 70 70 70 69
65 68 68 69 69 68 67 67 65 65 65 65 64 64 62 61 62 62 62 61 60 57 56 54 54 54 53 52 52 52 50 50 51 53 54 66 68 69 69 69 69 69 69
67 67 68 68 70 69 68 67 66 65 65 64 64 64 63 62 62 61 60 60 58 56 54 54 53 52 50 50 50 49 49 49 50 51 52 57 66 67 68 68 68 68 68
63 68 67 68 68 68 68 67 66 66 65 64 64 64 64 62 61 61 60 58 56 55 54 52 51 50 49 50 48 48 48 47 49 50 50 51 54 63 67 67 67 66 66
63 64 67 70 69 68 68 67 67 66 65 65 64 64 63 62 61 60 59 57 54 53 52 51 50 48 47 47 46 46 47 47 47 48 49 48 49 51 59 64 64 64 65
62 63 63 67 68 68 68 68 66 66 65 65 63 64 63 63 61 60 59 55 54 52 51 51 48 48 46 45 47 45 45 45 46 50 47 47 48 47 47 58 60 61 62
61 61 62 64 68 68 68 68 67 66 65 65 64 65 62 63 61 59 56 55 54 51 49 49 48 45 45 45 50 46 43 44 45 45 45 49 46 46 45 45 44 47 57
59 59 60 63 66 67 68 66 66 65 65 63 65 65 62 63 60 59 55 54 53 54 53 51 47 46 43 43 44 43 43 43 43 43 44 43 45 44 44 43 43 42 43
60 59 58 60 64 66 67 68 65 67 66 65 65 64 64 61 60 58 57 57 57 55 54 52 47 44 42 41 42 41 41 43 43 43 42 44 42 43 43 43 42 42 40
55 58 59 58 61 64 66 66 59 59 58 59 59 60 62 62 61 61 58 59 58 57 54 53 48 47 42 41 41 43 38 39 39 40 40 41 41 40 39 41 41 41 40
55 56 58 59 59 61 64 64 65 63 61 62 63 62 59 60 60 61 59 59 59 58 55 54 51 46 44 41 40 43 39 40 39 37 39 39 39 41 38 38 39 39 39
54 53 54 56 57 59 63 65 63 63 63 60 61 60 58 58 58 59 59 58 57 56 55 53 50 48 45 42 41 39 38 37 37 37 36 36 38 38 38 37 37 37 38
52 52 52 53 54 55 56 63 63 62 60 55 53 56 55 54 54 56 56 55 55 54 52 52 50 50 47 45 43 43 40 39 37 36 35 33 35 36 36 36 36 35 35

GFSSE_sfc_temp_027.txt.gz
Temp
75 80 80 81 80 79 79 80 79 79 79 79 79 79 79 78 78 78 78 78 78 79 79 79 79 80 79 78 77 77 76 76 76 75 74 75 76 77 77 76 76 79 77
78 80 79 80 81 80 80 79 78 78 78 79 79 78 78 78 78 78 78 78 78 79 77 77 78 77 78 77 77 76 76 75 74 73 72 72 74 76 76 76 76 79 78
78 81 82 79 79 79 79 79 78 78 78 79 79 79 78 78 78 77 77 78 79 78 78 78 77 77 76 76 76 76 75 75 74 73 72 78 78 76 76 76 76 76 76
78 81 82 78 79 79 78 78 79 79 78 78 78 78 78 77 77 77 78 78 77 77 77 77 76 76 76 76 76 75 75 74 73 71 77 77 78 76 76 76 76 76 76
78 80 80 78 78 78 78 78 78 78 78 78 78 78 77 77 77 77 77 77 76 76 75 75 75 75 75 75 75 75 74 73 71 74 76 76 77 77 76 76 75 75 75
78 80 79 78 77 77 77 77 78 78 78 78 77 77 77 77 77 77 76 75 75 75 75 75 75 75 74 74 74 74 73 72 71 76 76 75 76 77 76 77 76 76 76
77 79 80 77 77 77 77 77 77 78 78 77 77 77 77 77 77 76 75 75 75 75 75 75 75 74 74 74 74 74 72 69 75 75 75 75 76 77 77 76 76 77 76
76 78 79 76 76 76 76 76 77 77 77 77 77 77 77 77 76 76 75 74 74 75 75 75 75 74 74 74 74 72 70 69 73 74 74 75 73 77 76 76 75 76 76
77 77 78 79 77 74 75 75 76 76 76 76 77 77 76 76 76 75 75 75 75 75 75 74 74 74 74 73 72 71 69 67 74 74 74 77 73 77 76 75 75 75 75
74 75 76 77 78 78 78 74 74 75 75 75 75 74 73 73 74 74 73 74 74 74 74 74 74 73 73 72 70 68 67 66 73 72 74 76 74 75 75 74 73 74 74
72 73 74 75 76 76 77 76 74 73 73 73 74 72 72 77 77 75 71 71 72 73 73 73 73 71 69 68 68 66 65 72 72 73 75 70 74 75 74 73 73 73 73
69 71 71 74 75 75 75 76 76 77 77 77 77 77 77 76 76 75 71 70 71 71 72 73 70 68 68 71 70 66 71 70 72 72 75 72 74 74 73 72 72 72 71
71 71 71 72 73 74 75 75 75 74 74 75 76 75 75 74 74 75 74 74 74 69 72 70 69 70 69 69 68 69 68 69 71 72 73 72 74 74 72 71 71 71 71
70 71 72 72 71 73 73 74 74 74 73 73 74 74 73 72 71 73 72 72 72 72 69 69 69 68 67 67 68 67 67 68 70 71 71 69 71 72 71 71 70 70 70
70 70 71 72 72 72 72 71 73 73 73 74 73 72 73 72 69 70 68 71 71 70 69 67 68 67 67 66 66 66 66 66 68 69 71 66 69 70 70 70 70 70 69
72 72 72 71 72 73 72 71 70 70 72 72 73 72 71 72 71 71 67 69 70 69 68 68 67 66 65 66 64 64 64 65 66 67 69 70 67 68 69 69 69 69 69
72 73 72 72 72 72 70 71 72 71 70 70 72 72 72 71 71 70 69 68 69 67 66 65 64 63 63 63 63 63 63 64 64 65 65 66 67 64 67 67 67 67 67
71 70 73 73 72 71 71 70 69 70 70 72 72 72 71 71 71 70 69 69 68 65 64 64 62 61 62 62 61 61 62 62 63 63 63 64 63 65 65 65 65 65 65
70 70 69 72 72 71 71 71 69 70 70 70 69 70 71 70 70 70 69 69 66 63 63 62 60 62 60 59 59 59 60 61 61 61 61 61 61 61 62 60 61 61 62
68 67 69 69 72 72 71 70 68 68 68 70 68 69 70 70 69 68 68 67 64 62 61 61 60 58 59 59 59 57 57 58 59 60 60 60 59 58 59 58 59 59 58
65 65 65 67 69 70 69 68 66 65 67 67 69 70 68 69 68 67 67 65 63 62 61 62 58 57 55 57 56 55 56 56 57 58 58 58 57 57 57 57 58 58 58
64 64 64 65 67 69 71 71 70 69 68 69 67 68 69 69 67 67 65 63 62 61 60 59 54 55 55 56 57 56 53 55 55 55 56 56 56 56 55 55 55 55 55
59 61 63 64 65 68 70 70 66 64 64 65 65 66 66 68 67 67 64 62 61 61 59 58 54 54 54 53 53 58 50 53 53 53 52 54 54 54 54 53 53 52 53
58 57 59 61 64 65 69 68 67 66 64 67 68 66 65 67 66 66 64 62 62 61 61 58 57 56 54 52 49 51 51 53 52 49 51 52 52 53 53 52 52 51 51
57 57 57 59 60 63 65 68 67 66 67 68 66 66 65 63 64 64 63 61 60 61 60 60 57 56 55 52 52 47 49 49 50 53 49 49 49 51 52 52 51 50 49
57 57 58 59 59 60 60 64 66 66 66 64 63 63 62 62 62 62 62 61 60 58 58 57 56 56 54 51 48 49 50 50 49 49 49 48 51 49 50 50 49 49 48

GFSSE_sfc_temp_030.txt.gz
Temp
85 88 80 81 80 80 80 80 80 80 80 80 79 79 79 78 78 78 78 78 79 79 79 78 80 79 79 78 77 77 76 76 75 75 75 76 77 77 77 76 77 83 77
88 89 80 81 80 80 80 80 79 79 79 79 79 79 79 78 78 78 78 78 79 79 78 78 78 79 77 77 77 76 76 75 74 73 74 73 74 76 76 76 77 80 77
88 89 85 80 80 80 79 79 78 78 78 78 79 78 78 78 78 78 78 79 78 78 77 78 78 77 76 76 76 76 75 75 74 73 74 83 81 76 76 76 76 76 76
88 89 88 80 79 79 79 79 79 78 78 78 79 79 78 78 77 78 78 78 78 78 77 77 76 76 76 76 76 75 75 74 73 73 83 84 83 76 76 76 76 76 76
88 89 87 78 79 79 79 80 80 79 78 78 78 78 77 77 78 78 78 76 76 76 76 76 76 75 75 75 75 75 74 73 72 77 82 81 83 78 76 77 76 75 76
88 89 80 78 78 78 78 78 79 79 78 78 78 77 77 77 77 77 76 75 75 75 75 75 75 75 75 75 75 74 73 72 73 82 81 78 81 77 77 76 76 76 75
88 89 86 78 77 77 77 77 78 78 78 77 77 77 77 77 77 76 75 75 75 75 75 75 75 74 74 74 74 73 71 71 82 81 81 80 80 77 76 76 76 76 76
87 87 86 77 76 76 76 76 77 78 77 77 77 77 77 77 76 75 75 75 75 75 75 75 74 74 74 74 73 72 70 71 79 80 80 81 74 77 76 76 76 75 75
87 83 86 85 79 75 75 76 76 77 77 76 77 77 76 76 76 75 75 75 75 75 75 74 74 74 74 73 72 70 69 69 82 81 81 83 73 77 76 75 75 75 75
84 84 86 86 85 83 82 74 74 75 75 76 75 74 73 73 74 75 73 74 74 75 74 74 74 73 72 72 70 69 68 69 80 80 82 80 74 75 74 74 74 74 74
77 81 84 86 86 85 85 80 74 73 73 73 74 71 72 82 80 77 74 72 73 73 73 74 72 71 70 69 68 67 67 82 82 82 83 72 75 74 74 73 73 73 73
73 75 79 83 84 84 84 84 83 83 83 83 82 81 84 82 82 81 74 70 72 72 72 73 71 69 71 80 77 69 82 80 81 81 80 73 74 74 73 72 72 72 71
74 75 75 80 83 83 83 84 84 84 84 84 84 84 84 82 80 80 80 78 79 70 78 75 74 79 78 79 78 80 79 79 81 80 75 72 74 73 72 72 71 71 70
73 74 75 76 79 81 83 83 84 83 83 82 82 83 83 81 80 80 79 79 78 79 78 78 79 78 76 77 78 78 77 78 80 80 73 69 72 72 71 71 71 70 70
73 74 75 75 76 77 80 82 83 83 82 83 83 83 83 81 79 81 79 78 78 79 79 77 78 77 77 76 76 76 76 76 77 78 77 67 69 70 71 71 70 70 69
81 80 77 75 75 77 78 81 81 82 83 83 83 82 82 82 80 80 77 74 74 78 79 78 77 77 76 76 75 75 75 75 76 76 76 72 67 69 69 70 70 69 69
85 85 83 80 79 78 76 81 81 80 79 81 81 82 81 81 81 80 77 72 71 77 78 77 76 76 74 74 74 74 74 74 74 73 74 74 70 65 67 69 68 68 68
84 83 84 82 81 78 75 74 76 80 80 80 82 82 80 80 80 80 78 73 75 77 76 74 73 72 72 72 72 72 72 72 73 73 72 72 72 71 66 66 66 66 66
84 84 83 83 81 80 76 74 72 74 79 81 81 81 80 79 80 79 79 77 77 75 74 73 72 72 70 70 70 70 70 70 70 70 70 69 69 70 70 62 62 62 63
81 82 82 82 82 82 80 72 71 70 72 79 79 79 80 79 78 76 78 77 77 73 72 72 71 71 70 69 68 67 67 69 69 69 69 69 68 67 67 66 64 62 59
77 77 78 78 79 80 80 73 68 67 69 69 72 76 78 78 77 75 75 75 76 72 71 71 70 66 65 68 65 64 64 65 66 68 69 68 66 66 66 65 66 65 62
74 75 76 77 77 79 79 80 79 75 73 72 70 70 74 77 77 75 74 74 74 72 72 70 67 65 67 66 65 64 59 61 63 65 66 66 66 65 64 63 64 63 62
69 70 71 73 74 76 77 78 77 76 74 72 69 69 70 74 76 76 73 74 73 72 71 69 66 65 61 62 66 66 58 59 60 62 61 63 63 62 63 62 61 61 61
68 68 69 69 71 73 74 74 74 73 71 74 75 73 70 70 71 74 72 72 71 70 69 68 67 66 64 59 60 62 61 63 59 54 58 59 61 61 62 60 60 59 59
68 67 68 70 71 71 72 73 74 73 75 76 75 73 72 71 67 69 71 70 69 69 69 67 65 65 65 63 59 57 56 57 59 59 55 53 57 59 61 60 60 59 57
68 68 68 70 71 71 70 72 72 73 74 73 72 70 70 68 65 66 67 69 68 67 68 67 64 63 62 64 59 55 56 53 54 54 56 56 55 56 58 58 58 57 57

GFSSE_sfc_temp_033.txt.gz
Temp
88 86 80 80 80 80 80 80 80 80 80 80 79 79 79 79 78 78 79 79 79 79 79 80 79 79 78 77 77 77 76 76 75 75 75 76 77 77 77 77 78 81 77
91 88 80 81 80 80 80 80 79 79 79 79 79 79 79 78 78 78 78 79 78 79 78 79 79 78 77 77 76 76 76 75 75 75 74 74 75 76 77 76 76 78 77
91 89 86 80 80 79 79 79 79 79 78 79 78 79 79 78 78 78 78 78 77 77 78 78 77 77 77 76 76 76 75 75 74 75 75 81 78 76 76 76 76 76 77
92 89 88 79 80 80 79 79 78 79 78 78 79 79 78 78 78 78 79 78 77 78 77 77 76 76 76 76 76 75 75 74 74 74 83 84 82 76 77 76 77 76 76
92 91 87 80 79 80 80 79 79 79 78 78 78 78 78 77 78 78 77 76 76 76 76 76 76 76 76 75 75 75 74 74 74 77 82 81 82 78 77 77 77 76 76
92 92 80 78 79 79 79 80 79 79 78 77 77 77 77 78 78 78 76 75 75 75 76 75 75 75 75 75 75 74 74 74 73 82 81 80 79 77 77 76 76 75 75
92 90 85 78 78 78 78 79 79 78 77 77 77 77 77 77 77 76 75 75 75 75 76 75 75 74 74 74 74 73 72 72 79 81 81 80 77 77 77 76 76 76 76
91 89 85 77 77 77 77 77 78 78 77 77 77 77 77 77 76 75 75 75 75 75 76 75 75 74 74 74 73 72 71 72 79 81 80 79 75 77 77 76 76 75 75
91 89 86 84 79 75 75 76 77 78 77 76 76 77 76 76 76 75 75 75 75 75 75 74 74 74 74 73 72 70 70 71 81 80 82 80 73 76 76 76 75 75 75
88 88 89 87 84 83 81 74 75 75 75 75 75 74 73 73 74 75 74 74 75 75 74 74 74 73 73 72 71 69 69 71 80 79 80 76 75 75 75 74 74 74 74
85 87 89 89 87 86 85 79 74 74 74 73 73 71 72 80 78 75 74 72 73 74 74 74 73 72 70 69 69 69 68 80 80 80 80 73 74 75 74 74 74 73 73
75 82 87 88 87 87 87 83 82 83 81 79 78 78 81 83 82 81 74 70 72 72 72 73 72 70 69 78 75 69 78 80 80 79 76 73 74 74 73 72 72 72 71
76 76 77 85 87 86 86 85 85 85 83 84 83 80 83 84 82 81 79 76 76 70 76 73 72 76 79 79 78 80 79 79 80 79 72 72 73 73 73 72 72 71 71
76 76 76 80 85 85 86 85 86 85 84 84 84 85 82 80 74 77 79 78 79 79 79 78 78 79 78 78 79 79 78 78 79 79 71 70 72 72 72 72 71 70 70
80 77 76 76 79 84 84 85 85 85 84 84 84 85 85 82 76 75 76 76 77 78 80 79 79 78 78 78 78 78 77 77 78 78 73 67 69 71 71 71 71 70 69
83 81 79 76 76 79 82 82 83 86 86 85 84 84 84 84 83 81 77 73 77 78 79 79 78 78 78 77 76 77 76 76 77 77 74 69 68 69 70 71 70 70 69
87 87 85 81 79 77 81 82 83 83 84 84 84 84 84 83 83 82 81 74 77 78 77 79 79 78 76 76 75 75 75 76 75 75 74 71 68 66 68 70 69 69 69
87 87 88 87 83 81 81 82 83 85 83 83 84 85 83 83 82 82 81 77 74 76 72 77 76 74 73 73 73 73 73 74 74 74 73 73 70 69 66 67 67 67 67
86 86 86 86 85 84 84 79 74 80 82 83 84 84 84 82 82 81 81 79 74 73 74 76 74 73 71 71 72 72 71 71 72 73 71 71 71 69 68 63 64 63 64
85 86 86 86 86 85 85 81 73 71 74 81 84 84 84 83 81 80 80 80 76 74 73 74 73 72 71 70 71 69 68 70 70 70 70 70 69 68 68 63 61 60 61
81 81 82 82 83 83 83 82 74 70 71 72 78 83 82 82 81 79 78 79 78 73 73 73 72 69 68 70 66 65 65 67 67 68 69 67 66 66 65 64 64 63 58
76 77 79 80 81 82 82 83 83 77 74 72 71 72 76 80 80 78 76 76 77 75 73 72 70 67 66 67 63 62 57 60 63 65 66 66 65 64 63 63 63 62 60
71 72 74 76 77 79 79 80 79 80 79 75 70 70 71 74 77 77 75 74 75 75 71 70 69 67 63 64 67 63 58 56 58 61 61 62 63 62 62 61 61 61 60
70 71 72 73 74 75 76 76 75 75 73 76 77 76 74 75 71 75 74 71 72 72 69 70 70 66 65 59 61 66 63 62 56 50 57 58 61 61 60 59 59 59 59
70 69 71 73 74 75 74 74 73 73 76 78 77 77 77 75 72 70 72 71 68 70 69 68 68 65 64 61 58 57 59 57 58 55 49 51 56 59 59 60 58 57 57
69 68 69 71 72 74 74 73 72 71 74 75 75 75 76 75 71 68 67 68 68 67 67 67 66 63 62 62 60 59 56 55 52 53 53 51 50 54 57 58 57 56 54

GFSSE_sfc_temp_036.txt.gz
Temp
77 77 79 80 80 80 80 80 80 79 79 79 79 79 79 79 78 79 79 79 79 79 79 80 79 78 78 78 77 77 76 76 77 76 76 76 77 77 77 77 77 77 77
80 80 79 80 80 80 80 79 79 79 79 79 79 79 79 78 78 78 79 78 79 78 80 79 78 78 77 77 77 76 76 76 75 75 74 73 74 77 77 76 76 76 77
82 81 80 79 79 79 79 79 78 79 79 79 78 79 79 78 78 78 78 78 78 78 79 78 78 77 77 76 76 76 76 75 75 74 74 70 71 76 77 76 76 77 77
84 82 81 80 79 79 79 79 78 79 78 78 78 79 79 78 78 79 78 78 78 78 77 77 77 76 76 76 76 76 75 75 74 74 73 78 76 77 77 77 77 77 77
83 84 80 80 80 79 79 79 79 78 78 78 78 78 78 78 78 77 77 77 76 76 76 76 76 76 75 75 75 75 75 75 74 75 73 72 70 77 77 77 76 76 76
83 80 78 79 79 81 79 79 79 78 78 78 77 77 77 78 78 76 76 75 75 75 76 75 75 75 75 75 75 75 74 74 73 72 71 73 71 77 77 76 76 76 76
79 79 78 79 80 79 79 79 79 78 78 77 77 77 77 78 77 76 75 75 75 75 75 75 75 75 74 74 74 73 73 72 71 71 70 69 70 77 77 76 76 76 76
79 80 79 78 80 78 78 78 78 77 77 77 77 77 77 77 76 75 75 75 75 76 75 75 75 75 74 74 73 72 72 71 73 71 70 67 73 77 77 76 75 75 75
83 79 77 77 76 75 76 77 77 77 77 76 76 76 76 75 75 75 75 75 75 75 75 75 74 74 74 73 72 71 71 71 68 70 74 67 73 77 76 75 75 75 74
81 80 78 76 75 73 72 74 75 76 75 75 75 74 73 73 74 74 73 74 75 75 74 74 74 73 72 72 71 71 70 70 67 69 67 69 75 76 75 75 75 74 74
78 78 80 78 76 75 74 73 73 74 74 73 72 71 70 70 70 70 71 72 73 73 74 74 73 72 70 69 70 70 69 65 67 68 67 72 75 75 75 74 73 73 72
70 76 79 79 77 77 81 71 72 74 73 74 74 69 70 70 70 74 69 70 72 72 72 73 72 71 69 64 63 68 63 67 67 67 67 73 75 74 74 73 72 72 71
74 72 74 77 78 77 77 74 72 74 73 73 73 72 71 74 70 70 66 67 66 67 67 68 66 64 64 65 64 64 66 66 65 66 69 72 74 74 73 72 72 71 71
74 76 73 74 76 76 76 76 76 75 74 73 74 75 73 70 70 70 71 67 67 67 66 65 63 65 66 67 66 65 66 65 64 64 66 70 72 73 72 72 71 71 70
71 74 74 72 72 75 75 75 75 76 74 74 74 75 75 69 68 69 72 72 71 71 68 66 66 65 65 66 66 66 65 65 65 64 61 67 70 71 72 72 71 70 69
75 73 75 74 72 72 73 74 75 76 75 74 74 74 75 73 70 70 70 68 69 72 72 69 67 65 65 64 65 65 65 65 64 62 61 62 68 69 71 71 71 70 69
77 77 75 74 74 74 72 73 75 74 76 74 74 75 75 74 72 72 70 68 68 71 71 73 68 65 64 65 63 64 64 63 63 64 62 60 62 66 69 71 70 70 70
73 76 77 79 74 72 74 73 74 76 74 74 74 74 75 75 73 71 69 67 68 70 69 65 67 62 61 61 60 61 61 62 63 63 62 61 59 61 65 69 69 69 68
74 75 75 76 75 75 72 74 71 72 72 73 74 74 74 75 74 71 69 68 68 66 66 65 67 62 59 59 60 59 59 59 61 65 61 60 59 58 57 64 65 65 66
71 72 72 73 74 75 74 74 68 68 67 70 72 75 74 74 72 72 70 69 69 65 67 66 65 61 59 58 65 61 57 58 59 58 59 62 58 58 56 55 54 57 63
69 68 69 70 71 70 69 68 66 66 67 67 70 71 73 75 73 67 69 66 70 68 68 69 64 60 58 58 55 53 54 57 57 57 58 56 57 58 55 55 53 52 55
64 64 65 67 69 70 68 68 68 67 68 69 67 69 69 69 72 71 71 66 65 68 66 68 66 57 56 56 52 50 47 50 53 56 55 57 55 56 56 56 55 54 51
61 61 64 64 65 66 66 66 66 65 65 64 64 66 69 71 69 70 70 72 66 63 68 65 64 60 57 54 57 52 47 47 47 51 54 54 55 53 54 55 55 56 53
60 61 63 65 65 66 66 63 62 61 61 64 65 67 67 67 68 71 66 65 68 70 66 64 62 61 56 56 53 60 54 52 48 45 51 53 54 55 54 53 53 55 54
61 59 60 62 64 65 64 62 60 59 61 63 65 66 65 66 67 66 69 67 65 67 67 64 61 61 59 56 56 50 51 50 49 47 44 48 51 53 52 54 53 52 53
59 58 59 60 62 62 62 62 61 59 58 59 61 62 64 64 64 64 67 66 66 64 65 63 63 60 58 57 54 51 51 51 48 49 46 45 47 48 49 52 53 51 51

GFSSE_sfc_temp_039.txt.gz
Temp
70 75 79 80 80 80 80 80 80 79 79 79 80 79 79 79 79 79 79 79 79 79 79 79 79 78 78 78 77 77 77 78 77 76 75 75 77 77 77 77 76 75 77
74 77 79 80 80 80 80 79 78 78 78 79 79 79 79 78 78 79 78 79 79 79 79 78 78 78 77 77 77 77 77 76 76 75 73 73 74 77 76 76 76 75 77
76 78 78 79 79 79 79 79 78 78 78 78 79 79 78 78 78 78 78 79 79 79 78 78 77 77 76 76 76 76 76 75 75 74 74 68 70 76 77 76 76 77 77
78 78 78 79 79 79 78 78 78 79 78 78 78 78 78 78 78 78 78 78 78 77 77 77 76 76 76 76 76 76 76 75 74 74 72 73 75 77 77 77 77 77 76
78 78 79 79 78 78 78 78 79 79 78 78 78 78 77 78 78 78 77 77 76 76 76 76 76 75 75 75 75 75 75 75 73 73 70 68 69 76 77 77 76 76 75
76 74 77 79 79 78 78 79 79 79 78 77 77 77 77 78 77 76 76 75 75 75 76 75 75 75 75 75 75 75 75 74 72 68 67 71 69 77 77 76 76 76 76
75 76 78 79 79 78 78 78 78 78 77 77 77 77 78 78 76 76 75 75 75 75 75 75 75 74 74 74 74 74 74 72 69 67 66 67 69 77 77 76 76 76 75
75 77 78 79 80 78 78 78 77 77 77 77 77 77 77 77 76 75 75 75 75 76 75 75 75 75 74 74 73 73 72 71 70 66 65 65 73 77 77 76 75 75 75
77 75 74 76 76 76 76 77 77 77 76 76 76 76 76 75 75 75 75 75 75 75 75 75 74 74 74 73 72 72 72 70 66 66 70 65 73 77 76 75 75 74 74
75 75 71 71 72 71 72 75 76 75 75 75 74 73 72 72 74 74 73 74 75 74 74 74 74 73 73 72 72 71 70 69 64 65 65 68 75 77 75 75 74 74 73
74 73 73 71 70 70 71 72 73 73 73 73 72 71 70 67 69 70 70 72 73 73 74 74 73 72 71 70 71 70 69 63 62 64 65 73 75 76 75 74 73 73 72
69 70 73 72 71 70 77 69 69 72 70 70 69 68 66 66 67 70 68 70 72 72 72 73 73 71 68 62 62 67 62 62 62 64 66 73 75 75 74 73 72 72 71
67 70 71 72 73 73 73 69 67 68 68 69 68 67 67 68 65 65 65 67 67 67 66 67 66 63 61 61 61 61 62 62 61 64 68 72 74 75 73 72 72 71 71
67 69 71 71 71 71 72 71 70 70 69 68 68 69 67 65 64 65 64 65 64 64 63 62 61 61 61 62 62 62 63 63 60 61 65 70 73 73 73 72 71 71 70
68 70 71 70 70 70 71 70 71 71 71 70 70 71 70 66 67 67 65 65 65 64 63 61 61 61 61 63 63 63 62 62 59 60 61 67 70 72 72 72 71 71 70
69 70 72 71 70 69 69 70 71 74 73 71 69 72 72 68 70 68 66 66 65 65 66 65 63 61 61 61 62 62 62 62 59 58 59 62 68 70 71 72 71 71 70
70 72 72 72 71 69 69 69 70 71 73 72 71 71 72 70 68 70 67 65 66 66 67 70 69 63 61 61 60 61 61 60 59 59 58 59 63 66 69 71 71 70 70
71 71 72 76 72 70 69 69 70 73 72 75 74 71 72 72 70 67 67 66 67 65 66 65 67 65 59 58 58 58 59 60 59 58 58 58 58 60 65 69 70 70 70
69 70 70 72 71 70 69 70 69 70 72 71 70 70 71 72 71 69 68 67 66 67 66 66 65 65 59 57 58 57 57 57 59 61 57 57 57 57 56 64 66 67 68
66 66 68 69 69 70 70 70 68 68 68 68 68 67 71 70 70 70 68 66 66 65 66 63 62 59 58 58 62 60 55 56 56 56 56 60 56 56 55 56 56 58 65
63 63 63 65 66 66 64 64 64 67 65 64 65 68 68 68 71 65 64 63 66 66 67 65 60 59 56 57 56 52 52 53 54 55 55 55 55 56 53 53 52 52 57
59 59 61 62 62 63 63 63 64 64 65 66 66 66 67 66 66 69 68 63 62 64 63 62 60 57 60 57 54 48 48 50 53 55 53 55 54 55 55 54 52 51 51
58 58 60 61 61 62 62 61 61 61 61 62 62 63 66 66 66 66 65 65 65 64 63 62 61 58 56 54 55 51 44 46 46 50 53 52 53 52 53 55 54 53 51
57 58 59 60 61 63 62 61 58 57 56 58 62 63 64 65 66 66 65 64 62 63 62 64 64 62 55 53 51 56 51 50 47 46 48 51 51 54 54 53 54 54 52
58 57 57 59 60 60 59 59 57 56 56 57 58 59 62 64 65 65 65 63 62 63 64 61 60 59 58 56 54 49 48 48 47 45 43 46 50 54 55 56 55 54 53
57 57 57 57 58 58 57 57 56 55 55 55 55 55 57 59 61 64 64 63 64 64 61 60 60 60 59 58 56 51 50 51 50 45 43 43 46 51 52 53 54 52 50

GFSSE_sfc_temp_042.txt.gz
Temp
72 75 79 80 80 80 80 80 79 79 79 79 79 79 79 78 79 78 79 79 79 79 79 79 79 78 78 78 78 78 78 77 77 76 75 76 76 78 77 76 76 74 77
73 76 79 80 80 80 79 79 78 78 78 79 79 79 78 78 78 78 79 79 79 79 79 78 78 77 77 77 77 77 77 76 75 74 73 73 74 76 76 76 76 74 77
74 77 78 79 79 79 79 78 78 78 78 78 79 78 78 78 78 78 79 78 79 78 78 78 77 77 76 76 76 76 76 76 75 74 72 67 69 76 76 76 76 77 77
76 76 77 79 79 78 78 78 78 78 78 78 78 78 78 78 78 79 79 78 78 77 77 77 76 76 76 76 76 76 76 75 74 73 70 71 73 77 77 76 76 76 76
75 76 77 78 79 78 78 78 78 78 78 78 78 77 78 78 78 79 78 77 76 76 76 76 75 75 75 75 76 76 75 74 72 71 68 66 68 76 77 75 76 76 76
72 73 76 78 78 78 78 78 78 78 78 77 77 77 78 78 77 77 76 75 75 75 76 75 75 75 74 75 75 75 75 74 71 66 66 70 68 76 76 77 75 76 76
72 74 78 78 78 78 78 78 78 78 77 77 77 77 78 77 76 76 75 75 75 75 75 75 75 74 74 74 74 74 74 72 66 64 64 65 68 76 77 76 76 76 75
73 75 77 77 77 77 78 77 77 77 77 77 77 77 77 77 76 75 75 75 75 75 75 75 75 74 74 74 74 73 73 71 68 64 63 64 73 77 76 76 75 75 74
75 74 73 75 75 75 76 76 76 76 76 76 76 76 76 75 76 75 75 75 75 75 75 75 74 74 74 73 73 72 71 70 63 63 67 64 73 77 76 75 75 74 74
72 72 70 71 72 71 72 75 75 75 75 75 74 73 72 72 74 74 73 74 75 74 74 74 74 74 73 72 72 72 70 68 61 64 65 65 75 77 76 75 74 74 73
70 70 69 68 69 69 70 72 73 73 73 73 72 70 69 67 68 69 69 71 73 73 74 74 73 73 71 70 71 71 68 61 60 63 65 72 75 76 75 74 73 72 72
65 67 70 68 67 68 74 69 69 71 69 68 67 67 65 65 66 69 67 69 72 72 72 73 73 71 68 61 60 65 60 60 60 63 65 73 75 76 74 74 73 72 71
66 67 68 68 68 67 70 67 66 67 66 66 66 65 65 65 64 64 64 66 66 67 65 67 65 62 60 59 60 59 60 59 60 63 67 72 75 75 74 73 72 71 71
67 67 68 68 67 68 68 68 66 67 66 65 65 66 64 62 62 62 63 64 64 64 62 62 60 60 60 60 59 60 60 58 59 61 64 70 73 75 73 72 72 71 70
67 68 68 68 67 68 66 68 66 67 67 67 67 67 66 63 62 63 63 63 64 63 62 61 60 60 59 59 60 60 60 58 59 60 60 66 70 72 73 72 72 71 70
67 69 70 69 68 68 66 66 68 69 68 67 68 69 68 66 65 65 64 63 64 64 64 62 61 60 59 59 60 60 60 59 58 59 59 62 68 70 72 72 72 71 70
67 70 69 70 69 67 67 68 66 67 70 68 69 69 70 68 66 67 66 65 65 64 64 62 61 60 59 59 58 59 59 58 57 58 58 59 63 66 69 72 72 71 70
67 67 70 74 70 68 67 67 68 69 68 71 70 69 70 71 68 67 67 66 66 64 65 63 62 60 59 58 57 57 58 58 57 57 57 57 58 60 65 69 71 71 70
66 67 67 69 70 69 68 68 67 69 68 69 74 72 69 70 70 69 68 68 65 66 65 65 62 60 58 56 57 57 56 56 56 59 55 56 56 57 57 63 67 68 69
64 65 67 68 68 67 67 66 66 66 66 68 67 68 68 68 68 68 67 67 65 65 64 63 63 58 58 57 61 61 55 55 54 54 55 58 56 56 55 56 58 60 66
60 61 63 64 63 64 64 64 64 65 65 64 65 67 67 66 66 64 63 63 63 64 65 64 62 60 55 54 54 57 56 57 53 53 54 55 55 56 54 54 55 54 59
57 58 59 60 61 63 61 61 63 64 64 65 65 65 66 66 66 66 63 62 63 63 61 61 60 57 57 53 52 49 53 54 52 55 52 55 54 56 55 54 52 52 53
56 56 58 59 59 60 61 61 60 59 60 61 62 62 64 65 65 65 65 63 62 63 63 63 62 59 59 52 53 52 45 46 46 48 50 52 53 51 54 54 54 54 52
55 55 57 58 58 60 58 58 57 56 56 57 59 60 62 63 63 64 64 63 62 61 61 60 61 60 56 53 51 54 52 49 47 47 47 47 48 51 50 50 54 54 54
56 53 54 56 56 56 56 55 53 53 53 54 54 55 57 59 61 63 64 63 62 61 61 61 61 61 60 60 53 49 50 50 49 47 45 45 47 49 50 53 54 54 54
54 54 53 54 53 54 53 53 52 50 50 52 52 53 53 54 57 60 62 62 61 61 61 60 60 58 59 57 57 56 52 50 51 47 45 44 45 50 51 53 53 51 49

GFSSE_sfc_temp_045.txt.gz
Temp
69 74 79 80 80 80 80 80 79 79 79 79 79 79 78 78 78 78 79 78 78 79 79 79 78 78 78 78 78 78 77 76 76 75 75 75 77 77 76 76 75 72 76
73 75 78 80 80 80 79 79 78 78 78 79 79 79 78 78 78 78 79 79 79 78 78 78 78 77 77 77 77 77 76 76 75 74 72 72 74 76 76 76 76 73 76
75 76 77 79 79 79 79 78 78 78 78 78 78 78 78 78 78 79 78 79 78 78 78 77 77 77 76 77 76 76 76 75 74 73 72 67 68 76 76 75 76 76 76
74 75 76 78 79 78 78 78 78 78 78 78 78 77 78 78 78 79 78 79 78 77 77 76 76 76 76 76 76 76 75 74 74 73 67 69 71 76 76 76 76 75 76
74 75 76 78 78 78 78 78 78 78 78 77 77 77 78 78 79 79 78 77 76 76 76 75 75 75 75 76 76 75 75 74 73 71 66 65 67 75 76 76 75 76 76
72 73 76 77 78 77 77 78 78 78 78 77 77 77 78 78 78 77 76 76 75 75 75 75 75 74 74 75 75 75 74 73 70 65 65 68 67 76 76 75 75 76 76
71 73 75 78 77 77 77 77 77 77 77 77 77 77 77 78 77 76 75 75 75 75 75 75 74 74 74 74 75 74 74 71 65 63 63 64 66 76 76 76 76 76 76
71 73 76 76 77 77 77 77 77 77 77 76 77 77 77 76 76 76 75 75 75 75 75 75 74 74 74 74 74 74 72 70 66 63 62 63 70 76 76 75 75 75 74
73 72 72 73 74 75 76 76 76 76 76 76 76 76 76 76 76 76 75 75 75 75 74 74 74 74 73 73 73 72 71 69 62 62 65 63 71 77 76 75 74 74 73
70 71 69 70 71 71 72 74 74 75 75 75 74 73 72 73 74 74 73 74 75 74 74 74 74 73 73 72 72 72 69 67 60 62 64 63 73 77 76 75 74 73 72
69 68 68 68 68 69 70 72 74 73 72 72 71 70 69 66 68 69 69 71 73 73 73 73 73 73 71 70 70 71 66 60 58 62 63 70 75 76 75 74 74 72 71
65 66 67 67 67 67 73 69 69 70 68 68 67 66 65 64 65 68 66 69 71 72 72 73 73 71 68 60 59 63 59 58 59 62 64 72 75 76 75 74 74 72 71
65 65 66 66 66 66 68 66 66 66 66 65 65 65 64 64 63 64 64 65 65 67 65 67 65 61 59 58 59 57 58 58 58 62 65 72 75 75 74 73 73 72 71
64 65 66 66 66 65 66 65 65 66 65 64 64 64 62 61 61 62 62 63 63 64 62 61 60 59 59 59 57 58 58 58 58 61 63 69 73 75 75 73 72 71 70
64 66 66 66 65 65 65 65 64 65 65 65 64 64 63 61 61 61 62 62 63 63 62 60 60 59 58 58 58 58 61 60 57 59 60 64 69 73 74 73 72 71 71
66 66 67 66 66 65 65 64 64 65 66 65 65 65 65 64 62 61 62 62 62 63 63 61 60 59 58 58 58 58 59 57 57 58 59 60 67 70 72 73 73 72 71
66 68 67 68 67 65 66 65 64 65 67 66 66 66 66 65 63 64 62 61 62 62 63 62 61 60 58 58 57 59 58 58 56 57 58 58 61 66 69 72 72 72 72
65 66 67 72 68 66 67 67 66 67 66 67 66 67 67 67 65 64 64 64 64 61 62 61 61 59 57 57 56 57 58 57 57 56 56 57 58 60 64 69 71 72 72
65 66 66 67 67 68 66 66 66 67 66 68 68 67 67 68 68 67 66 66 63 63 62 63 61 60 57 56 56 56 56 56 56 59 55 56 56 57 57 63 66 68 69
62 64 65 66 67 67 66 66 65 65 65 66 66 67 66 68 66 66 66 65 63 63 63 62 62 58 58 58 60 60 59 60 56 54 55 57 55 56 55 56 57 60 66
59 60 61 63 62 64 64 64 64 64 65 65 66 67 66 66 66 64 64 63 62 63 64 63 62 59 57 54 53 52 53 54 53 53 53 54 54 56 54 55 55 55 59
57 57 58 59 60 61 60 61 63 63 64 64 64 65 65 65 65 64 63 62 61 62 61 61 61 59 57 54 53 48 50 52 51 54 52 54 54 53 54 55 53 54 54
55 56 57 57 57 57 58 58 58 58 58 60 61 62 63 64 64 64 64 63 61 61 61 61 60 59 59 52 52 55 47 46 46 50 49 50 51 48 51 52 52 52 53
52 53 55 55 56 56 56 56 56 55 55 55 56 57 58 59 61 62 62 62 62 60 60 61 60 59 56 59 52 55 52 51 50 49 48 48 47 51 48 50 52 53 55
53 52 52 53 53 53 53 53 52 52 52 53 54 55 55 56 57 59 60 61 60 60 60 59 58 58 59 60 55 52 51 51 49 48 51 49 49 49 51 50 53 54 54
51 51 51 51 50 51 51 50 49 48 48 50 50 51 52 53 54 56 58 59 59 59 59 59 59 58 59 59 57 54 53 51 49 48 46 50 48 48 49 48 49 51 50

GFSSE_sfc_temp_048.txt.gz
Temp
68 73 79 80 80 80 80 80 79 79 79 79 79 79 79 78 78 79 78 79 79 79 79 79 79 78 79 78 78 77 77 76 75 75 74 75 76 77 76 76 75 72 77
71 75 78 79 80 80 79 79 78 78 78 79 79 79 78 78 78 78 79 79 78 78 78 78 78 78 78 78 77 76 76 75 75 73 72 72 74 76 76 76 76 74 77
73 76 77 79 79 79 79 78 78 78 78 78 78 78 78 78 79 79 78 78 78 78 77 77 77 77 77 77 76 76 76 75 74 73 72 66 70 76 76 75 76 76 76
73 75 76 78 79 78 78 78 78 78 78 78 78 78 78 78 79 78 79 78 77 77 77 76 76 76 76 76 76 76 75 74 73 72 66 67 70 76 76 76 76 75 76
72 73 76 78 78 78 78 78 78 78 78 77 77 77 78 78 79 78 78 77 76 76 76 75 75 75 75 75 75 75 75 74 73 69 65 65 66 75 76 75 76 76 76
71 72 76 77 78 77 77 77 78 78 77 77 77 77 77 79 79 78 76 75 75 75 75 75 75 75 75 75 75 75 74 72 69 64 64 65 67 76 76 76 76 76 76
71 72 75 77 77 77 77 77 77 77 77 77 77 77 77 78 77 76 75 75 75 75 75 75 74 74 74 74 75 74 74 70 64 62 62 63 65 76 76 76 76 76 75
72 72 74 76 76 76 77 76 77 77 77 76 77 77 77 77 76 76 75 75 75 75 74 74 74 74 74 74 74 73 72 70 65 62 62 62 69 76 76 75 75 75 74
70 71 71 76 74 75 75 75 76 76 76 76 76 76 76 75 75 75 75 74 75 74 74 74 74 74 73 73 73 72 71 69 61 61 64 62 69 77 76 74 75 74 73
69 69 68 70 71 71 75 74 74 74 74 75 74 74 72 73 74 74 73 73 74 74 74 73 73 73 73 72 72 71 68 67 59 61 62 62 72 76 75 74 74 73 72
68 67 67 68 68 69 70 73 74 73 72 72 71 70 69 66 67 68 69 71 73 73 73 73 73 72 71 68 69 69 66 59 58 60 62 68 73 76 75 74 74 73 72
64 65 66 66 67 67 72 69 71 71 68 67 67 66 64 64 65 67 66 69 71 72 72 73 73 71 66 59 58 63 58 57 57 60 62 69 74 76 75 74 75 74 72
64 65 66 66 66 66 67 66 66 66 65 65 65 64 63 64 63 64 63 64 65 66 64 66 63 61 59 58 58 57 57 57 56 59 64 69 74 76 75 74 74 73 71
64 65 65 65 65 65 65 65 66 65 64 64 64 64 62 61 61 61 62 62 63 63 62 61 59 59 58 58 56 57 57 57 57 59 62 66 71 75 75 74 72 71 71
64 65 65 65 64 64 64 64 64 65 64 64 64 64 62 61 60 60 61 61 62 62 62 61 60 59 58 58 58 57 57 57 56 57 59 63 67 71 74 74 73 72 72
64 65 65 65 65 64 63 64 64 64 65 64 63 63 63 62 61 61 60 61 61 62 62 61 60 59 59 58 58 58 57 57 56 56 58 60 65 68 71 74 74 73 73
64 66 65 66 65 63 63 64 63 64 66 64 65 64 64 63 62 62 61 60 61 62 62 61 61 60 58 58 57 57 57 57 56 57 57 58 60 64 68 72 73 73 72
64 65 66 70 66 64 64 64 64 64 64 65 65 65 65 65 64 62 61 61 61 61 61 61 61 59 58 57 56 57 57 57 57 57 56 56 57 60 63 68 71 72 72
63 64 65 66 66 66 64 64 64 65 63 64 64 64 65 66 65 64 64 64 62 61 60 61 60 60 58 58 57 57 56 57 60 59 55 55 56 58 58 62 66 67 69
62 63 64 65 65 65 65 65 64 63 64 64 64 64 65 66 65 65 65 64 62 62 61 60 60 58 59 58 58 58 54 55 55 55 55 56 55 56 56 56 57 60 65
58 59 60 62 62 64 63 62 62 63 63 64 65 66 66 64 64 63 64 63 62 62 63 62 60 59 58 54 56 57 54 54 54 56 54 54 53 54 54 54 54 54 57
57 57 57 58 59 60 60 61 63 62 63 64 64 64 65 65 65 63 62 62 61 60 60 60 60 58 60 54 57 52 53 53 51 53 51 52 51 52 52 53 52 53 53
54 55 56 56 56 56 58 58 58 59 59 59 60 61 62 63 64 63 63 63 62 60 60 60 59 59 59 53 53 57 51 50 50 55 54 51 49 49 49 51 51 52 52
51 53 54 55 55 55 55 55 55 54 54 54 54 55 56 57 58 60 61 61 61 60 59 60 59 58 57 58 53 55 53 52 49 49 54 53 51 52 49 50 50 51 54
50 50 51 51 52 52 52 52 51 51 50 51 52 53 54 54 55 56 57 57 58 58 59 59 57 57 57 59 56 53 52 50 50 48 49 51 52 49 49 51 53 50 52
48 49 49 49 49 50 50 49 49 49 48 49 50 50 51 52 53 55 56 56 57 57 58 58 58 57 59 59 58 55 53 50 48 48 46 47 49 48 46 47 46 46 47

GFSSE_sfc_temp_051.txt.gz
Temp
77 81 79 80 80 80 80 80 79 79 79 79 79 79 79 79 79 79 79 79 79 79 79 79 79 79 79 78 78 77 77 76 76 75 75 75 77 77 77 76 76 80 77
79 82 79 80 80 80 79 79 78 78 79 80 79 79 79 79 79 79 79 79 79 79 79 79 78 78 78 77 77 76 76 76 75 73 72 72 74 76 76 76 76 78 78
79 82 82 79 79 79 79 78 78 78 78 78 78 79 79 79 79 79 78 78 78 78 78 78 78 77 77 77 76 76 76 75 74 73 72 78 79 76 76 76 76 77 77
79 81 82 79 79 79 78 78 78 78 78 78 78 78 78 79 79 79 78 78 77 77 76 76 76 76 76 76 76 76 75 75 73 71 77 77 78 77 77 77 76 76 76
79 81 81 78 78 78 78 78 78 78 78 77 77 78 78 79 79 79 77 76 76 76 76 76 76 76 76 76 76 76 75 74 71 75 76 77 79 78 76 77 77 77 76
78 81 78 78 78 78 77 78 78 78 77 77 77 77 78 79 79 78 76 75 75 75 75 75 75 75 75 75 75 75 74 72 71 76 76 76 77 77 77 77 76 76 76
77 80 81 77 77 77 77 77 77 77 77 77 77 77 79 78 78 77 75 75 75 75 75 75 75 74 74 75 75 75 73 70 76 76 75 75 76 77 77 76 76 76 75
76 79 81 77 76 77 77 77 77 77 77 77 77 77 78 78 77 76 75 75 75 75 75 75 75 74 74 74 74 73 72 70 74 75 74 75 72 76 76 76 75 75 74
78 78 80 80 78 75 75 76 76 76 76 76 76 76 75 75 76 76 75 75 75 75 74 74 74 74 74 74 73 72 71 69 76 75 75 76 71 76 76 75 75 75 73
76 78 78 79 80 80 77 74 74 74 75 75 74 73 72 73 74 75 73 74 74 74 74 74 74 74 73 73 72 70 68 67 75 74 76 76 72 75 75 75 75 75 73
73 75 76 77 78 78 75 75 74 73 72 72 72 70 71 76 76 75 71 71 73 73 73 73 73 72 70 69 70 69 67 75 75 75 76 70 73 76 76 75 75 74 73
71 73 75 75 76 76 77 77 75 75 77 76 76 75 75 74 75 74 70 69 71 72 72 73 73 71 69 74 74 69 75 74 75 74 76 69 73 75 76 75 75 74 73
72 73 73 73 74 75 76 76 76 75 75 75 74 74 73 73 73 74 73 74 74 69 75 74 74 74 72 73 72 74 73 73 75 74 73 69 72 75 75 74 74 73 71
70 72 72 73 72 73 75 75 74 74 74 74 73 73 72 72 71 71 72 72 72 73 73 73 74 73 72 71 72 72 72 72 74 74 73 66 70 73 75 74 72 72 71
69 71 72 72 72 72 72 73 73 73 73 74 73 73 73 71 71 71 71 71 71 72 72 72 72 72 72 72 72 71 71 72 73 73 73 64 67 70 73 75 74 73 72
70 71 72 71 72 72 72 72 73 73 73 73 73 73 72 72 72 71 71 71 71 71 72 72 72 72 72 71 71 72 71 71 72 71 72 73 65 67 70 73 74 74 74
69 72 72 72 72 71 72 72 72 73 73 73 73 73 72 72 72 72 71 71 71 71 71 71 71 70 70 70 70 71 71 72 71 71 71 71 72 64 66 71 73 74 74
68 70 72 73 72 71 71 72 72 73 73 73 73 73 72 72 72 72 71 71 72 71 70 70 70 69 69 69 71 72 71 71 71 72 71 71 71 71 68 67 70 72 73
68 70 70 72 72 72 71 72 71 72 71 73 74 73 73 73 73 72 72 72 72 71 69 69 69 68 69 70 69 71 70 69 70 70 71 68 70 69 71 67 65 67 69
69 69 71 71 72 72 71 71 70 70 70 72 72 72 73 73 72 72 72 72 71 69 69 68 68 69 69 69 67 67 68 68 68 69 70 69 68 68 68 68 69 70 65
65 66 68 68 70 70 69 68 68 69 69 69 70 72 72 72 71 70 69 69 69 68 70 69 68 66 65 64 60 64 65 68 67 67 69 67 67 67 67 67 67 68 69
62 62 63 65 66 68 68 69 70 69 70 71 70 71 71 71 71 69 68 67 68 68 68 67 66 65 63 61 60 56 57 66 65 66 65 64 65 65 64 65 65 66 66
59 60 61 61 62 62 64 64 64 65 65 66 65 66 65 66 67 67 67 66 67 65 65 66 65 64 62 59 60 60 55 56 58 66 64 61 62 63 63 62 62 62 64
56 58 58 58 59 59 61 62 62 62 62 60 61 61 62 63 63 64 64 65 65 65 64 65 65 64 63 61 57 59 58 58 53 52 60 62 58 62 61 61 62 63 62
55 55 56 56 56 57 57 58 59 58 57 57 58 59 60 61 61 61 62 62 63 63 64 64 64 62 63 63 60 57 56 54 57 55 51 56 61 63 62 62 61 62 61
53 53 54 55 53 54 55 55 55 55 55 56 56 57 58 58 59 60 60 61 62 62 61 61 62 62 62 61 62 60 59 58 56 53 50 51 52 59 59 58 57 57 57

GFSSE_sfc_temp_054.txt.gz
Temp
85 88 79 80 80 80 80 80 79 79 79 79 79 79 79 79 79 79 79 79 79 79 80 80 79 79 79 78 77 77 77 76 75 75 74 75 77 77 77 76 78 82 78
89 89 79 80 80 80 80 79 79 78 78 79 79 79 79 79 79 79 79 79 79 79 79 79 79 79 78 77 77 76 76 75 74 73 73 74 75 76 76 76 76 79 77
88 90 86 79 79 79 79 79 78 79 78 78 79 79 79 79 79 79 78 78 78 78 78 78 78 78 77 76 76 76 75 74 73 73 74 84 82 76 76 76 76 77 77
89 89 88 79 79 79 78 78 78 78 78 78 78 79 79 79 79 78 78 78 77 77 77 77 77 76 76 76 76 76 75 74 73 74 84 85 84 76 78 77 77 77 78
89 90 88 79 79 78 78 78 78 78 78 77 78 78 79 79 79 78 77 76 76 76 76 76 76 76 75 76 76 76 75 73 73 80 83 80 81 78 77 77 77 77 76
89 90 80 78 78 78 77 78 78 78 77 77 77 77 78 79 78 77 76 75 75 75 75 75 75 75 75 75 76 75 74 73 75 83 83 81 78 77 77 77 76 75 75
89 90 85 78 78 77 77 77 77 77 77 77 77 77 79 79 78 76 75 75 75 75 75 75 75 75 75 75 75 74 73 71 83 82 82 82 80 77 76 76 75 75 74
88 88 86 77 77 77 77 77 77 77 77 77 77 78 78 78 77 76 75 75 75 75 75 75 75 75 74 74 74 73 72 71 80 81 81 81 74 76 76 75 75 74 74
87 87 86 86 80 75 75 76 76 76 76 76 76 76 76 76 76 75 75 75 75 75 74 74 74 74 74 74 73 72 71 70 83 82 82 84 72 76 76 75 75 74 73
85 85 85 86 86 85 82 74 74 74 75 75 74 73 72 73 74 74 73 74 74 74 74 74 74 74 73 73 72 70 69 70 83 82 84 81 72 75 75 75 75 75 73
84 85 86 86 88 88 82 77 74 73 73 73 73 70 72 84 81 78 72 72 73 73 73 74 73 72 71 70 70 69 68 84 84 83 84 71 72 75 76 75 75 74 72
81 83 85 84 85 87 81 78 79 79 83 83 83 82 85 83 83 82 73 70 72 72 72 73 73 71 70 83 81 71 84 83 84 83 84 71 72 75 75 75 75 74 72
82 82 83 83 84 85 83 79 78 81 84 84 83 83 83 82 81 81 82 80 81 71 81 78 78 82 80 82 82 83 82 81 84 83 80 70 72 74 75 75 74 73 72
80 81 82 83 82 84 84 84 84 84 84 83 82 82 82 81 79 81 82 82 81 82 81 81 83 82 80 80 81 81 81 81 83 83 81 68 70 73 75 74 73 72 71
78 80 81 82 82 82 82 82 83 83 83 84 82 82 83 81 79 81 82 82 82 82 82 82 81 82 81 81 81 80 80 81 81 82 82 67 67 70 72 74 75 73 73
78 80 81 81 82 82 81 81 82 83 84 83 83 82 81 82 81 80 81 80 81 82 82 82 81 81 81 81 80 81 80 80 80 80 81 80 67 68 70 72 74 75 74
76 78 80 80 81 81 81 82 83 83 83 83 82 82 81 81 81 80 81 80 81 82 81 81 80 80 79 80 79 80 80 81 81 80 80 80 79 65 67 70 72 73 74
77 76 78 78 79 80 81 81 82 83 83 83 83 83 81 81 81 80 80 80 81 81 80 80 79 78 78 79 79 80 81 81 80 81 80 80 79 79 71 68 69 71 73
77 75 75 77 78 79 80 81 81 82 82 83 84 83 82 81 81 80 80 81 81 80 79 79 78 78 76 78 78 79 79 79 79 79 79 79 78 76 77 72 66 66 68
77 77 75 75 76 78 79 80 79 80 81 83 83 82 82 82 81 80 81 80 81 79 78 78 76 77 75 76 76 75 76 77 77 77 79 79 79 76 76 75 75 74 64
77 77 75 74 76 77 77 77 77 76 78 79 80 80 80 80 80 78 78 79 79 77 77 77 76 74 73 73 66 69 74 76 77 78 78 78 76 76 75 74 74 75 75
75 75 75 75 77 78 79 78 78 79 79 80 79 78 79 79 78 76 76 75 75 74 74 74 73 69 67 68 63 59 63 73 76 76 76 74 74 74 73 72 73 73 72
70 71 71 71 71 72 74 73 72 74 73 74 74 75 74 73 73 72 70 69 69 68 66 68 69 68 64 65 64 63 63 65 68 74 72 73 72 72 72 70 69 70 70
66 66 67 67 67 67 69 70 71 72 72 70 70 70 71 70 70 71 71 72 72 71 67 67 68 67 66 63 62 64 65 66 59 57 69 71 72 71 71 72 70 70 69
62 63 64 65 65 65 66 70 70 69 68 68 68 67 69 70 69 68 69 69 69 69 70 70 69 68 66 64 63 62 63 59 58 56 56 63 68 71 71 70 68 68 66
62 61 62 63 63 64 66 67 67 66 65 66 65 66 67 67 67 67 66 67 68 68 67 66 66 65 65 65 63 64 62 62 59 58 55 56 58 64 67 67 65 63 62

GFSSE_sfc_temp_057.txt.gz
Temp
88 85 79 80 80 80 80 79 79 79 79 79 79 79 79 79 79 79 79 79 80 80 80 80 79 79 78 78 77 77 76 76 75 75 75 75 77 77 77 76 79 81 78
91 87 79 80 80 80 80 79 79 78 78 79 79 80 79 79 79 79 79 79 79 79 79 79 79 78 78 77 77 76 76 75 74 74 74 74 74 76 77 76 76 78 77
91 88 84 79 79 79 79 79 79 79 78 78 79 79 79 79 79 78 78 78 78 78 79 78 78 78 77 76 76 76 75 75 74 74 76 83 79 77 77 76 77 77 77
92 89 87 79 79 79 79 78 78 78 78 78 79 79 79 79 79 78 78 77 77 77 77 77 77 76 76 76 76 76 75 75 75 75 82 82 81 77 77 77 77 76 77
92 91 85 78 79 78 78 78 78 78 78 78 78 78 79 79 78 77 77 76 76 76 76 76 76 76 76 76 76 76 75 75 75 81 81 78 79 78 77 77 77 76 75
92 92 79 78 78 78 77 78 78 78 77 77 77 78 78 78 77 77 76 75 75 75 76 75 75 75 75 75 75 75 74 74 73 83 82 80 77 77 77 76 75 75 75
92 89 85 78 78 77 77 77 77 77 77 77 77 78 78 78 77 76 75 75 75 75 75 75 75 75 75 75 75 74 73 73 83 82 82 81 77 77 77 76 75 74 74
91 87 85 77 77 77 77 77 77 77 77 77 77 78 78 77 77 75 75 75 75 75 75 75 75 75 75 75 74 73 72 72 82 81 81 80 74 76 76 75 75 74 74
92 89 85 84 79 75 75 76 76 76 76 77 76 77 76 76 76 75 75 75 75 75 75 74 74 74 74 74 73 72 71 71 80 81 83 81 73 76 76 75 75 74 73
89 89 85 84 85 83 81 74 74 74 75 75 74 73 73 73 74 74 74 74 74 74 74 74 74 74 73 73 72 71 71 70 82 82 82 77 74 75 76 75 75 74 73
82 84 82 83 88 85 83 77 74 73 73 73 73 71 72 84 80 77 71 72 73 74 74 74 73 72 71 71 71 71 69 82 83 82 82 72 73 75 76 75 75 74 73
80 79 80 81 89 85 83 79 82 81 83 83 82 80 84 85 84 80 74 71 72 73 73 73 73 72 70 82 77 70 79 83 83 81 81 72 73 75 76 75 75 74 72
81 83 81 80 83 82 82 80 80 81 84 85 85 85 86 84 81 81 81 78 78 70 78 75 75 78 82 81 81 82 81 81 82 82 78 72 72 74 75 75 74 74 72
83 85 86 82 80 81 82 80 79 82 86 84 85 85 84 82 80 82 83 82 82 82 82 82 83 83 81 81 82 82 82 81 82 82 80 71 71 73 74 75 74 73 72
80 81 82 84 83 81 78 81 80 82 85 86 85 84 84 82 80 82 83 83 83 83 83 82 82 82 82 82 82 82 81 81 82 81 80 69 70 71 72 74 75 74 73
78 78 80 81 82 81 80 79 79 80 87 86 85 84 84 83 82 81 82 82 82 83 83 83 82 82 81 82 82 82 82 81 81 80 80 79 69 70 71 73 74 75 75
79 80 81 81 83 82 82 83 83 84 86 85 85 84 83 83 82 82 82 82 82 83 83 82 82 81 80 81 80 81 81 81 81 81 81 80 77 66 69 72 73 74 74
80 80 81 82 82 82 83 82 83 85 84 85 85 85 83 83 83 82 81 81 83 82 81 80 80 79 79 79 79 80 77 79 81 81 81 81 79 78 69 69 71 72 73
80 79 79 79 79 81 82 82 82 83 83 85 85 85 84 83 83 82 81 82 83 81 80 79 78 78 76 76 76 77 78 78 80 80 79 79 79 77 76 71 67 67 68
80 80 79 79 78 79 79 80 81 81 83 84 84 84 84 84 83 82 81 81 80 78 77 76 75 76 75 75 76 75 76 77 78 77 78 79 79 78 76 74 73 71 65
80 79 78 77 77 77 76 75 76 76 79 81 82 83 82 82 82 80 79 78 77 77 77 78 76 74 72 73 67 69 71 76 76 76 79 78 77 76 75 73 73 72 72
78 79 79 77 77 77 77 77 78 78 79 82 79 80 80 79 79 75 74 73 72 72 74 73 71 69 68 69 64 60 61 70 74 74 75 74 74 73 72 72 72 71 70
74 76 77 78 78 79 78 78 73 75 74 75 76 75 75 75 75 74 72 70 69 68 67 68 67 65 63 64 64 62 61 62 66 71 71 72 71 71 72 70 70 70 69
72 72 72 73 73 73 73 72 70 70 70 73 73 73 72 73 72 72 72 71 71 71 68 68 68 67 65 63 62 63 64 65 59 59 67 69 70 71 71 70 69 68 67
66 66 68 69 69 69 70 71 70 70 71 69 70 69 71 71 70 70 69 69 69 69 69 69 69 68 67 64 64 63 63 59 59 55 54 59 66 69 69 68 67 65 64
65 64 65 67 67 68 69 70 70 69 68 66 66 67 68 69 68 68 67 67 68 68 67 66 66 66 65 65 63 65 62 57 57 56 54 59 56 61 66 65 63 61 60

GFSSE_sfc_temp_060.txt.gz
Temp
75 77 79 80 80 80 80 80 79 79 79 79 79 79 79 79 79 79 80 80 79 79 80 80 79 79 78 78 77 77 76 76 76 76 75 75 77 77 78 77 77 77 77
78 79 79 80 80 80 79 79 78 78 78 79 79 79 79 79 79 79 79 79 80 80 79 79 79 78 78 77 77 76 76 75 75 74 74 74 74 77 77 77 76 77 78
80 80 80 79 79 79 79 78 78 78 78 78 79 79 79 79 78 78 78 78 78 78 78 79 78 77 77 76 76 76 76 76 75 75 74 73 74 77 77 77 76 77 78
82 80 79 79 79 79 78 78 78 78 78 78 78 79 79 79 78 78 78 77 77 77 78 77 76 76 76 76 76 76 76 76 75 74 75 77 77 77 78 77 77 76 76
82 83 80 78 78 78 78 78 78 78 78 78 78 78 78 78 78 77 77 76 76 76 76 76 76 76 76 76 76 76 76 75 75 77 76 74 74 77 77 76 75 75 75
83 79 77 78 78 77 77 77 78 77 77 77 77 78 78 77 77 76 75 75 75 75 76 75 75 75 75 75 75 75 75 75 74 72 72 74 72 77 77 76 75 75 75
80 78 77 77 77 77 77 77 77 77 77 77 77 78 78 77 76 76 75 75 75 75 75 75 75 75 75 75 75 74 74 72 71 71 70 69 71 77 76 75 75 74 75
79 80 78 76 76 76 76 76 76 77 77 77 77 78 77 77 76 76 75 75 75 75 75 75 75 75 74 74 74 73 73 71 72 72 70 67 73 76 76 75 75 74 74
82 79 77 76 75 75 75 75 75 76 76 76 76 77 76 75 75 75 75 75 75 75 74 74 74 74 74 74 73 72 71 71 66 72 75 68 74 76 76 75 75 74 74
82 80 78 76 76 75 73 74 74 74 74 74 74 73 72 72 74 74 73 73 74 74 74 74 74 73 73 73 72 72 71 70 65 71 69 68 74 75 76 75 75 74 73
80 79 78 79 78 77 75 74 73 73 72 72 71 71 70 71 71 71 71 71 72 73 73 73 73 72 71 71 71 71 70 66 68 70 68 72 74 75 76 75 75 74 73
73 75 77 79 79 79 79 74 74 72 71 71 71 69 70 72 70 74 69 70 72 72 72 73 73 72 70 67 65 69 65 67 68 70 67 73 74 75 75 75 74 73 72
74 75 76 76 80 78 76 73 74 72 74 76 73 72 72 73 70 69 66 67 66 67 67 69 68 67 66 69 68 68 69 69 68 68 70 73 74 74 75 75 75 74 72
74 75 76 77 75 76 76 74 73 73 76 73 74 75 72 69 69 69 68 68 67 67 67 67 68 69 71 71 71 70 70 68 69 69 67 71 73 74 74 75 74 73 72
74 77 76 77 76 76 74 75 75 73 76 75 76 75 73 70 69 69 70 70 70 70 70 69 71 71 71 72 72 71 71 70 69 69 67 68 70 72 74 75 75 74 73
72 72 75 77 77 76 74 75 75 74 77 75 74 74 75 72 70 70 69 70 69 70 71 71 70 70 70 70 71 71 71 71 70 70 69 67 68 70 72 74 74 75 75
74 72 72 77 78 76 76 76 75 76 77 75 74 75 75 74 72 71 70 69 70 71 72 71 71 70 69 71 70 71 71 71 71 71 70 70 68 66 69 73 74 74 74
74 74 73 77 77 74 76 75 75 78 76 74 75 75 76 75 74 72 71 70 72 71 70 69 69 68 67 69 72 73 73 74 73 74 72 70 69 70 67 70 71 73 73
74 73 73 76 74 74 74 73 73 75 73 74 75 74 75 76 75 72 71 71 72 71 71 72 73 72 70 70 69 68 69 69 69 72 68 69 69 70 69 68 66 68 69
74 74 73 73 73 73 72 72 71 72 73 74 74 74 76 75 75 72 72 74 76 73 72 72 70 70 67 67 72 68 64 66 67 67 67 70 68 67 66 66 62 62 65
72 72 72 70 71 71 69 68 68 68 70 72 73 77 76 75 76 73 71 74 73 72 71 72 71 69 67 67 64 64 63 65 65 66 66 69 66 65 65 64 62 62 62
70 71 71 70 70 71 70 69 70 69 70 73 73 74 74 74 74 71 70 69 69 68 68 68 67 65 65 65 61 58 57 59 63 64 64 65 63 63 63 63 62 62 60
68 69 69 71 71 70 70 70 68 67 68 68 69 69 70 71 70 68 67 67 67 66 65 66 65 64 62 63 63 61 57 53 56 60 62 62 61 61 60 61 61 61 59
64 66 67 66 69 69 70 66 63 62 62 64 64 64 65 67 66 67 66 64 63 62 62 62 63 62 61 60 59 61 62 60 56 54 57 59 60 62 60 63 59 58 57
61 61 62 63 64 63 63 65 64 63 62 62 62 62 63 64 63 63 63 61 61 61 61 61 61 61 60 59 58 60 59 58 57 55 53 57 61 61 59 61 59 54 55
59 59 59 61 61 62 62 64 63 62 59 59 58 58 60 60 61 62 62 60 60 60 60 59 59 59 58 58 61 60 59 54 52 51 53 51 54 57 56 55 53 51 51

GFSSE_sfc_temp_063.txt.gz
Temp
73 76 79 80 80 80 80 80 79 79 79 79 79 79 79 79 79 80 80 79 79 79 80 79 79 79 78 78 77 77 77 77 76 76 75 75 77 78 77 77 77 77 78
75 77 79 80 80 80 79 79 78 78 78 79 79 79 79 79 79 79 79 80 80 80 79 79 78 78 78 77 77 76 76 76 75 74 74 73 75 77 77 76 77 77 78
75 78 79 79 79 79 79 78 78 78 78 78 79 79 78 78 79 79 79 80 79 79 79 78 77 77 77 77 77 77 77 76 76 75 74 71 72 77 77 76 76 77 78
77 78 78 78 78 78 78 78 78 78 78 78 79 79 78 78 78 78 78 79 79 78 77 77 76 76 76 76 76 77 77 77 75 75 73 74 76 77 76 76 76 76 75
76 77 78 78 78 78 78 77 78 78 78 78 78 78 78 78 77 77 77 77 77 76 76 76 76 76 76 76 76 76 77 76 74 74 73 69 70 76 76 75 75 75 75
76 75 77 77 78 77 77 77 77 77 77 77 77 77 77 77 77 76 75 75 75 75 75 75 75 75 75 75 76 76 75 75 72 68 69 72 70 77 76 75 75 75 75
73 75 77 77 77 77 77 77 77 77 77 77 77 77 77 77 76 75 75 75 75 75 75 75 75 75 75 75 75 75 74 72 69 66 66 67 70 76 76 75 75 75 75
74 76 77 76 76 76 76 76 76 77 77 77 77 77 77 76 76 75 75 75 75 75 75 75 75 75 74 74 74 74 73 71 70 67 66 66 74 76 76 75 75 74 74
75 75 74 75 75 74 75 75 75 76 76 76 76 76 75 75 75 75 75 75 75 75 74 74 74 74 74 74 73 73 72 70 65 67 71 66 74 76 76 75 74 74 74
75 74 72 73 74 73 72 73 73 74 74 74 74 73 72 72 73 74 73 73 74 74 74 73 73 73 73 73 73 72 71 69 64 66 66 66 74 76 75 75 75 74 73
74 73 73 72 72 72 71 72 72 72 72 72 71 70 69 69 69 70 70 71 72 73 73 73 73 72 71 71 71 71 70 64 63 65 66 72 74 75 75 75 74 74 72
71 71 73 73 73 72 75 69 68 70 68 69 69 68 67 68 68 70 68 69 71 72 72 73 73 72 70 64 63 67 64 64 64 65 65 72 75 75 75 75 74 73 72
70 72 75 75 74 73 72 69 68 68 67 68 68 67 67 68 67 66 65 66 65 67 66 68 67 66 63 64 64 64 65 65 65 65 69 72 75 75 75 75 74 74 73
72 74 76 76 75 71 73 70 70 70 69 69 69 69 67 65 65 63 63 63 64 65 64 64 63 64 65 67 68 67 67 66 65 66 65 70 73 75 75 74 75 73 73
70 71 75 74 72 73 71 71 70 69 71 71 73 71 69 67 65 65 64 64 64 64 64 64 64 66 66 67 68 67 68 67 67 67 65 67 71 73 75 75 75 74 73
69 71 73 74 74 72 72 70 73 70 72 71 71 72 71 68 68 67 66 65 65 65 66 67 67 67 67 66 68 68 68 68 67 68 67 65 68 70 73 74 75 75 75
70 71 73 75 75 74 71 73 73 72 76 74 71 72 73 70 69 69 67 66 67 67 69 67 67 67 66 68 67 68 70 72 71 71 68 69 68 66 70 74 74 74 74
69 71 73 76 73 72 73 74 74 75 73 75 72 71 73 73 71 69 68 67 68 68 67 67 66 66 65 66 68 71 71 71 72 68 68 68 67 68 67 70 72 73 73
70 71 71 73 70 73 73 73 73 74 74 73 71 71 72 73 73 70 69 69 69 68 68 69 70 70 69 69 69 69 66 64 65 68 65 66 67 66 67 66 66 67 69
68 71 69 72 71 71 70 69 68 69 71 71 71 71 73 73 73 70 69 69 73 71 71 70 70 69 68 68 69 69 68 66 64 64 64 67 65 66 62 62 60 61 65
68 66 67 70 70 69 67 66 65 65 67 68 70 74 75 75 75 72 69 72 72 71 70 71 69 68 66 66 65 64 62 67 63 64 63 63 64 62 61 60 59 58 59
66 67 65 67 67 69 69 68 68 67 67 69 70 72 73 72 71 71 70 69 69 68 69 68 67 65 65 66 62 59 58 61 62 61 60 62 60 61 60 61 59 57 55
65 64 68 66 69 67 69 68 65 66 66 66 67 68 67 69 69 67 67 66 67 66 65 65 65 64 62 62 62 61 56 52 54 59 60 60 60 58 57 58 57 56 53
63 65 66 66 67 69 69 66 65 63 61 62 63 63 64 65 65 66 64 63 62 60 60 60 62 60 58 57 58 60 59 61 56 54 56 57 58 58 59 60 56 54 52
61 61 62 62 61 61 62 63 62 62 60 59 59 61 61 62 63 62 62 61 59 59 58 58 58 57 58 57 56 56 56 57 57 56 53 53 57 59 59 57 56 51 51
57 57 58 60 60 60 60 60 61 60 57 57 57 57 58 59 59 60 60 58 58 58 58 58 58 57 56 56 56 57 56 54 52 51 50 51 52 54 53 54 52 48 48

GFSSE_sfc_temp_066.txt.gz
Temp
71 75 79 79 79 79 79 79 79 79 79 79 80 79 79 79 79 78 79 79 79 79 79 79 79 79 78 78 77 77 76 76 76 75 75 76 77 78 78 78 76 75 77
74 77 78 79 80 79 79 79 78 78 78 79 79 79 79 79 79 79 80 79 79 79 79 79 78 78 78 77 77 76 76 76 75 74 73 73 75 77 77 77 77 78 77
74 77 78 79 79 78 78 78 78 77 78 78 78 78 79 79 79 80 79 79 79 79 78 78 78 77 77 77 77 77 77 76 75 74 73 70 72 77 77 76 76 76 77
76 77 77 78 78 78 78 78 77 77 78 78 78 78 78 79 79 79 80 79 78 77 77 77 76 76 76 76 77 77 77 76 75 74 71 71 74 76 76 76 75 75 75
75 76 77 78 78 78 78 77 77 78 78 78 77 77 77 78 78 78 78 77 76 76 76 76 75 75 76 76 76 77 77 75 73 72 68 68 69 75 76 75 74 75 75
73 74 76 77 77 77 77 77 77 77 78 77 77 77 77 77 77 77 77 75 75 75 75 75 75 75 75 75 76 76 75 74 71 67 67 71 69 76 76 75 75 75 75
72 74 76 77 77 77 77 77 77 77 77 77 77 77 77 76 76 75 75 75 75 75 75 75 75 75 74 75 75 75 74 72 66 65 65 67 69 76 76 75 75 75 74
74 74 76 76 76 76 76 76 76 77 77 77 77 76 76 76 76 75 75 75 75 75 75 75 75 75 74 74 74 74 72 70 68 65 65 66 73 76 75 75 74 74 74
74 73 74 74 74 74 74 75 75 76 76 76 76 76 75 75 75 75 75 75 75 75 74 74 74 74 74 74 74 73 71 69 63 64 68 65 73 76 75 74 74 74 73
73 73 72 72 72 71 71 73 73 74 74 75 74 73 72 72 73 74 73 73 74 74 74 73 74 73 73 73 73 72 70 68 62 65 65 64 74 76 75 75 74 73 73
72 72 73 73 70 69 69 71 72 72 72 72 71 70 69 68 68 69 69 71 72 73 73 73 73 73 72 70 71 71 69 63 61 63 63 71 74 75 75 75 74 73 72
69 70 70 70 69 69 73 67 68 70 69 69 69 67 66 66 66 69 67 69 71 72 72 73 73 72 69 63 63 66 62 62 62 63 64 72 75 76 75 75 74 73 72
69 70 71 71 71 69 69 65 65 65 66 67 67 66 66 67 65 65 64 65 64 66 64 67 65 64 62 62 63 63 63 63 62 63 67 71 75 76 76 75 75 74 73
67 70 72 72 71 69 69 68 66 66 64 64 65 66 65 63 64 63 63 63 63 63 62 62 62 63 63 64 63 64 64 64 64 64 64 69 73 76 76 75 75 74 73
68 69 70 72 72 71 69 67 66 66 67 67 67 67 66 64 63 62 63 62 62 62 63 62 62 63 63 64 65 65 65 65 64 65 64 65 70 73 75 76 75 74 74
70 70 69 71 72 72 71 70 70 68 69 68 67 68 68 67 65 64 63 63 62 62 63 63 63 63 64 64 65 66 66 66 65 66 65 64 67 70 73 75 75 76 76
69 71 69 70 71 70 72 72 70 70 71 69 69 69 69 68 67 66 64 63 64 64 64 64 64 64 64 65 64 66 66 70 70 70 69 68 66 65 69 74 75 75 75
68 70 71 75 72 70 71 71 73 73 72 72 70 70 70 70 69 67 66 65 66 66 65 64 64 64 64 64 67 67 70 69 69 67 65 65 65 69 67 69 72 73 73
68 69 71 70 69 71 72 72 71 71 72 73 71 72 70 71 70 68 67 67 67 67 66 68 68 69 68 69 68 69 68 68 66 66 64 64 64 64 63 66 66 66 68
68 68 68 69 70 72 71 71 70 69 69 70 70 71 70 70 70 68 68 68 69 70 69 69 69 68 68 68 67 68 67 68 66 63 63 64 63 62 61 60 59 60 65
66 65 67 68 69 69 67 66 64 64 66 68 70 72 71 74 72 69 67 68 68 70 70 70 69 68 67 65 65 61 62 62 63 61 60 60 62 63 59 61 57 56 58
66 67 65 67 66 70 71 67 66 65 65 67 68 70 72 72 72 71 70 69 69 68 68 69 68 66 65 65 60 57 55 57 58 58 57 58 58 62 61 60 56 54 52
63 65 67 68 68 69 68 65 64 65 65 65 65 66 68 69 69 68 67 67 67 66 65 65 64 64 61 60 60 58 53 51 53 57 58 60 61 60 59 56 55 53 51
64 63 65 67 68 67 66 65 64 63 62 63 63 63 64 65 64 64 64 63 64 62 62 61 61 59 58 56 56 58 57 57 54 51 55 56 57 57 54 56 54 52 52
60 60 60 62 64 64 65 66 65 62 62 60 59 59 60 60 61 61 61 60 59 58 58 58 57 56 56 55 54 54 55 54 55 53 50 52 54 56 55 53 51 50 52
56 57 57 58 59 60 61 61 62 62 58 58 57 57 58 58 58 59 60 58 57 57 57 57 57 56 56 55 55 55 54 53 51 51 50 50 51 52 53 53 51 50 48

GFSSE_sfc_temp_069.txt.gz
Temp
71 74 78 79 79 79 79 79 79 79 79 79 79 79 79 78 79 79 79 79 79 79 79 79 79 78 78 78 77 77 77 76 75 75 75 75 77 77 78 77 76 73 77
74 76 78 79 79 79 79 78 78 78 78 78 78 79 79 78 78 79 79 79 79 79 79 79 78 78 78 77 77 76 76 75 75 74 73 72 74 77 77 76 75 76 77
74 76 77 78 78 78 78 78 77 77 78 78 78 79 79 79 79 79 79 79 79 78 78 78 78 77 77 77 77 76 76 75 74 74 73 69 70 76 76 75 75 75 76
75 76 76 78 78 78 78 77 77 78 78 78 78 78 79 79 79 79 79 78 78 77 77 77 77 76 76 76 77 77 77 76 74 72 69 69 73 76 76 75 75 75 75
74 75 76 77 78 78 77 77 77 78 77 77 77 78 78 79 79 79 77 77 76 76 76 76 76 76 76 76 77 76 76 74 73 70 67 66 67 75 76 75 74 75 75
71 73 76 77 77 77 77 77 77 78 77 77 77 77 77 78 78 78 76 76 75 75 75 75 75 75 75 76 76 76 75 73 70 66 66 69 68 76 76 75 75 75 75
71 73 75 76 77 76 76 77 77 77 77 76 77 77 77 77 77 76 75 75 75 75 75 75 75 75 75 75 76 75 73 70 65 64 65 66 68 76 75 75 74 74 74
72 73 75 75 76 76 76 76 76 77 77 76 76 76 76 76 76 75 75 75 75 75 75 75 75 74 74 75 75 74 71 70 66 63 64 65 73 75 75 74 74 74 74
72 72 72 73 73 74 74 75 75 76 76 76 76 76 75 75 75 75 75 75 75 75 74 74 74 74 74 74 74 72 70 69 62 63 67 64 72 75 75 74 74 73 73
71 72 71 71 71 70 70 73 73 74 75 75 74 73 72 72 73 74 73 73 74 74 74 73 74 74 73 73 73 72 69 67 61 63 63 63 73 76 75 75 74 73 73
71 73 73 72 69 68 68 70 72 72 72 72 71 70 69 67 68 68 68 71 72 73 73 73 73 73 71 70 71 70 67 61 60 62 62 68 73 75 75 75 74 73 72
69 70 72 72 69 68 72 67 68 69 69 70 68 67 66 65 66 67 66 69 71 71 72 73 73 72 69 62 61 65 61 61 60 61 62 70 74 76 76 74 74 73 72
68 69 71 71 69 67 67 65 66 66 66 67 67 66 65 65 64 64 64 64 63 66 63 66 64 62 61 61 62 61 62 61 61 62 66 70 74 76 76 75 75 74 73
66 67 70 70 69 68 67 66 66 66 65 65 65 65 64 63 63 63 62 63 62 62 61 61 60 61 62 62 61 62 63 62 62 63 63 68 72 75 76 76 74 73 73
67 68 68 68 70 69 67 66 66 65 66 66 64 65 63 62 63 63 62 62 61 61 61 61 61 62 62 62 63 63 63 63 63 63 63 65 68 72 75 76 76 75 74
68 69 69 69 68 69 69 67 67 67 68 66 65 65 64 63 63 62 62 62 61 61 62 62 62 62 62 62 63 64 64 64 63 66 68 67 66 69 72 75 76 76 76
69 69 69 69 68 67 68 67 68 68 68 67 67 67 66 65 63 63 62 61 62 62 62 62 62 62 62 63 63 64 64 64 66 69 69 68 67 65 68 73 75 75 75
69 69 70 72 70 69 67 67 68 70 70 70 68 68 68 68 66 64 63 62 63 63 62 62 62 62 63 63 63 65 68 69 69 68 68 68 66 68 67 68 71 73 73
71 71 69 70 70 70 70 69 69 68 69 70 70 68 68 69 68 66 64 64 65 64 63 64 64 68 65 67 68 68 65 67 67 67 64 63 63 63 64 65 66 66 68
68 70 71 69 69 70 70 69 69 69 68 69 70 69 71 70 68 66 65 65 66 65 65 67 68 67 67 68 67 65 63 63 64 61 61 63 61 61 60 59 58 61 66
66 65 67 66 67 67 65 66 66 65 67 67 67 70 71 71 70 68 65 66 65 65 66 69 68 67 66 65 63 62 60 61 60 59 57 58 59 58 58 60 60 59 58
64 64 66 67 67 69 68 67 66 63 63 68 69 70 71 70 71 70 68 66 68 68 68 66 66 66 65 65 61 57 55 57 57 57 56 57 55 58 59 60 58 56 52
62 63 66 68 68 69 68 65 64 63 64 64 66 67 68 69 69 69 68 67 67 66 65 65 65 64 61 59 60 59 56 50 52 56 57 56 56 56 58 57 55 52 51
63 63 64 64 65 65 64 64 63 61 61 63 64 62 61 62 62 63 63 62 62 62 62 62 62 61 59 56 56 57 56 57 55 51 54 54 54 55 54 53 52 52 51
63 61 61 63 64 64 64 65 64 62 62 62 60 60 59 60 61 61 61 60 60 59 59 59 56 56 56 55 54 54 53 53 54 54 50 53 52 53 53 53 52 50 51
55 57 59 61 62 62 62 63 63 63 60 59 57 58 58 58 58 58 58 59 59 58 57 56 55 55 54 54 54 53 56 53 50 50 49 50 49 48 49 51 51 49 50

GFSSE_sfc_temp_072.txt.gz
Temp
70 73 78 79 79 79 79 79 79 79 79 79 79 79 79 79 79 79 79 79 79 79 79 79 79 79 78 78 77 77 76 76 76 75 75 75 77 77 77 76 76 76 78
72 75 78 79 79 79 79 78 78 78 79 79 79 79 79 79 79 80 79 79 79 79 79 79 79 78 78 77 77 76 76 75 75 74 73 72 74 76 76 75 76 75 78
73 75 77 78 78 78 78 78 77 78 78 78 79 78 79 79 79 79 79 79 79 79 79 79 78 77 77 77 76 76 76 75 74 73 72 68 70 76 76 75 75 75 76
74 75 76 78 78 78 78 77 77 78 78 78 78 78 78 79 79 79 79 78 78 78 77 77 77 76 76 77 77 77 76 75 73 71 67 68 72 76 76 76 76 76 75
72 74 75 77 77 77 77 77 77 77 77 77 78 78 79 79 79 78 78 77 77 76 76 76 76 76 76 76 76 76 75 74 72 69 66 65 66 75 76 75 74 75 75
71 72 75 76 77 77 77 77 77 77 77 77 77 78 78 79 78 77 77 75 75 75 76 76 75 75 75 76 76 75 74 72 69 65 65 69 67 76 76 75 75 75 75
70 72 74 76 77 76 76 76 77 77 77 76 77 77 78 79 78 77 75 75 75 75 75 75 75 75 75 75 75 75 73 70 64 64 64 65 68 76 75 75 75 74 74
71 72 74 75 76 76 76 76 76 76 76 76 76 77 77 78 77 76 75 75 75 75 75 75 75 75 75 75 75 73 72 70 65 63 64 64 72 75 75 74 74 74 74
71 71 71 72 73 74 74 74 75 76 76 76 75 75 75 75 76 75 75 75 75 75 74 74 74 74 74 74 74 72 70 68 61 62 66 64 71 75 75 74 74 74 73
68 70 71 70 70 69 70 73 73 74 74 74 74 73 72 72 73 74 73 73 74 74 74 73 74 74 73 73 73 71 68 67 60 62 62 62 72 75 75 75 74 73 73
69 69 70 71 68 68 68 70 72 72 72 72 71 70 68 66 67 68 68 71 72 73 73 73 73 73 71 69 70 69 66 60 58 60 61 68 73 75 76 75 74 73 72
68 69 72 72 67 67 70 67 68 69 72 69 67 66 65 65 65 67 66 69 71 71 71 73 73 72 67 60 60 64 60 60 59 60 61 69 73 76 76 74 74 73 72
68 70 69 71 68 66 66 66 66 66 69 70 66 65 64 64 64 63 63 63 63 65 62 64 62 62 60 60 60 60 61 60 59 61 64 70 73 76 77 76 75 74 73
66 68 70 70 67 66 65 65 66 66 67 68 66 65 63 62 62 62 61 62 61 61 60 60 60 60 61 61 60 61 61 61 61 61 62 67 70 75 76 76 75 74 73
65 66 66 68 67 67 65 65 65 65 66 66 65 65 64 63 62 62 61 61 60 60 60 60 60 61 61 62 62 62 62 62 62 62 61 64 68 70 74 76 76 76 74
66 66 68 69 69 67 66 65 65 65 66 65 64 64 64 62 62 62 61 61 60 60 61 61 61 61 61 61 63 63 63 63 63 63 64 67 67 68 71 74 76 76 76
67 66 67 69 69 68 67 66 66 65 66 64 65 64 64 64 63 63 61 60 61 60 61 60 60 60 60 62 62 63 63 63 64 68 67 68 68 65 68 71 74 75 75
68 67 68 71 69 69 67 67 68 67 66 66 66 66 66 65 64 63 61 61 61 61 60 60 60 60 60 61 62 64 64 66 66 66 66 64 64 66 67 68 70 73 72
69 67 67 69 69 69 67 68 68 68 66 67 66 66 67 67 66 64 62 62 62 61 61 61 61 61 62 62 64 67 67 64 64 64 62 62 62 62 61 65 67 67 69
68 67 67 68 69 68 66 68 68 68 67 67 67 67 68 69 67 66 64 64 64 63 62 62 63 65 66 67 67 64 62 62 61 60 59 61 61 60 59 59 59 62 66
66 67 68 68 68 68 67 66 66 65 66 67 68 71 70 70 69 68 67 65 64 63 64 67 67 66 65 65 63 59 59 60 59 56 56 56 58 57 57 56 59 59 61
63 63 66 69 69 69 69 70 67 67 67 68 67 68 70 70 70 69 68 66 65 64 67 67 66 64 64 64 61 56 54 56 56 56 54 55 54 56 56 56 55 56 55
61 62 64 68 68 68 69 65 63 63 63 63 64 66 67 69 69 68 67 66 66 66 65 65 65 65 63 60 59 61 56 50 51 55 55 54 54 53 53 53 54 54 51
62 61 63 64 64 64 64 63 63 62 61 62 63 62 62 64 64 64 63 62 62 61 61 61 62 61 61 59 57 57 56 55 51 49 53 52 52 53 51 52 51 52 52
59 60 59 62 63 63 64 65 64 64 64 63 61 60 60 60 61 61 61 61 60 59 59 59 58 57 57 54 53 53 52 52 57 54 49 50 50 51 53 50 50 49 51
56 56 57 60 61 61 61 62 62 61 60 59 60 60 58 58 58 59 59 59 58 58 58 58 57 56 54 53 53 52 56 53 49 50 51 50 49 50 50 50 49 46 47

GFSSE_sfc_temp_075.txt.gz
Temp
75 80 79 79 79 79 79 79 79 79 79 79 80 80 80 79 79 79 79 79 79 79 79 80 79 79 79 78 78 77 77 76 76 75 75 76 77 77 77 77 77 80 78
78 81 78 79 80 79 79 79 78 78 78 79 80 80 80 80 79 79 79 79 79 79 79 80 79 79 78 78 77 77 77 76 75 74 73 73 74 76 76 76 76 78 78
78 81 81 78 79 79 78 78 78 78 78 78 79 80 80 80 79 79 79 79 79 79 79 79 79 78 77 77 77 77 76 75 74 73 73 79 78 76 76 76 75 76 77
79 80 81 78 78 78 78 78 77 78 78 78 78 78 79 79 79 79 79 79 79 79 78 78 77 77 77 77 76 76 75 74 73 72 78 79 79 76 76 76 76 76 75
78 80 80 77 77 78 78 77 77 77 78 78 77 77 78 79 79 79 78 78 77 77 77 76 76 76 76 77 77 76 75 73 71 75 77 77 79 77 76 76 76 76 75
77 79 78 77 77 77 77 77 77 77 77 77 77 77 78 79 79 78 77 76 76 76 76 76 76 76 76 76 76 76 74 72 71 76 77 76 79 76 76 75 75 75 75
76 78 79 76 77 77 77 77 77 77 77 77 77 78 78 78 78 77 76 75 75 75 76 76 76 76 75 76 76 75 73 70 76 76 76 77 78 76 76 75 75 75 75
76 78 79 75 76 76 76 76 76 76 76 77 77 78 78 78 78 76 75 75 75 75 76 76 75 75 75 75 75 73 71 70 74 76 75 76 75 76 75 75 74 74 74
77 77 77 78 76 74 74 75 75 76 76 76 76 76 77 76 76 76 75 75 75 75 75 75 75 75 75 75 74 72 70 68 76 76 76 77 71 76 75 74 74 74 74
75 75 75 76 77 77 77 73 73 74 74 74 74 73 72 74 74 74 73 74 74 74 74 74 74 74 74 74 73 70 68 67 76 75 76 77 72 76 76 76 74 73 73
71 73 74 74 75 75 76 74 73 72 72 72 72 70 70 76 76 75 70 71 72 73 73 73 73 73 71 69 70 69 68 76 76 76 77 70 73 75 76 75 74 73 72
69 69 72 73 73 74 75 75 75 75 75 76 75 75 75 74 75 74 70 69 71 71 72 73 73 71 69 74 74 69 77 76 76 76 77 69 73 76 76 75 74 74 72
66 71 72 72 72 72 73 72 73 74 72 74 74 73 73 72 72 73 73 73 73 69 74 73 73 74 73 75 75 76 75 75 77 76 73 69 72 75 77 76 75 74 73
63 67 70 72 71 71 72 71 71 71 72 72 72 72 71 70 70 70 71 71 71 72 72 73 74 73 73 74 75 76 76 76 76 75 74 67 70 74 76 77 76 75 73
62 64 67 70 70 70 70 70 71 71 71 72 72 71 71 70 69 71 71 71 71 71 72 72 73 73 74 74 74 75 75 76 76 75 75 65 67 71 74 76 76 76 76
63 63 66 66 69 70 68 68 68 71 72 72 72 72 71 72 71 71 71 71 71 71 72 72 73 72 73 73 74 75 75 76 76 76 76 76 67 69 71 73 75 76 76
63 64 65 69 71 69 69 68 69 69 70 70 71 73 72 72 72 72 72 71 71 71 71 71 71 72 72 72 74 76 76 77 76 75 77 76 76 65 68 72 73 75 75
64 63 66 70 71 71 70 68 68 71 70 69 71 72 72 72 72 72 71 71 72 71 70 71 71 71 71 72 74 75 76 76 77 77 76 76 75 75 70 68 70 72 74
65 65 66 67 70 71 69 67 70 71 69 70 70 70 71 72 72 72 71 72 71 70 70 71 70 72 71 72 72 75 72 75 75 74 75 73 73 73 74 67 66 68 70
68 67 67 68 70 69 68 69 67 68 69 69 69 70 71 71 71 71 71 72 72 70 69 70 71 70 72 70 68 68 75 75 74 73 72 71 72 70 71 70 71 70 67
66 66 68 67 68 67 67 67 66 64 67 68 68 69 69 70 69 66 68 70 71 70 71 71 71 68 66 68 67 72 72 73 70 70 70 70 68 68 68 69 70 70 68
64 65 65 67 67 68 67 67 67 68 65 68 68 68 70 69 68 68 68 67 69 70 71 69 70 68 69 70 65 64 65 69 69 67 68 67 66 67 66 65 66 65 63
62 63 66 68 69 68 67 65 64 64 64 64 64 65 66 67 67 68 68 67 67 67 69 68 68 67 66 63 65 65 63 61 62 66 65 66 65 66 65 63 63 62 62
63 63 64 64 67 68 67 65 64 63 62 63 63 63 63 63 63 65 66 66 66 66 65 65 65 64 64 65 64 64 64 63 60 59 64 64 64 63 63 62 61 60 58
62 62 61 64 64 64 65 67 65 63 62 63 63 63 62 61 62 61 62 62 62 62 61 61 60 61 62 61 63 61 61 60 61 57 56 61 61 61 61 60 57 60 57
57 58 59 62 61 62 64 64 63 64 63 62 62 61 61 61 61 61 60 60 60 60 59 58 59 58 57 59 61 60 61 60 58 55 54 57 57 60 59 58 54 53 54

GFSSE_sfc_temp_078.txt.gz
Temp
86 87 79 79 79 79 79 80 79 79 79 80 80 80 80 80 79 79 79 79 79 79 80 80 80 79 79 79 78 77 77 76 76 75 75 75 76 77 77 77 79 83 78
88 88 78 79 79 79 79 79 78 78 78 79 80 80 80 80 79 79 79 79 79 80 80 80 79 80 78 78 78 77 76 75 75 74 74 73 74 76 76 76 76 79 77
88 88 84 78 79 79 79 78 78 78 78 79 80 80 80 80 79 79 79 79 79 80 80 79 79 78 78 77 77 76 76 75 74 74 75 83 80 76 76 76 76 76 76
88 87 86 78 79 78 78 78 78 78 78 79 79 79 79 79 79 79 79 79 79 79 79 78 77 77 77 77 77 76 75 74 73 74 84 85 83 76 76 76 76 76 77
86 86 85 78 78 78 78 78 78 78 77 78 78 78 78 79 79 79 79 78 79 78 77 77 77 77 76 76 76 76 74 73 73 79 83 83 83 78 76 77 77 76 75
87 87 79 77 77 77 77 77 77 78 78 77 77 77 78 79 79 79 78 76 76 76 76 76 76 76 76 76 76 75 74 73 74 83 82 80 82 77 76 75 75 75 75
86 87 84 76 77 77 77 77 77 77 77 77 77 78 78 78 78 78 76 75 75 76 76 76 76 76 75 76 76 74 73 71 83 82 82 83 80 77 76 75 75 75 74
85 85 85 76 76 76 76 76 76 77 77 77 76 77 78 77 77 77 76 75 75 76 76 76 76 76 75 75 75 74 72 72 80 82 81 82 76 76 75 75 74 74 74
85 84 83 82 80 74 75 75 75 76 76 76 77 77 76 76 76 76 76 76 75 76 75 75 75 75 75 74 74 72 70 70 84 83 83 83 72 76 75 74 74 74 74
81 81 81 82 84 82 79 73 74 74 74 75 74 74 72 73 74 74 74 75 75 75 74 74 74 75 74 74 72 71 69 69 83 81 83 81 73 76 76 75 74 74 73
67 78 79 80 83 86 80 77 73 72 72 72 73 70 72 79 79 77 73 72 73 73 74 74 74 73 71 71 71 70 68 85 84 85 85 71 73 76 76 75 74 73 73
62 73 76 79 83 84 83 79 81 79 81 82 81 80 83 82 83 81 73 70 72 72 72 73 73 72 70 83 80 70 84 84 84 84 84 71 73 75 76 75 74 74 73
62 64 74 77 81 82 82 79 77 80 81 82 82 82 83 81 79 80 80 78 79 70 80 77 77 81 82 83 82 84 84 83 85 84 79 70 72 75 77 76 75 75 74
62 63 72 75 79 81 82 81 78 76 80 79 80 80 79 78 78 80 80 79 79 80 81 81 82 82 81 82 83 83 83 84 85 84 81 69 70 74 76 76 76 75 75
61 63 63 72 77 79 79 81 79 78 77 80 80 80 81 79 77 79 79 79 80 81 81 81 81 82 82 82 82 82 83 83 84 85 85 67 68 71 73 75 76 77 76
64 62 63 66 73 76 77 77 79 80 79 76 77 79 80 79 77 77 79 79 80 81 81 82 81 81 81 82 82 83 82 83 84 84 85 83 67 69 71 73 75 76 76
66 64 63 65 67 71 74 75 76 77 78 77 77 76 78 77 78 79 80 80 80 81 81 81 81 81 80 81 81 83 83 83 83 83 83 83 81 65 68 72 73 75 75
66 66 67 67 69 74 74 74 74 76 76 77 76 76 75 78 79 79 80 80 81 80 80 79 79 78 79 80 81 82 82 83 83 84 83 83 82 82 72 70 70 72 74
67 67 67 65 68 74 75 73 73 74 74 76 77 79 77 78 78 78 79 80 80 79 78 78 78 79 79 79 79 81 82 81 83 82 82 81 81 79 80 70 66 68 71
69 67 65 66 68 72 74 73 72 71 74 75 76 78 78 78 77 77 78 79 80 77 77 77 78 79 79 79 77 72 74 81 81 81 80 80 80 77 77 76 76 72 67
69 66 67 66 68 71 70 69 69 68 70 72 74 76 78 77 77 76 73 74 78 77 77 78 78 77 76 75 70 73 78 80 79 78 79 79 77 76 76 77 78 76 71
64 65 66 67 68 68 68 71 70 70 69 72 74 75 76 75 74 74 71 68 70 73 77 77 76 73 73 74 73 71 69 74 77 76 77 76 75 76 74 74 74 73 72
62 62 64 65 67 68 68 68 67 68 67 66 68 70 73 72 72 70 69 67 67 67 71 75 73 73 71 72 69 70 68 67 70 75 72 74 73 74 74 71 71 70 70
63 65 67 66 67 69 70 68 66 62 61 62 62 63 64 67 66 66 66 65 64 65 65 69 72 73 72 68 68 71 72 72 65 65 70 70 71 71 71 71 69 68 68
63 64 65 66 68 68 68 67 67 64 63 62 62 63 62 63 63 62 63 63 63 63 62 62 62 62 65 66 66 64 68 69 69 64 63 68 68 70 70 69 68 67 65
61 62 64 67 66 66 67 69 67 67 64 61 61 61 62 63 63 63 62 62 63 61 60 60 59 58 58 59 59 59 60 60 63 63 61 64 64 66 67 67 66 65 64

GFSSE_sfc_temp_081.txt.gz
Temp
87 83 79 79 79 79 79 79 79 79 79 80 81 80 80 79 79 79 79 79 79 79 80 80 80 80 79 79 78 77 77 76 76 75 75 75 76 77 77 77 78 79 78
90 85 78 79 79 79 79 79 79 78 79 79 80 80 80 80 79 79 79 79 79 80 80 80 80 79 79 78 77 76 76 75 75 75 74 74 74 76 76 76 76 78 77
90 85 83 78 79 79 79 78 78 78 79 79 79 80 80 80 79 79 79 79 80 80 80 81 79 79 78 77 76 76 76 75 75 75 75 80 78 76 77 76 76 76 76
92 84 85 78 78 78 78 78 78 78 78 79 79 79 79 79 79 79 79 79 80 79 79 79 78 77 77 77 76 75 75 75 74 75 83 83 81 76 77 76 76 77 76
85 85 82 78 78 78 78 78 78 78 78 79 78 79 79 79 79 79 79 79 79 77 78 77 77 76 76 76 76 75 75 74 74 79 83 82 80 77 76 77 77 76 75
82 84 77 77 77 77 77 77 78 77 78 78 78 78 77 79 79 79 78 78 76 77 76 76 76 76 76 76 76 75 74 74 73 83 82 80 78 77 76 75 75 75 75
81 81 83 77 77 77 77 77 77 77 77 78 78 77 77 79 78 78 76 76 76 76 76 76 76 76 76 76 75 74 73 73 81 82 83 81 78 77 76 75 75 75 74
81 81 83 76 76 76 76 76 76 77 77 77 77 77 77 78 78 78 76 76 76 76 76 76 76 75 75 75 75 74 72 72 80 82 82 79 75 76 76 75 75 74 74
67 79 81 82 78 74 75 75 75 76 76 76 75 76 76 76 76 76 76 76 76 76 76 75 75 75 75 75 74 73 72 71 78 82 83 80 74 76 75 74 74 74 74
67 67 75 79 81 81 79 73 74 74 75 75 74 73 72 73 74 75 75 75 75 75 75 75 75 75 74 74 73 72 70 70 83 81 82 77 74 76 76 75 74 74 73
66 66 68 75 80 83 79 77 73 72 72 72 72 70 72 77 77 75 74 73 73 74 74 74 74 74 72 71 71 70 69 82 83 83 82 72 74 76 76 75 74 74 73
62 66 63 64 76 79 81 77 80 80 80 81 80 78 80 80 81 81 72 71 72 72 73 73 73 72 71 80 77 71 78 84 83 82 80 72 74 75 76 75 74 74 73
62 62 64 65 68 79 80 77 81 81 82 82 82 80 83 83 80 80 77 75 76 70 76 75 74 77 80 83 83 83 84 83 84 83 75 72 73 75 76 76 75 75 74
61 63 65 65 64 79 82 77 78 82 83 82 81 82 82 81 78 80 79 78 79 78 80 79 80 81 82 83 84 83 83 83 84 83 77 70 72 74 76 76 76 76 75
62 63 64 65 64 74 81 75 75 78 82 82 82 82 82 79 77 79 80 80 80 80 81 80 81 82 82 83 83 83 83 84 84 84 83 68 70 71 73 75 76 76 76
65 63 64 64 63 68 80 78 75 76 78 80 80 80 81 80 78 79 79 79 79 80 80 81 81 82 82 83 82 83 83 83 84 84 84 78 68 70 71 73 75 76 76
65 65 65 65 64 66 78 79 78 76 76 77 79 81 81 80 79 79 79 77 78 79 81 82 82 82 81 82 82 83 83 84 84 83 83 83 77 67 70 72 73 74 75
66 64 65 66 64 67 73 75 78 79 77 74 75 76 78 79 79 79 78 78 79 81 80 80 79 79 79 80 80 81 82 83 83 84 84 83 82 81 70 70 72 71 72
68 66 64 65 64 65 74 72 75 77 75 78 78 77 77 78 78 79 79 79 81 79 79 78 78 78 77 78 79 81 78 81 81 83 82 82 81 79 79 69 67 67 70
69 68 66 65 65 66 72 71 71 73 75 77 76 77 78 77 78 78 77 77 78 77 77 77 77 78 78 78 76 75 78 78 80 81 81 81 80 78 77 76 72 69 68
67 66 65 65 65 67 68 68 67 67 69 70 75 77 76 78 77 75 75 74 75 74 77 77 77 76 75 76 70 73 74 77 79 79 79 78 78 76 76 75 76 72 68
63 63 63 64 64 66 67 68 68 69 69 71 73 74 75 76 75 74 72 72 71 69 69 72 75 74 74 75 70 70 67 72 76 76 76 76 76 75 74 74 74 72 70
61 61 63 63 63 64 65 65 67 69 67 66 68 70 70 72 72 71 71 71 69 67 64 65 66 72 68 70 70 69 66 64 70 73 72 74 73 73 73 71 72 71 70
61 60 61 62 63 64 65 64 64 63 63 63 66 66 66 69 68 68 68 68 67 66 65 64 65 65 68 65 66 68 71 70 65 64 69 70 71 72 72 70 69 69 68
59 61 62 63 64 65 65 64 62 63 63 62 62 62 63 65 64 66 64 66 65 65 64 64 61 60 60 61 61 62 63 63 65 63 60 65 67 69 71 70 69 68 66
62 62 63 63 65 67 67 65 64 62 62 61 62 60 61 62 63 62 63 63 64 63 62 60 59 58 58 57 57 57 58 57 56 56 56 59 63 67 67 67 66 66 64

GFSSE_sfc_temp_084.txt.gz
Temp
77 77 79 79 79 79 79 79 79 79 79 80 80 80 79 79 79 79 79 79 79 80 80 80 80 79 79 79 78 77 77 76 76 75 75 75 76 77 77 77 77 77 78
80 78 78 79 79 79 79 79 78 78 78 79 80 80 80 80 79 79 79 79 79 80 81 80 81 79 79 78 77 76 77 76 76 74 74 73 74 76 76 76 76 77 77
79 80 79 79 79 79 79 78 78 78 78 79 79 80 80 79 79 79 79 79 80 80 80 79 79 80 78 77 76 76 76 76 75 74 75 71 72 76 77 76 76 76 76
83 79 80 78 78 78 78 78 78 78 78 78 79 79 79 79 79 79 79 80 80 80 80 79 78 77 77 76 76 76 76 75 75 74 74 75 76 77 77 76 76 77 76
81 81 80 78 78 78 78 78 78 78 78 78 78 78 79 79 79 79 79 79 78 79 79 78 77 76 76 76 75 76 76 75 74 76 74 72 70 76 76 76 75 75 75
80 82 77 77 77 77 77 77 78 77 78 78 78 78 78 79 79 79 78 79 77 77 77 77 76 76 76 75 75 75 75 74 73 74 72 74 73 77 76 75 75 75 75
78 77 78 76 77 77 77 77 77 77 78 78 78 78 78 78 78 78 78 78 78 77 76 76 76 76 75 75 75 75 74 73 71 73 73 70 71 77 76 75 75 75 75
67 75 78 76 76 76 76 76 76 76 77 78 77 77 77 78 78 78 78 77 76 76 76 76 76 76 75 75 75 74 73 71 73 73 71 69 74 76 76 75 75 75 74
66 67 72 74 75 74 74 75 75 76 76 76 77 76 76 76 77 78 77 76 76 76 75 75 75 75 75 74 74 73 72 71 66 72 74 69 74 76 75 75 74 74 74
65 65 65 70 73 73 72 73 74 74 74 75 74 73 72 73 74 75 75 74 76 75 74 74 75 75 74 73 73 72 71 70 66 72 70 69 74 76 75 75 74 74 74
65 65 63 65 65 66 72 72 72 72 72 71 71 70 71 74 75 73 72 72 73 74 74 74 74 73 72 71 71 71 70 67 68 70 68 72 74 76 76 75 74 74 73
62 64 63 64 64 65 66 70 71 72 71 73 72 72 75 73 73 74 69 71 72 72 72 73 73 72 70 66 65 68 65 67 70 70 68 73 75 76 76 75 74 74 73
61 61 62 65 64 64 65 67 73 72 72 73 72 73 75 73 70 69 67 67 66 67 67 68 67 66 65 67 68 67 68 70 70 70 70 72 74 76 76 76 75 74 74
60 61 63 64 64 63 64 65 71 73 73 73 73 74 71 72 70 70 68 67 67 66 66 67 67 68 68 71 70 71 71 71 71 70 68 70 73 75 76 76 76 76 75
60 62 63 64 64 64 64 66 69 75 75 73 74 75 73 70 68 68 70 69 68 69 68 69 68 70 71 73 73 72 72 72 72 72 69 67 70 73 74 75 76 76 76
63 62 64 64 64 64 64 66 69 68 73 74 72 71 72 70 69 69 69 69 69 70 70 70 70 70 70 71 72 73 72 73 73 76 71 69 68 70 72 74 74 75 76
64 64 63 64 64 64 65 65 70 68 70 70 71 72 73 72 70 70 69 68 69 70 71 70 71 72 72 72 71 72 73 73 76 75 73 70 68 66 70 74 74 74 74
64 63 64 66 64 65 66 66 69 69 68 69 73 73 73 73 72 70 69 68 70 71 70 69 70 69 68 68 69 70 73 75 74 73 74 75 71 71 67 70 72 72 73
63 64 63 64 63 65 65 66 67 70 69 69 69 70 72 73 73 71 70 70 72 70 69 70 70 69 67 67 69 70 73 73 74 75 72 72 70 70 68 67 67 67 70
64 65 64 64 64 65 64 66 67 67 69 69 68 70 72 72 73 71 71 71 72 71 69 70 69 69 68 68 71 71 71 72 69 69 71 71 69 69 67 65 62 64 68
63 63 63 63 65 64 63 64 64 63 65 67 68 69 71 70 69 70 68 68 68 69 70 70 69 68 66 67 67 67 68 69 67 70 68 67 67 67 67 66 63 62 63
60 63 62 63 63 65 63 64 65 64 64 65 66 69 70 69 70 69 68 66 67 65 67 67 65 66 66 67 63 61 60 61 66 67 65 66 64 65 66 66 64 63 60
58 60 61 62 63 63 63 63 64 64 63 63 64 64 64 67 68 68 67 66 65 64 63 64 64 63 61 64 64 61 56 55 59 62 63 63 63 62 62 63 64 63 61
58 59 61 62 62 62 62 62 61 60 60 61 62 63 63 65 65 66 66 65 65 64 63 63 63 62 62 61 62 65 62 61 58 54 60 61 62 63 60 61 61 62 61
55 58 59 60 61 62 62 62 61 60 60 61 61 61 61 62 63 63 63 63 64 64 64 64 62 62 62 61 61 60 58 58 58 57 55 58 62 64 62 61 60 59 60
55 56 56 58 61 61 61 61 61 60 60 60 60 60 60 61 62 62 62 62 62 62 63 62 62 60 58 58 58 57 56 54 53 53 52 53 56 61 60 60 58 58 56

GFSSE_sfc_temp_087.txt.gz
Temp
72 76 79 79 79 79 79 79 79 79 79 80 80 80 79 79 79 79 79 79 79 79 80 79 79 80 79 78 78 77 77 76 76 75 75 75 77 77 77 77 77 76 78
75 78 78 79 79 79 79 79 78 78 78 79 80 80 80 79 79 79 79 79 79 80 80 79 79 79 78 77 77 77 77 76 76 74 73 73 74 76 77 76 77 77 77
76 77 78 79 79 79 78 78 78 78 78 79 79 80 80 79 79 79 79 79 80 80 81 80 79 78 77 77 77 77 77 76 75 74 73 69 71 76 77 76 76 76 76
77 77 78 78 78 78 78 78 78 78 78 79 79 79 79 79 79 79 79 79 80 79 79 80 78 77 76 76 76 77 76 76 75 74 71 72 75 77 76 76 76 76 76
76 77 77 78 78 78 78 78 78 78 78 78 78 79 79 79 79 80 79 79 79 78 78 78 77 76 75 76 76 76 76 75 74 73 69 68 69 75 76 75 75 75 75
75 77 76 77 78 77 77 77 77 77 78 78 78 78 78 79 78 79 78 78 79 78 78 78 76 76 75 75 76 76 75 75 72 69 69 72 70 76 76 75 75 75 75
70 75 76 77 77 77 77 77 77 77 77 77 78 78 78 78 78 78 78 79 79 78 77 76 76 75 75 75 75 75 74 72 69 68 68 68 70 76 76 75 75 75 75
67 72 76 76 76 76 76 76 76 76 77 77 77 77 78 78 78 78 78 79 77 77 76 76 76 76 75 75 75 74 73 71 70 68 67 67 74 76 76 75 75 74 74
66 66 66 67 72 72 73 75 75 75 76 77 76 76 76 76 77 78 78 77 76 76 75 75 76 75 75 74 74 73 72 71 65 68 71 67 74 76 75 75 74 74 74
65 64 65 66 67 66 65 69 72 73 74 75 75 74 73 73 75 76 74 74 75 75 74 74 75 74 74 73 73 72 71 69 65 68 68 67 75 76 75 74 74 74 74
64 63 64 64 65 65 67 67 68 70 72 70 71 70 70 74 74 74 72 72 73 74 74 74 74 73 72 71 71 71 70 65 64 66 66 72 75 76 75 75 74 74 73
60 62 63 64 64 64 66 65 66 68 68 71 71 71 72 74 74 74 70 70 72 72 72 73 73 72 69 64 64 68 64 64 64 66 66 72 75 76 76 75 74 74 73
59 60 62 63 63 63 64 64 63 65 66 71 70 71 71 73 72 69 68 70 67 67 66 68 67 65 62 63 64 64 65 65 64 66 69 72 75 76 76 76 75 74 74
59 61 62 63 63 62 63 63 63 65 67 68 71 69 70 70 69 68 66 65 64 64 63 63 62 63 64 65 64 65 67 67 66 66 66 70 73 76 76 76 76 75 75
59 60 61 62 62 63 63 63 64 65 68 69 69 71 69 69 67 68 65 65 63 63 62 62 63 64 64 66 67 67 67 68 68 67 66 67 71 73 76 76 76 76 76
60 60 61 62 63 63 63 64 64 67 71 71 71 71 71 70 69 67 66 65 65 66 65 66 65 65 66 67 70 69 69 69 69 71 72 69 68 71 73 75 75 75 75
62 61 61 62 64 63 64 64 66 67 71 71 72 69 73 71 69 68 68 67 68 68 67 67 67 66 66 68 68 69 70 70 70 73 70 67 67 66 69 74 75 74 74
62 61 62 65 63 63 65 66 66 66 67 69 72 72 73 72 70 67 66 65 66 66 66 65 66 66 65 66 67 69 69 71 73 74 74 72 71 70 66 70 72 73 73
61 61 61 63 63 64 65 65 66 67 66 67 67 69 71 71 68 66 66 66 67 67 66 67 66 67 66 67 67 68 67 68 72 73 69 69 69 66 65 66 68 68 69
60 61 62 62 63 64 63 64 65 65 66 66 68 68 71 72 70 68 67 68 68 67 67 67 67 67 67 67 69 69 66 69 71 71 69 71 69 66 64 63 62 63 67
61 61 62 62 62 63 62 62 62 62 64 65 68 71 70 71 70 67 66 66 68 67 68 68 67 67 65 65 63 65 65 68 71 70 68 65 65 64 64 61 60 61 64
59 60 61 62 63 63 62 63 63 63 63 65 66 67 68 67 68 67 65 65 65 64 66 66 66 64 64 65 62 61 58 61 64 64 63 64 62 63 64 63 61 60 59
57 58 61 62 62 62 62 62 62 63 62 62 63 63 63 65 66 65 65 65 64 63 62 63 63 63 62 62 63 61 56 55 57 60 61 62 61 60 60 61 60 60 58
54 58 60 61 61 62 62 61 60 59 59 60 61 62 62 63 63 64 64 64 65 64 63 63 63 62 61 60 60 62 61 60 56 54 59 61 60 60 58 58 59 59 57
55 55 56 59 61 61 61 61 60 59 60 60 61 60 61 62 62 62 63 63 63 63 62 62 61 62 63 61 61 59 60 58 56 55 52 57 61 61 59 61 61 60 58
54 56 56 56 58 60 60 60 60 59 59 59 59 59 60 60 61 61 62 62 61 62 62 62 61 60 60 60 59 59 57 56 54 53 52 52 54 56 59 60 59 56 54

GFSSE_sfc_temp_090.txt.gz
Temp
71 74 79 79 79 79 80 80 79 79 79 80 80 79 79 79 79 79 79 79 79 80 80 80 80 79 79 79 78 78 77 76 76 76 75 75 77 78 78 77 77 76 78
73 75 78 79 79 79 79 79 79 78 78 79 80 80 80 79 79 79 79 79 79 80 79 80 79 78 78 77 77 77 77 76 75 74 73 73 74 76 76 76 76 75 77
74 76 77 78 79 79 78 78 78 78 78 79 79 80 80 79 79 79 79 79 79 79 79 79 78 77 77 77 77 77 76 75 75 74 72 68 70 76 76 76 76 76 76
76 76 76 78 78 78 78 78 78 78 78 78 79 79 79 79 79 79 79 79 79 80 79 78 77 76 76 76 76 76 76 75 74 73 69 70 74 76 76 76 76 76 76
75 76 76 78 78 78 78 77 78 78 78 78 78 78 79 79 79 80 79 79 79 79 78 77 76 76 76 76 76 76 76 75 73 71 67 67 68 75 75 75 75 75 75
73 74 76 77 77 77 76 77 77 78 78 78 78 78 78 78 79 79 78 77 77 78 78 76 76 75 75 76 76 76 75 74 71 67 67 70 68 76 76 75 75 75 75
70 73 75 77 77 77 77 77 77 77 78 77 77 78 78 79 79 79 77 77 77 78 77 76 76 75 75 75 76 75 74 72 67 65 66 67 69 76 76 75 75 75 74
69 70 72 74 76 76 76 76 76 76 76 77 77 77 77 78 78 78 77 79 78 77 77 76 76 75 75 75 75 74 72 71 69 66 66 66 74 76 76 75 74 74 74
66 66 67 67 69 70 70 71 72 75 75 76 76 76 75 76 77 78 78 78 77 77 76 76 75 75 75 75 74 73 72 70 64 66 68 66 74 76 75 75 74 74 74
64 65 65 66 66 67 67 70 71 71 72 74 75 74 72 74 75 77 75 75 75 75 75 75 76 75 74 74 73 72 71 69 64 66 66 66 75 76 75 74 74 74 73
62 63 64 64 65 66 67 66 68 70 70 70 72 70 69 72 75 74 73 72 74 73 74 74 74 73 72 71 72 71 70 63 63 65 65 71 75 76 75 74 74 74 73
61 61 62 63 63 65 67 63 63 68 68 68 69 69 70 72 74 75 71 70 72 72 72 74 73 72 69 63 63 68 63 63 63 64 64 72 75 76 75 74 74 74 73
60 61 63 62 62 63 64 64 63 64 66 68 69 69 69 69 69 71 71 71 70 67 66 68 67 64 62 61 62 62 63 63 63 64 67 71 75 77 76 75 74 74 74
58 60 61 62 61 61 62 62 63 63 65 65 67 68 67 67 66 67 69 70 67 65 63 63 61 62 62 62 62 62 63 64 63 64 64 70 73 76 76 76 75 75 74
59 59 60 61 60 61 61 61 62 63 66 66 67 68 68 66 66 69 69 68 67 65 62 61 60 61 61 62 63 63 64 65 65 66 64 66 70 74 76 76 76 76 75
59 59 60 60 60 61 60 61 63 63 66 69 66 68 68 66 67 66 68 67 66 65 64 62 60 61 62 63 64 65 66 67 66 67 65 66 68 71 73 75 76 76 75
59 60 60 60 61 61 61 62 64 64 65 67 70 69 69 67 67 68 67 66 66 66 63 62 62 63 63 65 64 66 67 67 68 69 67 68 66 66 70 74 75 75 74
59 59 62 64 62 61 61 62 63 65 66 68 71 70 69 69 68 68 67 66 66 65 64 64 63 62 63 63 64 65 67 68 69 69 71 71 70 71 67 70 72 74 74
59 60 61 61 61 62 62 63 63 66 65 65 67 69 70 70 69 67 67 68 66 65 65 65 63 64 62 63 65 66 66 66 68 72 71 70 66 67 64 65 67 68 70
59 60 60 61 62 63 63 63 63 65 65 65 64 65 71 72 71 68 67 67 67 66 65 65 64 64 64 65 68 67 65 66 67 68 70 70 65 65 64 63 62 62 66
58 58 59 59 61 61 60 60 62 62 64 64 65 66 67 70 69 68 67 67 68 67 67 67 65 64 63 64 62 63 63 66 66 66 68 67 66 63 62 61 60 60 62
59 60 59 60 61 62 61 62 63 62 64 65 66 66 68 68 68 68 66 66 66 65 66 67 65 62 63 62 61 59 58 61 63 65 63 64 64 62 61 61 60 60 60
56 59 60 62 61 61 62 62 62 62 62 62 63 64 65 66 66 66 66 65 64 64 64 63 63 63 60 61 62 60 55 55 57 59 59 60 59 58 59 60 59 59 58
55 57 59 60 61 62 62 61 61 59 60 61 62 62 62 63 62 62 63 62 63 62 61 62 62 61 61 59 60 61 61 60 55 55 58 59 60 60 59 59 58 58 57
55 55 56 59 59 61 61 61 60 60 60 61 61 61 61 61 62 62 62 62 62 62 61 61 61 60 61 60 60 59 59 59 58 55 53 54 58 59 59 60 59 56 57
53 55 55 55 55 56 59 59 59 59 59 59 59 59 59 60 60 61 61 61 61 61 62 62 61 60 60 60 59 59 57 57 55 53 52 53 56 56 58 58 58 57 57

GFSSE_sfc_temp_093.txt.gz
Temp
69 72 79 79 79 80 80 79 79 79 79 80 80 80 79 79 79 79 79 79 79 79 80 80 80 80 80 80 79 77 77 78 76 75 75 76 77 78 78 77 77 76 77
71 74 78 79 79 79 79 79 78 78 78 79 80 80 80 79 79 79 79 79 79 80 80 79 78 78 79 78 78 76 76 75 74 74 73 73 74 76 76 76 76 76 76
73 75 77 78 78 78 78 78 78 78 78 79 79 80 79 79 79 79 79 79 80 79 80 79 78 78 77 77 77 76 76 75 74 73 72 67 69 76 76 75 75 76 76
75 75 76 78 78 78 78 78 77 78 78 78 79 79 79 79 79 79 79 79 79 78 79 78 77 77 77 76 76 76 75 75 73 72 67 68 73 76 76 76 76 76 76
73 74 75 77 78 78 78 77 77 78 78 77 78 79 78 79 79 79 79 79 78 77 77 76 76 76 76 76 76 76 75 74 72 70 66 66 67 75 75 75 75 75 75
71 72 75 77 77 77 77 77 77 77 78 77 77 78 78 78 79 79 78 77 77 76 76 76 76 75 75 76 76 75 75 74 70 65 65 69 67 76 76 75 75 75 75
71 72 74 77 77 77 77 77 77 77 77 77 77 78 78 78 78 78 77 77 78 77 76 76 75 75 75 75 75 75 74 71 65 64 64 65 68 76 76 75 75 75 74
69 71 73 76 76 76 76 75 76 76 76 77 76 77 78 77 78 78 77 77 78 78 77 76 75 75 75 75 75 74 73 70 67 64 65 65 73 76 75 75 74 74 74
66 66 67 69 71 72 72 72 73 73 73 74 76 76 76 76 77 77 76 77 77 77 77 75 75 75 75 75 74 73 71 69 64 64 67 65 74 76 75 74 74 74 74
65 65 65 65 66 65 67 71 71 72 72 72 74 74 73 73 74 76 75 76 77 77 76 75 75 75 74 74 73 72 70 69 63 64 65 65 74 76 75 74 74 74 73
63 62 63 64 65 65 65 67 68 70 70 70 70 70 70 70 72 74 72 73 74 75 75 74 74 74 72 71 71 71 68 62 62 63 64 70 75 76 75 74 74 74 73
61 62 63 62 63 65 66 64 63 66 66 67 69 68 68 68 72 74 71 71 73 73 73 74 74 72 69 63 63 68 62 61 61 63 64 71 75 76 76 74 74 73 73
62 61 62 61 62 62 64 64 64 63 64 67 69 70 67 67 68 72 72 73 72 68 69 69 68 64 62 61 61 61 61 61 60 62 66 70 74 77 76 75 74 74 73
59 60 61 61 61 62 63 63 63 63 64 65 66 68 67 66 65 68 71 71 69 68 66 65 63 61 60 60 60 60 61 61 60 62 64 68 72 76 77 76 75 74 74
59 59 60 61 61 60 60 60 60 60 65 66 66 68 67 66 66 67 67 68 67 66 66 64 64 60 59 60 60 61 62 62 62 63 63 65 69 73 76 76 76 75 75
59 59 59 60 61 60 59 59 59 60 61 64 66 67 68 68 66 66 66 66 66 67 67 66 64 61 59 60 61 62 62 63 63 64 64 64 67 70 73 75 76 76 76
60 59 59 60 60 59 59 60 60 61 62 62 67 66 68 67 67 66 65 66 67 66 67 65 63 62 60 61 60 62 63 64 64 66 65 65 66 66 69 74 75 75 75
60 59 59 63 61 60 60 60 61 62 62 63 65 69 68 68 68 66 66 65 65 65 66 64 64 63 60 60 61 62 64 65 65 66 67 66 67 71 67 70 72 74 74
60 59 59 59 60 60 60 60 61 61 62 64 65 67 69 68 68 67 66 65 66 65 64 65 63 64 60 60 61 63 63 64 66 69 67 67 68 67 65 66 67 68 70
58 58 58 59 59 59 60 61 62 63 63 64 65 66 69 69 68 67 66 66 65 65 65 64 64 62 62 62 65 65 63 64 65 65 66 69 66 64 64 63 63 63 66
56 57 57 58 58 59 58 58 58 59 61 63 65 65 66 68 68 66 65 65 63 66 66 66 65 61 61 62 61 60 62 63 64 65 65 65 65 64 64 62 61 60 61
58 57 57 58 59 59 59 59 60 60 62 64 64 64 65 65 66 65 65 64 64 65 66 65 65 61 62 62 60 58 57 60 62 63 63 63 63 63 62 61 60 60 59
55 54 57 59 60 60 60 60 61 62 61 61 63 64 64 64 64 64 64 64 63 65 63 63 63 62 60 59 60 59 55 54 57 59 58 60 61 60 60 60 59 59 58
53 57 58 59 60 61 61 61 59 59 59 61 61 64 63 63 62 63 63 62 62 63 62 62 62 62 60 59 59 60 60 59 56 54 57 58 58 59 59 58 59 59 59
55 55 56 57 57 58 61 61 60 59 61 60 61 61 62 62 61 61 61 61 61 61 60 60 60 60 60 59 59 58 58 59 58 56 53 53 56 57 60 61 61 60 59
52 53 53 54 54 55 56 56 57 58 59 59 59 59 60 61 60 60 60 60 60 60 61 60 60 60 59 59 59 58 58 57 57 55 53 52 53 54 55 56 56 57 58

GFSSE_sfc_temp_096.txt.gz
Temp
68 72 79 80 80 80 79 79 79 79 79 80 80 80 79 79 79 79 79 79 79 79 79 80 80 80 80 79 78 78 78 76 76 75 75 76 78 78 77 77 76 75 78
70 73 78 79 80 79 79 79 78 78 79 79 80 80 79 79 79 79 79 79 79 80 80 80 81 79 80 79 77 76 76 75 74 74 73 73 74 76 76 76 76 77 77
71 74 76 78 78 78 79 78 78 78 78 79 80 80 80 79 79 79 80 79 79 79 80 79 79 79 78 77 76 76 75 75 74 73 72 67 69 76 76 75 76 76 76
73 73 75 78 78 78 78 78 77 77 78 78 79 80 80 79 79 79 80 79 79 79 79 78 78 77 77 76 76 76 75 74 73 71 67 68 72 76 76 76 76 76 76
72 73 74 77 78 78 78 78 78 78 78 78 79 79 78 79 79 79 79 78 78 77 77 77 77 76 76 76 76 76 75 74 72 69 65 65 67 75 76 75 75 75 75
70 72 75 77 77 77 77 77 77 78 78 78 77 78 77 79 79 79 78 77 76 76 76 76 76 76 75 76 76 76 75 73 69 64 65 69 67 76 76 75 75 75 75
69 71 74 77 77 77 77 77 77 76 78 77 77 78 78 78 79 78 77 76 76 76 76 76 76 76 75 75 75 75 75 71 64 63 64 65 67 76 76 75 75 75 74
70 70 72 75 76 76 76 76 76 76 77 77 77 77 78 77 78 78 77 77 76 76 76 76 76 75 75 75 75 74 72 69 66 63 64 64 73 76 76 75 74 74 74
67 67 68 70 72 73 73 73 73 74 74 74 75 76 76 75 76 77 76 76 77 77 76 75 75 75 75 75 74 73 71 69 63 63 66 64 73 76 75 75 74 74 74
65 65 66 66 67 66 67 72 72 73 73 73 73 74 72 72 74 75 74 75 76 77 76 75 75 75 74 74 73 71 70 68 62 63 64 64 74 76 75 74 74 74 74
65 64 64 64 65 65 66 67 70 71 71 70 71 70 69 69 70 71 72 72 74 75 76 75 74 74 72 71 71 70 68 63 62 62 63 69 74 76 75 74 74 74 73
62 63 64 64 63 64 66 65 66 67 65 68 68 69 68 68 68 72 70 70 73 74 74 75 74 73 70 64 64 68 61 61 61 62 62 69 74 76 76 74 74 74 73
62 62 63 63 62 63 63 62 64 64 65 66 69 68 67 68 67 67 68 72 71 69 70 71 69 66 64 61 60 60 60 60 60 62 65 69 73 76 76 75 74 74 73
59 63 63 62 62 62 62 62 62 64 64 64 66 67 66 65 65 66 66 70 70 67 66 67 66 64 63 60 59 59 60 60 60 61 62 67 71 75 77 76 75 74 74
58 60 61 61 62 61 61 61 60 60 64 65 65 67 67 66 66 66 66 68 68 67 67 64 65 65 61 61 59 59 60 60 60 60 61 64 68 72 75 76 76 75 75
59 59 60 60 62 61 61 60 60 59 62 64 64 64 68 67 67 67 67 66 67 67 67 67 63 63 63 61 59 59 60 61 61 61 62 63 66 69 72 75 76 76 76
58 60 59 60 60 60 60 60 59 59 61 61 63 62 65 66 67 67 67 66 67 67 66 65 63 61 59 60 59 61 60 60 62 63 63 63 64 65 68 73 75 75 75
56 57 59 63 60 59 59 58 59 60 59 60 61 63 63 65 65 65 66 66 67 65 64 63 62 62 62 59 61 60 61 62 62 63 64 65 64 67 66 69 72 74 75
56 57 57 58 59 59 59 58 59 60 60 61 61 63 63 64 66 65 66 66 66 63 63 63 62 63 62 61 60 61 61 61 63 67 63 64 64 65 65 66 67 69 71
55 56 57 57 58 58 59 58 59 60 61 62 62 63 64 65 66 65 66 68 64 63 63 63 63 62 62 63 64 64 61 62 62 62 64 67 66 64 63 63 64 65 67
55 56 56 57 57 57 57 59 60 59 62 61 63 65 65 65 67 66 66 66 63 62 63 63 62 62 61 61 59 59 60 61 62 64 63 64 65 64 64 64 64 64 63
58 56 56 57 57 57 57 57 58 58 59 61 63 64 65 64 65 67 67 65 64 63 64 64 63 61 62 62 58 57 55 59 60 63 62 63 63 63 63 63 62 61 60
54 54 59 58 58 58 59 59 59 60 60 60 61 62 63 65 64 63 64 64 63 63 62 62 62 63 60 60 60 58 54 54 57 58 59 60 61 60 61 61 60 59 59
54 54 58 59 56 57 57 60 60 59 58 60 61 61 62 64 63 63 63 62 62 62 62 62 62 62 60 58 58 60 59 59 55 54 56 57 59 59 59 58 59 59 58
52 52 55 55 55 55 56 60 60 59 59 61 61 60 61 64 64 63 63 62 61 61 61 61 61 62 62 60 59 58 57 57 57 55 54 55 56 57 58 59 60 58 58
50 51 51 52 52 53 54 54 55 56 57 58 58 59 59 61 61 60 60 60 60 60 60 60 60 60 60 59 59 58 58 57 57 55 53 53 53 55 55 57 58 58 58

GFSSE_sfc_temp_099.txt.gz
Temp
76 79 79 80 80 80 80 80 79 79 79 81 80 80 80 79 79 79 79 79 79 80 80 79 80 79 79 80 79 78 77 77 77 76 76 77 77 77 77 77 77 80 78
78 80 78 79 80 80 79 79 78 78 79 79 80 80 79 79 79 79 79 79 79 80 80 81 80 80 79 78 78 76 76 76 75 74 73 73 74 77 77 76 77 79 77
77 79 82 79 79 79 79 78 78 78 78 79 80 80 79 79 79 79 79 79 79 80 80 80 80 80 79 77 76 76 76 75 74 73 73 79 79 76 76 76 76 76 76
78 79 81 78 78 79 78 78 78 78 78 79 80 80 80 79 79 80 80 79 79 79 79 79 79 78 76 76 76 76 75 74 73 72 78 79 79 76 76 76 76 76 76
78 79 80 78 78 78 78 78 78 78 78 78 79 80 79 79 79 80 80 79 77 78 78 78 77 77 76 76 76 76 75 73 71 74 77 78 79 78 76 76 76 75 75
75 79 78 77 77 77 77 77 78 78 78 78 78 78 78 79 79 79 78 77 76 77 77 77 76 76 76 76 76 76 75 73 71 76 77 76 78 76 76 76 75 75 75
72 77 79 77 77 76 76 76 77 77 78 77 77 78 78 78 79 79 77 76 76 76 76 76 76 76 75 75 76 76 74 71 76 76 76 77 78 77 76 76 75 75 75
69 74 78 76 76 76 76 76 76 77 77 76 77 77 78 78 78 78 77 76 76 76 76 76 76 76 75 75 75 75 72 70 73 75 75 77 76 77 76 75 75 75 75
68 69 74 77 77 74 74 74 75 75 75 74 75 76 76 76 76 77 76 76 76 75 76 76 76 75 75 75 74 73 71 69 76 76 75 77 74 76 76 75 75 74 74
67 67 67 72 75 75 75 72 73 73 74 74 74 74 73 73 74 75 74 75 76 75 75 75 75 75 75 74 73 72 70 68 76 74 76 77 74 76 76 75 74 74 74
68 66 66 67 70 71 73 73 72 72 72 71 72 71 72 78 78 78 74 72 74 75 75 74 74 74 73 72 72 71 69 76 76 76 76 70 74 76 76 75 74 74 74
66 67 66 65 67 68 69 71 71 72 70 73 74 74 75 76 77 77 73 70 72 74 74 74 74 73 71 77 76 71 76 76 75 75 75 70 73 76 76 75 74 74 74
65 67 67 65 66 68 68 68 67 68 69 68 70 71 71 71 73 75 77 76 78 72 79 78 75 77 77 75 74 75 75 75 75 75 74 69 73 76 77 75 74 74 74
62 65 67 66 65 66 67 67 68 71 69 68 67 68 68 72 69 73 75 75 76 75 74 77 77 77 74 73 73 74 74 74 74 75 74 67 71 75 77 76 75 74 74
61 64 66 67 65 66 66 67 68 68 71 70 68 68 68 67 67 69 72 75 76 71 72 72 75 75 75 73 72 70 72 73 74 74 74 65 67 72 75 76 76 75 75
62 64 65 65 66 66 66 66 66 66 68 68 69 70 70 70 67 67 68 69 73 75 74 70 68 70 69 70 67 71 69 73 74 73 73 74 66 68 72 74 76 76 76
62 64 65 65 66 65 66 66 66 66 67 68 70 70 70 72 70 70 70 68 70 72 73 69 66 67 66 68 67 69 71 73 73 73 74 74 73 65 68 73 74 75 76
60 62 65 66 65 65 65 66 65 66 65 66 68 69 69 70 71 70 70 69 71 69 70 66 65 63 65 63 66 66 71 71 73 74 73 74 74 75 69 69 72 73 74
60 61 61 63 64 64 64 64 64 65 65 65 66 68 69 69 70 70 69 70 71 68 67 67 66 66 62 61 63 66 68 71 72 73 73 73 74 73 74 69 67 68 70
59 60 60 62 63 63 63 63 63 63 63 64 65 66 68 69 69 69 69 70 71 67 66 66 66 65 65 63 64 64 65 68 71 71 72 74 74 72 72 73 72 71 67
57 60 61 61 62 62 60 60 61 61 63 64 65 67 68 68 68 67 68 69 69 67 66 66 68 66 64 61 60 60 65 67 68 70 72 72 73 72 72 72 73 73 73
59 60 59 61 61 62 62 62 63 63 63 65 66 66 67 68 68 66 68 67 67 65 66 66 65 64 64 62 60 62 59 67 67 69 69 70 70 71 69 69 70 71 72
54 58 60 60 60 62 61 62 62 62 62 61 62 63 66 67 67 67 68 67 65 65 63 64 65 64 60 61 62 60 57 58 63 66 66 69 68 68 70 69 69 70 71
52 55 57 58 57 58 59 59 61 59 58 62 63 64 65 67 67 66 67 66 64 63 63 62 63 62 62 58 59 62 66 63 59 59 63 64 67 67 67 66 67 68 69
51 52 53 55 55 55 55 55 59 59 60 61 63 62 63 64 66 66 66 66 63 61 61 60 59 60 60 60 60 61 61 62 61 58 58 60 61 62 65 66 65 67 67
49 50 50 51 51 52 52 52 53 55 56 55 56 58 57 59 62 65 64 63 63 62 61 61 61 60 60 60 60 62 62 61 60 59 56 58 58 61 61 63 64 64 65

GFSSE_sfc_temp_102.txt.gz
Temp
82 86 79 80 80 80 80 80 80 80 79 80 81 80 79 79 79 79 79 79 79 80 80 80 80 79 79 79 79 78 77 77 77 77 76 76 77 78 78 78 78 82 78
79 88 79 80 80 80 79 79 79 79 79 80 80 80 80 79 79 79 80 79 79 80 80 80 79 79 80 79 77 77 76 76 75 74 74 74 75 77 77 76 77 79 78
84 88 85 79 79 79 79 79 78 79 79 79 80 80 79 79 79 79 79 79 79 79 80 80 80 80 79 78 76 76 76 75 74 74 75 84 81 76 76 76 76 76 77
84 87 87 78 79 78 79 78 78 78 79 79 80 80 80 79 79 79 79 79 79 79 80 80 79 78 77 76 76 76 75 74 73 73 84 85 83 76 76 76 76 76 76
82 85 86 78 78 79 78 78 78 78 78 78 79 80 80 79 79 80 79 79 78 78 78 79 78 76 76 76 76 76 75 74 72 76 83 83 84 78 76 76 76 76 77
76 84 81 78 78 78 77 77 78 78 79 78 78 79 79 79 79 79 78 78 77 76 77 77 77 76 76 76 76 76 74 73 71 83 83 79 83 76 76 76 75 75 75
74 79 84 77 77 77 77 77 77 77 78 78 77 79 79 79 79 79 77 76 76 76 77 77 77 76 75 75 76 75 74 72 82 82 83 82 81 77 76 76 75 75 75
72 73 81 77 76 77 77 76 77 77 77 77 76 77 78 78 78 78 77 76 76 76 77 76 76 76 75 75 76 75 73 70 78 82 82 82 76 77 76 76 75 75 75
75 72 75 83 80 74 75 75 76 76 76 76 76 76 76 76 76 77 76 76 75 76 76 76 76 76 75 75 75 74 71 70 83 83 82 83 74 77 76 75 75 75 74
77 73 70 74 82 83 82 73 73 74 74 75 74 74 73 73 74 75 75 75 75 75 75 75 75 75 75 74 74 72 70 69 83 81 82 83 74 77 76 75 75 74 74
75 76 72 70 75 80 81 79 73 72 71 73 73 71 72 82 84 82 77 73 74 74 74 75 75 74 73 72 72 71 69 81 83 83 84 73 73 77 76 75 75 75 74
71 74 75 71 71 74 77 79 80 79 76 81 80 82 82 83 85 84 77 71 73 73 73 74 74 73 72 82 80 72 79 83 83 82 83 72 73 76 76 75 75 74 74
70 72 74 75 71 70 74 76 75 68 68 74 78 80 74 81 82 82 84 82 81 72 81 78 78 79 81 83 83 83 82 83 83 83 80 71 73 75 77 75 75 74 74
69 70 73 75 73 70 72 76 78 76 71 70 73 76 74 69 75 76 83 82 82 84 80 81 82 82 80 83 83 82 83 82 82 83 81 69 71 74 76 76 75 74 74
68 70 71 74 73 71 69 73 77 79 81 80 78 77 74 71 69 70 75 83 82 80 82 76 82 83 82 81 82 81 81 82 82 83 83 66 68 71 74 76 76 75 75
71 71 72 73 74 72 69 70 74 78 80 80 80 78 79 78 76 75 69 70 76 83 83 81 80 82 77 81 79 81 81 80 81 82 82 81 66 68 71 73 76 76 76
71 72 71 73 74 71 72 72 72 73 76 78 79 79 78 79 78 78 77 77 76 77 81 80 78 79 76 73 74 78 77 78 80 81 81 81 80 64 68 72 74 75 76
69 70 71 74 73 73 72 73 72 73 74 75 78 79 78 78 78 77 77 77 78 77 76 74 75 72 71 66 66 69 76 78 80 81 81 81 81 81 71 68 71 73 74
69 70 69 71 72 73 73 74 74 74 74 75 76 77 77 78 78 77 77 77 78 73 70 70 70 71 68 68 66 69 69 72 78 80 80 80 80 79 80 72 66 68 70
67 68 68 70 71 73 73 72 72 73 73 74 74 75 76 77 77 76 76 76 77 74 72 68 67 67 68 68 65 64 65 70 71 73 76 78 80 79 80 78 78 74 66
65 64 66 68 71 71 68 65 68 70 71 72 72 73 74 75 75 75 74 74 73 73 75 74 73 66 65 68 65 65 63 69 70 69 71 72 73 77 78 78 78 79 77
63 65 66 68 68 69 66 68 71 71 72 72 72 72 73 73 73 73 73 72 73 72 73 72 70 65 65 67 64 65 62 68 67 72 72 69 72 74 76 77 77 76 75
56 57 60 60 61 62 64 65 66 65 64 64 66 68 70 70 71 71 71 70 70 71 70 71 69 65 62 64 66 63 56 59 69 73 67 71 71 73 75 76 75 74 75
51 53 55 57 57 59 61 61 62 63 64 67 66 68 71 71 71 71 70 70 70 69 69 68 66 64 64 60 62 64 64 67 60 58 63 70 72 71 74 74 74 74 74
50 52 54 56 56 56 57 56 57 62 64 63 63 63 64 63 64 67 69 70 69 67 67 64 61 61 62 61 60 60 61 60 60 58 58 61 63 69 71 71 70 69 68
49 52 53 55 54 55 54 51 50 51 54 54 54 55 56 57 57 57 59 66 66 66 64 63 62 62 60 59 59 58 59 58 57 57 56 58 59 64 62 63 63 64 65

GFSSE_sfc_temp_105.txt.gz
Temp
82 82 80 80 80 80 80 80 80 80 79 80 80 80 79 79 79 79 79 79 79 80 80 80 80 79 79 79 79 77 77 77 77 76 76 76 77 78 78 78 78 80 77
84 84 79 80 80 80 80 79 79 79 79 79 80 80 80 79 79 79 79 79 80 80 80 80 79 79 79 78 78 77 77 76 76 75 74 74 75 77 77 76 77 78 77
83 85 83 79 79 79 79 79 79 79 79 79 80 80 80 79 79 79 80 79 79 79 79 80 79 79 79 77 77 76 76 75 75 75 75 83 79 76 76 76 76 77 77
85 85 86 79 79 79 79 78 78 79 79 79 80 80 79 79 79 79 79 79 79 79 78 79 79 78 77 77 76 76 75 75 74 74 81 85 83 76 76 76 76 76 76
83 82 86 79 79 78 78 78 78 78 79 79 79 79 79 79 79 79 79 79 79 78 78 78 78 77 76 76 76 76 75 74 73 75 84 83 82 77 76 76 76 76 77
79 80 80 78 78 77 77 78 78 78 79 78 79 79 79 80 80 79 79 78 77 77 77 78 76 76 76 76 76 76 74 73 72 83 83 80 82 76 76 76 75 75 75
79 80 77 78 78 78 78 78 77 77 78 78 78 79 79 79 79 79 78 77 76 76 77 77 76 76 75 76 76 75 74 72 77 83 83 82 79 77 76 76 75 75 75
77 78 79 78 77 77 77 77 77 77 78 78 78 78 78 79 78 77 77 76 76 77 77 77 76 76 75 75 76 75 73 71 78 82 82 82 75 77 76 76 75 75 75
78 78 78 80 80 75 76 76 76 77 77 77 76 76 77 76 77 77 77 76 76 76 76 76 76 76 75 75 75 74 72 71 76 83 83 82 75 77 76 75 75 75 75
79 78 77 77 77 81 83 74 74 74 74 75 75 74 74 72 75 75 75 75 76 75 75 75 75 75 75 75 74 73 71 70 77 82 81 79 75 77 76 75 75 75 74
77 78 77 76 76 77 76 78 73 73 73 73 73 71 72 80 81 80 76 74 74 75 75 75 75 75 73 72 72 71 69 77 80 82 82 73 75 77 76 75 75 75 74
73 75 77 75 74 75 78 77 81 83 81 82 81 80 80 83 84 84 77 72 73 73 73 74 74 73 72 79 76 71 76 79 82 82 82 73 75 77 77 75 75 75 74
73 74 76 76 76 73 73 76 78 81 81 80 80 81 80 82 81 84 83 80 79 71 78 76 76 77 78 80 82 79 79 80 83 83 80 72 74 75 77 76 75 74 74
71 72 74 76 76 74 74 72 75 79 79 75 71 73 73 76 75 74 83 82 79 81 79 77 79 79 79 81 83 83 82 81 82 83 80 70 72 75 76 77 75 75 74
71 73 73 75 75 76 72 72 72 77 81 81 79 77 74 72 71 73 71 72 77 78 79 74 78 80 79 80 83 83 82 83 82 82 82 67 70 72 74 76 76 76 75
73 74 75 74 75 76 73 71 70 73 76 79 82 81 81 79 77 76 76 76 78 77 79 79 78 77 79 77 80 82 81 81 82 82 82 76 68 70 72 74 75 76 76
73 74 73 74 74 75 75 70 70 69 72 75 78 82 81 81 80 79 78 77 79 80 79 76 78 77 77 73 78 81 78 80 78 81 81 81 74 66 69 72 74 75 76
72 72 74 75 74 74 75 72 70 70 70 75 77 79 81 80 80 79 78 77 79 79 80 79 76 74 73 73 71 75 77 76 74 77 79 81 79 80 68 70 71 73 74
71 71 72 73 72 73 75 76 72 71 71 74 77 79 80 80 80 79 78 78 79 78 76 74 73 73 70 70 71 73 72 72 76 77 77 79 79 78 78 70 67 68 70
70 70 70 71 72 73 73 75 75 74 72 76 77 78 78 79 79 78 77 77 78 77 76 72 71 72 70 70 67 68 69 70 71 73 74 76 77 78 77 76 73 70 66
65 65 69 68 70 72 71 72 71 70 73 74 75 76 76 76 77 76 76 76 76 75 75 75 72 70 69 69 64 64 65 67 68 65 67 72 73 76 75 75 75 76 75
58 58 60 66 70 71 72 71 70 70 70 72 74 74 75 74 74 74 74 73 74 73 73 72 72 68 70 70 65 64 59 62 66 69 71 70 70 72 72 73 75 75 74
52 54 55 58 60 61 61 65 66 66 65 65 67 68 71 72 72 69 70 70 72 72 70 70 70 69 65 67 68 64 57 57 64 69 68 70 71 70 71 71 73 74 74
50 53 54 55 55 56 57 59 59 61 63 68 67 68 69 66 65 63 63 65 68 69 68 69 69 68 67 63 65 65 65 61 57 58 69 70 72 71 71 70 72 72 73
49 51 52 53 54 54 54 54 54 53 56 58 61 61 62 61 61 58 57 59 62 66 68 67 67 66 66 64 63 62 62 62 60 57 56 62 68 71 71 70 69 70 72
49 50 52 53 52 53 53 51 50 50 50 50 51 53 54 56 55 55 55 56 56 58 65 66 66 65 64 63 62 61 59 59 57 56 54 56 57 59 61 62 64 65 64

GFSSE_sfc_temp_108.txt.gz
Temp
78 79 80 80 80 80 80 80 80 80 79 80 80 80 79 79 79 79 79 79 79 80 80 80 80 79 79 79 78 77 77 78 77 76 75 76 77 77 77 77 77 76 77
80 80 79 80 80 80 80 79 79 79 79 79 80 80 80 79 79 79 79 79 79 80 80 80 79 79 79 78 78 77 77 76 76 75 74 74 74 76 77 77 77 76 78
81 82 81 79 79 79 79 78 78 79 79 79 79 79 79 80 79 79 79 79 79 80 80 80 79 79 78 78 76 76 76 76 75 75 74 71 72 76 76 76 76 77 77
81 79 81 79 79 79 78 78 78 79 79 79 79 79 78 78 79 79 79 79 79 79 78 79 78 78 78 77 77 76 75 75 74 74 73 76 76 76 77 76 76 76 76
78 79 78 79 78 78 78 78 78 78 78 78 79 79 79 79 79 79 79 79 78 78 78 78 77 77 77 77 76 75 75 74 73 73 71 72 71 76 76 76 76 76 76
76 78 76 78 78 78 78 78 78 78 78 78 78 78 78 79 79 79 78 78 77 77 77 77 76 76 76 75 76 75 74 74 73 70 72 75 72 77 76 76 75 75 76
76 76 77 78 78 78 77 77 77 78 78 78 78 78 79 79 79 79 78 77 76 76 77 77 76 76 75 75 76 75 74 72 70 68 72 72 71 76 76 76 75 75 75
74 76 77 77 77 77 77 77 77 77 77 77 77 78 78 78 78 78 77 77 76 76 77 77 76 76 75 75 75 75 73 71 73 70 73 70 74 77 76 76 75 75 75
72 73 75 74 76 75 76 76 76 76 77 77 76 76 76 76 77 77 77 76 76 76 76 76 76 75 75 75 75 74 72 71 66 69 77 70 74 77 76 75 75 75 75
71 70 70 72 74 74 75 74 74 74 75 75 75 74 73 73 75 75 75 75 76 75 75 75 75 75 75 74 74 73 71 70 65 69 73 71 75 78 76 75 75 75 74
69 69 69 69 71 72 73 74 72 72 72 72 72 71 70 71 74 74 73 73 74 74 75 75 75 74 73 72 72 72 70 66 67 70 71 73 76 77 77 75 75 75 75
64 66 67 67 68 70 74 73 72 74 71 72 72 72 71 73 74 78 73 71 72 73 73 74 74 73 71 69 68 69 66 67 69 71 70 73 76 77 77 75 75 75 75
63 63 66 67 67 68 68 70 71 71 72 72 73 73 73 74 72 72 73 72 70 69 71 72 71 71 69 70 70 68 68 68 72 71 72 72 75 77 78 76 75 75 74
61 64 65 66 66 66 67 66 70 70 72 69 69 69 68 67 70 71 70 71 71 70 70 71 71 70 70 72 72 70 71 71 73 71 69 70 74 76 77 77 76 75 74
62 63 64 65 65 66 66 67 67 70 69 72 70 69 68 68 66 69 69 69 69 71 69 68 70 72 71 73 74 75 72 73 71 71 68 67 71 74 76 76 76 76 75
64 63 64 65 65 65 64 66 66 66 71 69 73 71 71 68 67 67 69 68 69 71 71 68 68 70 72 70 71 72 76 72 72 72 70 68 68 71 73 75 76 76 76
63 64 64 65 65 64 64 65 66 68 69 69 71 74 73 72 70 70 68 68 69 71 72 69 67 67 68 71 69 71 70 73 71 72 71 71 68 67 70 74 74 75 75
63 63 64 69 65 64 63 63 65 69 68 68 70 72 75 75 72 70 68 67 68 69 68 67 67 66 65 65 65 65 67 69 71 72 73 72 70 72 68 70 72 73 74
62 63 63 64 63 63 63 63 64 66 67 67 68 66 72 75 75 70 68 68 69 67 67 67 65 65 64 64 65 65 64 64 67 73 73 73 74 72 69 68 68 69 71
58 58 59 60 62 63 61 61 62 64 64 66 66 66 67 71 70 68 68 68 68 66 66 65 64 64 64 63 65 65 65 65 64 65 67 71 73 70 72 69 68 67 67
56 56 57 56 58 60 58 58 58 59 63 65 66 66 68 69 69 66 66 66 67 65 65 66 64 63 63 64 61 64 64 64 65 68 69 69 71 72 73 73 70 69 68
52 53 55 56 56 57 56 58 60 61 61 63 64 64 69 69 68 67 64 63 64 64 65 65 64 64 63 63 62 62 58 62 64 66 67 68 68 70 68 70 70 71 68
50 50 53 54 55 56 56 58 59 60 58 58 59 61 63 64 62 61 60 60 61 63 64 65 64 63 62 64 62 61 56 56 58 62 63 66 68 67 69 69 68 70 72
48 50 52 53 53 54 54 54 54 55 55 57 58 59 59 60 58 56 55 57 57 59 60 63 65 63 62 60 62 63 64 60 56 56 63 64 66 67 68 68 69 70 70
48 48 50 52 51 52 52 53 52 52 52 53 53 54 55 56 56 55 55 55 55 55 55 55 59 62 62 61 61 62 62 62 62 58 56 58 65 66 68 67 68 68 68
47 48 49 49 49 51 49 50 50 49 49 49 49 49 50 51 52 52 52 52 53 53 53 54 55 58 62 62 61 62 61 59 59 58 56 57 57 59 61 64 63 65 65

GFSSE_sfc_temp_111.txt.gz
Temp
75 79 80 80 80 80 80 80 79 79 79 80 80 79 79 79 79 79 79 79 79 80 80 80 79 79 79 78 78 78 78 77 76 76 75 75 77 78 77 76 76 76 78
79 80 79 80 80 79 79 79 79 78 78 79 81 80 80 80 79 79 79 79 79 80 80 80 78 79 79 79 78 77 77 76 75 74 73 73 74 76 77 76 76 76 78
79 80 80 78 78 79 79 79 79 78 78 79 79 79 80 80 79 79 79 79 79 79 80 79 79 78 78 78 77 77 76 76 75 74 73 69 71 76 76 76 76 76 77
79 78 78 79 79 78 78 78 78 79 78 78 79 78 79 79 79 79 79 79 79 78 78 78 78 77 78 77 77 76 75 75 74 74 71 73 74 76 76 76 76 76 76
76 77 77 78 79 78 78 78 78 78 79 78 78 78 79 79 79 79 79 78 78 77 78 77 77 77 76 76 76 76 75 74 74 72 69 69 69 76 76 76 76 76 75
75 76 76 77 79 78 78 78 78 78 78 78 78 78 78 79 79 79 78 77 77 76 77 77 76 76 76 75 75 75 74 74 73 67 68 72 70 77 76 75 75 75 75
71 75 76 76 78 78 78 77 78 78 78 78 78 78 79 79 79 79 77 77 76 76 77 77 76 76 75 75 75 75 74 72 69 66 67 68 70 76 76 75 75 75 75
69 72 75 75 76 77 77 76 77 77 77 77 77 78 78 78 78 78 77 76 76 76 77 77 76 76 75 75 75 75 73 71 71 67 68 68 74 77 76 75 75 75 75
68 69 70 72 75 74 75 76 76 76 76 76 76 77 76 76 77 77 77 76 76 76 76 76 76 75 75 75 75 73 72 71 66 66 71 69 74 77 76 75 75 75 75
67 66 67 68 70 72 72 74 74 74 74 75 75 74 72 73 74 75 74 74 75 75 75 75 75 75 75 74 74 72 71 70 64 66 68 68 75 78 77 75 75 75 75
65 64 65 64 67 69 71 74 72 72 72 72 71 71 70 70 72 72 72 72 73 74 74 75 75 74 73 72 72 71 70 66 64 65 67 71 75 78 77 75 75 75 75
60 62 63 63 63 65 71 69 71 73 70 69 70 69 69 69 70 74 71 70 72 73 73 74 74 73 71 68 68 69 66 65 64 65 67 72 76 78 77 75 75 75 75
60 60 62 63 63 62 64 65 66 68 70 70 70 70 69 71 68 70 69 71 69 69 70 72 71 70 68 67 66 66 66 65 65 67 70 72 75 78 77 76 75 74 74
59 61 62 62 62 62 61 63 64 66 69 70 71 68 66 66 67 67 68 69 68 68 67 67 67 67 67 67 67 66 66 66 68 69 66 70 74 77 78 77 75 75 74
59 60 61 62 61 62 61 61 63 64 68 70 70 68 66 65 65 66 67 68 70 70 68 66 68 67 67 68 69 69 67 67 68 70 66 67 71 74 76 77 77 75 75
60 60 61 61 62 61 60 60 61 63 65 70 67 67 68 66 65 66 65 67 69 70 70 67 66 67 67 68 68 69 71 69 70 71 69 67 68 71 74 76 77 77 76
58 60 60 63 63 61 60 60 60 62 66 66 69 66 69 68 66 67 65 65 66 67 67 66 65 65 65 66 66 69 68 68 72 73 73 68 68 67 70 74 75 76 76
56 56 58 60 59 60 60 59 60 61 62 64 68 68 67 72 67 66 65 65 66 66 66 65 64 63 63 64 63 64 64 65 66 67 69 71 69 71 68 71 73 74 75
54 54 55 57 57 58 59 60 58 59 61 64 66 67 69 69 71 69 66 65 66 65 64 64 63 63 62 62 62 63 63 64 65 68 67 68 70 69 69 68 68 69 71
53 53 54 55 56 57 58 58 57 56 58 63 64 67 68 67 65 66 65 62 63 63 63 62 62 62 62 62 64 64 64 64 64 64 66 68 67 69 67 68 67 68 67
52 53 55 56 56 55 56 54 55 54 57 60 62 66 69 65 64 62 61 62 63 62 62 63 62 61 60 60 59 62 62 63 63 65 65 67 68 70 70 71 69 70 70
51 52 52 54 53 55 55 54 55 55 57 58 60 60 62 62 61 61 59 59 59 59 60 60 60 59 59 60 60 58 59 62 62 64 65 66 66 69 69 71 72 70 70
49 49 51 52 51 53 54 54 55 56 56 55 56 58 58 58 57 57 57 57 56 56 58 59 60 59 58 61 60 60 54 54 56 60 62 64 66 66 68 69 70 72 71
47 49 50 51 50 52 51 52 53 53 52 53 54 55 56 56 54 55 55 56 56 55 54 55 57 55 57 58 61 61 61 60 56 57 58 62 64 64 66 67 68 69 69
47 47 48 49 49 51 49 49 50 50 51 52 52 51 51 52 52 53 53 53 53 53 52 53 52 53 53 54 58 60 61 60 59 57 55 60 62 65 65 67 67 68 70
47 47 48 48 48 49 49 47 47 47 47 48 48 47 49 50 51 52 52 52 52 51 50 50 50 50 51 51 51 52 58 58 60 58 57 59 59 62 63 64 65 65 65

GFSSE_sfc_temp_114.txt.gz
Temp
73 77 80 81 80 80 79 79 79 79 78 79 79 79 79 78 79 78 78 79 79 79 80 79 79 79 79 78 79 78 77 77 76 75 75 75 76 77 77 77 76 75 78
77 78 79 80 80 79 79 79 79 78 78 79 81 80 79 79 79 79 78 78 79 79 80 80 79 79 79 78 78 77 77 76 75 74 73 73 74 76 76 76 75 76 77
77 78 79 79 79 78 78 78 78 78 78 78 79 79 80 79 79 79 79 78 79 79 80 79 79 79 78 78 77 76 76 76 75 74 72 68 70 76 76 76 76 77 77
76 77 77 78 79 78 78 78 78 78 78 78 78 79 79 79 79 79 79 78 78 78 78 79 78 78 77 77 77 76 76 75 74 73 69 70 73 76 76 76 76 76 76
74 75 76 78 78 78 78 78 78 78 78 78 78 78 78 79 79 79 79 78 77 77 78 77 77 77 77 76 76 76 75 75 73 72 67 67 67 75 76 76 76 75 75
70 75 75 76 78 78 77 77 78 78 78 78 78 78 78 79 79 79 78 77 76 76 77 77 77 76 76 75 75 75 75 74 72 66 66 70 68 76 76 75 75 75 75
68 74 75 75 76 77 78 77 77 78 78 78 78 78 78 79 79 78 77 76 76 76 77 77 76 76 75 75 75 75 74 73 67 64 65 66 68 76 76 75 75 75 75
66 68 73 74 75 75 76 76 76 77 77 77 77 77 78 78 78 78 77 76 76 76 77 77 76 76 75 75 75 75 73 71 69 65 66 65 71 77 76 75 75 75 75
65 65 66 68 72 73 74 75 75 76 76 76 76 77 76 76 76 77 76 76 76 76 76 76 76 76 75 75 75 74 72 71 64 65 69 66 73 77 77 75 75 75 75
63 63 63 64 65 69 71 73 73 73 74 75 75 74 72 72 73 75 74 74 75 75 75 75 75 75 75 74 74 72 71 70 64 64 65 66 72 77 77 75 75 75 75
62 61 61 62 63 63 67 72 71 72 71 71 71 70 70 70 70 71 71 71 73 74 74 74 74 74 73 72 72 71 69 66 64 63 64 69 73 77 77 76 75 75 75
58 60 60 60 60 62 68 65 66 70 71 69 69 69 68 68 69 72 69 69 71 72 73 74 74 73 71 68 68 69 66 65 64 63 64 70 74 77 78 76 75 75 75
57 58 60 60 60 59 60 60 62 64 67 70 70 68 67 69 67 67 67 68 68 68 70 71 71 70 68 67 66 66 66 65 64 64 67 70 74 77 78 76 75 75 75
56 58 58 59 59 59 58 58 59 61 64 68 70 69 67 65 66 66 66 67 66 67 67 67 67 67 66 67 66 65 66 66 65 66 64 68 72 76 78 77 76 75 74
55 56 57 58 58 59 58 57 58 59 62 65 68 69 68 67 64 65 65 66 68 69 68 67 67 66 66 66 67 65 65 65 65 67 67 65 69 73 76 77 77 76 75
56 55 56 58 59 58 57 56 56 57 60 63 65 68 69 65 64 64 64 65 65 67 68 66 66 65 66 66 66 67 67 67 67 67 68 67 67 70 73 76 77 77 76
53 54 55 58 58 56 57 57 57 55 61 61 63 64 69 68 65 67 65 64 65 65 68 67 65 64 64 64 65 66 66 66 67 68 68 71 68 66 70 74 75 75 76
52 52 54 57 55 56 56 57 58 58 56 58 61 63 65 69 65 64 64 65 67 65 64 63 63 62 62 62 62 63 65 64 65 65 67 68 68 69 68 70 73 74 75
50 51 52 54 54 55 55 56 56 56 54 56 60 61 65 67 68 63 65 63 63 62 62 63 62 62 61 61 61 61 62 62 64 66 64 66 68 69 71 69 67 70 71
49 51 55 55 56 54 55 55 55 55 54 55 58 60 64 66 66 64 64 63 63 61 60 61 60 60 60 60 62 62 61 62 62 62 64 66 66 68 69 68 69 68 67
49 50 54 54 53 54 54 53 53 54 55 55 56 60 60 61 61 61 62 62 62 60 59 60 59 59 58 59 58 58 59 62 62 63 63 64 65 67 67 68 68 68 70
48 50 52 52 50 52 53 54 55 55 54 55 57 57 57 58 58 59 58 58 58 59 59 59 59 58 58 58 56 56 56 57 59 62 63 64 63 67 67 68 70 69 69
45 48 48 48 48 50 51 53 53 55 53 54 55 55 55 56 56 56 56 56 56 56 55 56 55 55 55 59 61 58 55 51 53 57 59 62 63 64 66 67 68 69 70
44 48 49 49 49 51 50 49 49 49 49 51 52 53 53 53 53 54 54 53 53 53 52 53 53 53 53 53 56 59 58 58 55 55 63 61 63 63 64 65 66 68 69
46 46 44 46 49 49 48 47 48 47 49 49 49 49 49 50 51 51 52 52 51 51 51 51 49 49 50 51 50 51 52 55 59 56 54 59 65 65 63 64 65 66 67
47 47 47 47 47 48 48 47 46 46 46 46 47 47 47 49 49 50 50 50 50 51 50 51 51 50 48 48 48 49 49 49 48 48 50 53 56 61 61 63 64 65 65

GFSSE_sfc_temp_117.txt.gz
Temp
73 76 79 80 80 79 79 79 79 78 78 78 79 79 78 78 78 78 78 78 78 79 79 79 79 79 79 79 79 78 78 77 76 75 75 75 76 77 77 76 76 75 78
75 78 78 80 80 79 79 79 78 78 78 78 79 79 79 79 79 78 78 78 79 79 79 79 79 79 78 79 78 77 76 76 75 74 73 73 74 76 77 76 76 75 77
73 77 77 78 79 79 79 78 78 78 78 78 79 79 79 79 79 78 78 78 78 79 79 78 78 78 78 77 76 77 76 75 74 73 72 67 69 76 76 75 76 77 76
73 75 76 78 79 79 78 78 78 78 78 78 78 78 79 79 79 79 78 78 78 78 78 78 78 78 77 77 76 76 76 75 74 72 67 69 71 76 76 76 76 76 76
70 73 75 78 78 78 78 78 78 78 78 78 78 78 78 79 78 79 78 78 77 77 77 77 76 77 77 76 77 75 75 74 73 71 66 66 66 74 76 76 76 75 75
68 74 74 75 77 77 78 78 78 78 78 78 77 77 78 78 78 78 78 77 76 76 77 77 76 76 76 76 76 75 75 74 72 64 64 67 67 75 76 75 75 75 75
65 71 72 75 75 76 77 76 77 77 78 77 77 78 78 78 78 78 77 76 76 76 76 77 76 76 75 75 75 75 75 72 65 63 64 65 66 76 76 75 75 75 75
63 65 67 72 74 74 74 75 76 76 77 77 77 77 78 78 78 77 76 76 76 76 76 77 76 76 75 75 75 75 73 71 67 64 64 64 69 76 76 75 75 75 75
62 63 63 64 68 72 73 73 73 75 75 76 76 76 76 76 76 77 76 76 76 76 75 75 76 75 75 75 74 74 72 70 63 63 67 64 70 76 77 76 75 75 75
61 60 60 61 61 62 66 72 71 72 73 74 74 73 72 72 73 74 74 74 75 75 75 75 75 75 74 74 74 72 71 70 64 63 64 64 71 76 77 76 75 75 75
60 58 59 58 60 60 62 68 68 70 70 71 70 70 69 69 69 70 70 70 72 74 74 74 74 74 72 71 72 71 69 65 63 62 63 68 72 75 77 76 75 75 75
55 56 56 56 57 58 65 59 60 66 67 70 71 69 68 68 68 70 68 69 71 72 72 73 74 73 71 68 67 69 67 65 64 63 63 69 72 75 77 77 75 75 75
54 54 56 56 56 56 57 57 56 57 60 65 70 70 69 68 66 66 65 66 67 66 68 70 70 70 68 67 66 66 66 65 64 64 66 69 72 75 76 77 76 75 75
53 54 56 56 56 55 55 55 54 55 58 60 65 69 67 66 66 65 65 66 65 66 67 67 68 68 67 67 66 65 65 65 65 65 64 67 70 74 76 77 76 75 75
52 53 54 55 55 56 55 54 55 54 54 58 60 64 68 67 66 66 66 65 65 65 66 66 67 67 66 66 66 66 65 65 65 66 65 64 67 71 74 76 77 76 75
52 52 53 55 55 55 55 54 55 53 55 56 58 60 64 65 66 66 66 64 65 66 66 67 65 65 65 65 66 66 67 67 66 66 66 66 66 68 71 74 76 77 76
51 51 52 55 55 54 54 54 55 55 57 55 57 59 60 63 63 66 65 64 65 65 65 65 64 63 64 64 65 65 66 66 65 66 66 66 65 65 68 72 74 75 76
49 49 51 55 54 53 53 54 55 55 54 54 55 57 60 62 63 63 64 63 64 62 62 62 62 61 62 62 62 63 64 64 65 65 66 66 67 69 68 68 71 74 75
48 49 50 53 54 52 53 54 54 54 54 54 55 56 59 61 62 63 63 64 62 62 60 60 61 61 59 60 60 60 61 61 62 64 63 64 66 68 69 69 66 68 71
48 48 51 55 52 53 56 57 57 56 54 55 55 58 60 61 62 62 63 63 62 61 61 60 59 59 59 60 60 60 60 60 60 61 62 64 64 65 67 68 69 67 66
47 47 49 49 48 50 52 52 54 54 56 57 57 57 57 57 58 58 59 60 61 59 60 60 59 57 57 59 57 56 57 59 60 61 62 62 62 63 64 66 67 68 68
45 45 47 47 48 49 50 51 54 54 56 55 56 56 54 55 55 56 57 57 57 58 57 56 55 57 59 59 56 56 52 54 56 59 60 61 62 63 63 64 65 67 68
43 43 46 46 46 47 47 49 50 54 54 52 53 53 53 53 54 54 54 54 55 55 54 53 53 53 53 56 56 56 53 48 54 57 57 59 60 61 62 64 65 66 67
43 44 44 45 46 48 47 46 47 48 48 49 49 50 50 51 51 52 52 53 52 52 52 52 52 51 52 50 53 54 52 53 51 50 56 59 62 61 63 64 64 65 66
43 43 43 44 46 48 48 45 44 45 47 49 49 49 49 50 50 50 51 51 51 51 51 50 49 49 49 49 48 49 51 50 51 48 48 50 55 61 63 65 66 65 65
44 43 43 44 45 46 48 47 46 45 45 45 45 45 46 48 48 49 50 49 50 50 49 49 47 47 47 48 47 48 46 47 46 46 46 47 47 53 55 57 62 64 65